[[{"header":{"parameterUnit":"m.s-1","parameterCategory":1,"la1":30.6,"la2":28.766,"lo1":-90.7593,"lo2":-88.6598,"dy":0.0162,"dx":0.0183,"nx":116,"ny":114,"refTime":"2023-07-17T12:00:00:Z","depth":0,"parameterNumber":2,"parameterNumberName":"U-component_of_WINDS"},"data":[0.0,0.0,0.0,0.0,0.0,0.0,0.0,0.0,0.0,0.0,0.0,0.0,0.0,0.0,0.0,0.0,0.0,0.0,0.0,0.0,0.0,0.0,0.0,0.0,0.0,0.0,0.0,0.0,0.0,0.0,0.0,0.0,0.0,0.0,0.0,0.0,0.0,0.0,0.0,0.0,0.0,0.0,0.0,0.0,0.0,0.0,0.0,0.0,0.0,0.0,0.0,0.0,0.0,0.0,0.0,0.0,0.0,0.0,0.0,0.0,0.0,0.0,0.0,0.0,0.0,0.0,0.0,0.0,0.0,0.0,0.0,0.0,0.0,0.0,0.0,0.0,0.0,0.0,0.0,0.0,0.0,0.0,0.0,0.0,0.0,0.0,0.0,0.0,0.0,0.0,0.0,0.0,0.0,0.0,0.0,0.0,0.0,0.0,0.0,0.0,0.0,0.0,0.0,0.0,0.0,0.0,0.0,0.0,0.0,0.0,0.0,0.0,0.0,0.0,0.0,0.0,0.0,0.0,0.0,0.0,0.0,0.0,0.0,0.0,0.0,0.0,0.0,0.0,0.0,0.0,0.0,0.0,0.0,0.0,0.0,0.0,0.0,0.0,0.0,0.0,0.0,0.0,0.0,0.0,0.0,0.0,0.0,0.0,0.0,0.0,0.0,0.0,0.0,0.0,0.0,0.0,0.0,0.0,0.0,0.0,0.0,0.0,0.0,0.0,0.0,0.0,0.0,0.0,0.0,0.0,0.0,0.0,0.0,0.0,0.0,0.0,0.0,0.0,0.0,0.0,0.0,0.0,0.0,0.0,0.0,0.0,0.0,0.0,0.0,0.0,0.0,0.0,0.0,0.0,0.0,0.0,0.0,0.0,0.0,0.0,0.0,0.0,0.0,0.0,0.0,0.0,0.0,0.0,0.0,0.0,0.0,0.0,0.0,0.0,0.0,0.0,0.0,0.0,0.0,0.0,0.0,0.0,0.0,0.0,0.0,0.0,0.0,0.0,0.0,0.0,0.0,0.0,0.0,0.0,0.0,0.0,0.0,0.0,0.0,0.0,0.0,0.0,0.0,0.0,0.0,0.0,0.0,0.0,0.0,0.0,0.0,0.0,0.0,0.0,0.0,0.0,0.0,0.0,0.0,0.0,0.0,0.0,0.0,0.0,0.0,0.0,0.0,0.0,0.0,0.0,0.0,0.0,0.0,0.0,0.0,0.0,0.0,0.0,0.0,0.0,0.0,0.0,0.0,0.0,0.0,0.0,0.0,0.0,0.0,0.0,0.0,0.0,0.0,0.0,0.0,0.0,0.0,0.0,0.0,0.0,0.0,0.0,0.0,0.0,0.0,0.0,0.0,0.0,0.0,0.0,0.0,0.0,0.0,0.0,0.0,0.0,0.0,0.0,0.0,0.0,0.0,0.0,0.0,0.0,0.0,0.0,0.0,0.0,0.0,0.0,0.0,0.0,0.0,0.0,0.0,0.0,0.0,0.0,0.0,0.0,0.0,0.0,0.0,0.0,0.0,0.0,0.0,0.0,0.0,0.0,0.0,0.0,0.0,0.0,0.0,0.0,0.0,0.0,0.0,0.0,0.0,0.0,0.0,0.0,0.0,0.0,0.0,0.0,0.0,0.0,0.0,0.0,0.0,0.0,0.0,0.0,0.0,0.0,0.0,0.0,0.0,0.0,0.0,0.0,0.0,0.0,0.0,0.0,0.0,0.0,0.0,0.0,0.0,0.0,0.0,0.0,0.0,0.0,0.0,0.0,0.0,0.0,0.0,0.0,0.0,0.0,0.0,0.0,0.0,0.0,0.0,0.0,0.0,0.0,0.0,0.0,0.0,0.0,0.0,0.0,0.0,0.0,0.0,0.0,0.0,0.0,0.0,0.0,0.0,0.0,0.0,0.0,0.0,0.0,0.0,0.0,0.0,0.0,0.0,0.0,0.0,0.0,0.0,0.0,0.0,0.0,0.0,0.0,0.0,0.0,0.0,0.0,0.0,0.0,0.0,0.0,0.0,0.0,0.0,0.0,0.0,0.0,0.0,0.0,0.0,0.0,0.0,0.0,0.0,0.0,0.0,0.0,0.0,0.0,0.0,0.0,0.0,0.0,0.0,0.0,0.0,0.0,0.0,0.0,0.0,0.0,0.0,0.0,0.0,0.0,0.0,0.0,0.0,0.0,0.0,0.0,0.0,0.0,0.0,0.0,0.0,0.0,0.0,0.0,0.0,0.0,0.0,0.0,0.0,0.0,0.0,0.0,0.0,0.0,0.0,0.0,0.0,0.0,0.0,0.0,0.0,0.0,0.0,0.0,0.0,0.0,0.0,0.0,0.0,0.0,0.0,0.0,0.0,0.0,0.0,0.0,0.0,0.0,0.0,0.0,0.0,0.0,0.0,0.0,0.0,0.0,0.0,0.0,0.0,0.0,0.0,0.0,0.0,0.0,0.0,0.0,0.0,0.0,0.0,0.0,0.0,0.0,0.0,0.0,0.0,0.0,0.0,0.0,0.0,0.0,0.0,0.0,0.0,0.0,0.0,0.0,0.0,0.0,0.0,0.0,0.0,0.0,0.0,0.0,0.0,0.0,0.0,0.0,0.0,0.0,0.0,0.0,0.0,0.0,0.0,0.0,0.0,0.0,0.0,0.0,0.0,0.0,0.0,0.0,0.0,0.0,0.0,0.0,0.0,0.0,0.0,0.0,0.0,0.0,0.0,0.0,0.0,0.0,0.0,0.0,0.0,0.0,0.0,0.0,0.0,0.0,0.0,0.0,0.0,0.0,0.0,0.0,0.0,0.0,0.0,0.0,0.0,0.0,0.0,0.0,0.0,0.0,0.0,0.0,0.0,0.0,0.0,0.0,0.0,0.0,0.0,0.0,0.0,0.0,0.0,0.0,0.0,0.0,0.0,0.0,0.0,0.0,0.0,0.0,0.0,0.0,0.0,0.0,0.0,0.0,0.0,0.0,0.0,0.0,0.0,0.0,0.0,0.0,0.0,0.0,0.0,0.0,0.0,0.0,0.0,0.0,0.0,0.0,0.0,0.0,0.0,0.0,0.0,0.0,0.0,0.0,0.0,0.0,0.0,0.0,0.0,0.0,0.0,0.0,0.0,0.0,0.0,0.0,0.0,0.0,0.0,0.0,0.0,0.0,0.0,0.0,0.0,0.0,0.0,0.0,0.0,0.0,0.0,0.0,0.0,0.0,0.0,0.0,0.0,0.0,0.0,0.0,0.0,0.0,0.0,0.0,0.0,0.0,0.0,0.0,0.0,0.0,0.0,0.0,0.0,0.0,0.0,0.0,0.0,0.0,0.0,0.0,0.0,0.0,0.0,0.0,0.0,0.0,0.0,0.0,0.0,0.0,0.0,0.0,0.0,0.0,0.0,0.0,0.0,0.0,0.0,0.0,0.0,0.0,0.0,0.0,0.0,0.0,0.0,0.0,0.0,0.0,0.0,0.0,0.0,0.0,0.0,0.0,0.0,0.0,0.0,0.0,0.0,0.0,0.0,0.0,0.0,0.0,0.0,0.0,0.0,0.0,0.0,0.0,0.0,0.0,0.0,0.0,0.0,0.0,0.0,0.0,0.0,0.0,0.0,0.0,0.0,0.0,0.0,0.0,0.0,0.0,0.0,0.0,0.0,0.0,0.0,0.0,0.0,0.0,0.0,0.0,0.0,0.0,0.0,0.0,0.0,0.0,0.0,0.0,0.0,0.0,0.0,0.0,0.0,0.0,0.0,0.0,0.0,0.0,0.0,0.0,0.0,0.0,0.0,0.0,0.0,0.0,0.0,0.0,0.0,0.0,0.0,0.0,0.0,0.0,0.0,0.0,0.0,0.0,0.0,0.0,0.0,0.0,0.0,0.0,0.0,0.0,0.0,0.0,0.0,0.0,0.0,0.0,0.0,0.0,0.0,0.0,0.0,0.0,0.0,0.0,0.0,0.0,0.0,0.0,0.0,0.0,0.0,0.0,0.0,0.0,0.0,0.0,0.0,0.0,0.0,0.0,0.0,0.0,0.0,0.0,0.0,0.0,0.0,0.0,0.0,0.0,0.0,0.0,0.0,0.0,0.0,0.0,0.0,0.0,0.0,0.0,0.0,0.0,0.0,0.0,0.0,0.0,0.0,0.0,0.0,0.0,0.0,0.0,0.0,0.0,0.0,0.0,0.0,0.0,0.0,0.0,0.0,0.0,0.0,0.0,0.0,0.0,0.0,0.0,0.0,0.0,0.0,0.0,0.0,0.0,0.0,0.0,0.0,0.0,0.0,0.0,0.0,0.0,0.0,0.0,0.0,0.0,0.0,0.0,0.0,0.0,0.0,0.0,0.0,0.0,0.0,0.0,0.0,0.0,0.0,0.0,0.0,0.0,0.0,0.0,0.0,0.0,0.0,0.0,0.0,0.0,0.0,0.0,0.0,0.0,0.0,0.0,0.0,0.0,0.0,0.0,0.0,0.0,0.0,0.0,0.0,0.0,0.0,0.0,0.0,0.0,0.0,0.0,0.0,0.0,0.0,0.0,0.0,0.0,0.0,0.0,0.0,0.0,0.0,0.0,0.0,0.0,0.0,0.0,0.0,0.0,0.0,0.0,0.0,0.0,0.0,0.0,0.0,0.0,0.0,0.0,0.0,0.0,0.0,0.0,0.0,0.0,0.0,0.0,0.0,0.0,0.0,0.0,0.0,0.0,0.0,0.0,0.0,0.0,0.0,0.0,0.0,0.0,0.0,0.0,0.0,0.0,0.0,0.0,0.0,0.0,0.0,0.0,0.0,0.0,0.0,0.0,0.0,0.0,0.0,0.0,0.0,0.0,0.0,0.0,0.0,0.0,0.0,0.0,0.0,0.0,0.0,0.0,0.0,0.0,0.0,0.0,0.0,0.0,0.0,0.0,0.0,0.0,0.0,0.0,0.0,0.0,0.0,0.0,0.0,0.0,0.0,0.0,0.0,0.0,0.0,0.0,0.0,0.0,0.0,0.0,0.0,0.0,0.0,0.0,0.0,0.0,0.0,0.0,0.0,0.0,0.0,0.0,0.0,0.0,0.0,0.0,0.0,0.0,0.0,0.0,0.0,0.0,0.0,0.0,0.0,0.0,0.0,0.0,0.0,0.0,0.0,0.0,0.0,0.0,0.0,0.0,0.0,0.0,0.0,0.0,0.0,0.0,0.0,0.0,0.0,0.0,0.0,0.0,0.0,0.0,0.0,0.0,0.0,0.0,0.0,0.0,0.0,0.0,0.0,0.0,0.0,0.0,0.0,0.0,0.0,0.0,0.0,0.0,0.0,0.0,0.0,0.0,0.0,0.0,0.0,0.0,0.0,0.0,0.0,0.0,0.0,0.0,0.0,0.0,0.0,0.0,0.0,0.0,0.0,0.0,0.0,0.0,0.0,0.0,0.0,0.0,0.0,0.0,0.0,0.0,0.0,0.0,0.0,0.0,0.0,0.0,0.0,0.0,0.0,0.0,0.0,0.0,0.0,0.0,0.0,0.0,0.0,0.0,0.0,0.0,0.0,0.0,0.0,0.0,0.0,0.0,0.0,0.0,0.0,0.0,0.0,0.0,0.0,0.0,0.0,0.0,0.0,0.0,0.0,0.0,0.0,0.0,0.0,0.0,0.0,0.0,0.0,0.0,0.0,0.0,0.0,0.0,0.0,0.0,0.0,0.0,0.0,0.0,0.0,0.0,0.0,0.0,0.0,0.0,0.0,0.0,0.0,0.0,0.0,0.0,0.0,0.0,0.0,0.0,0.0,0.0,0.0,0.0,0.0,0.0,0.0,0.0,0.0,0.0,0.0,0.0,0.0,0.0,0.0,0.0,0.0,0.0,0.0,0.0,0.0,0.0,0.0,0.0,0.0,0.0,0.0,0.0,0.0,0.0,0.0,0.0,0.0,0.0,0.0,0.0,0.0,0.0,0.0,0.0,0.0,0.0,0.0,0.0,0.0,0.0,0.0,0.0,0.0,0.0,0.0,0.0,0.0,0.0,0.0,0.0,0.0,0.0,0.0,0.0,0.0,0.0,0.0,0.0,0.0,0.0,0.0,0.0,0.0,0.0,0.0,0.0,0.0,0.0,0.0,0.0,0.0,0.0,-2.9539,0.0,0.0,0.0,0.0,0.0,0.0,0.0,0.0,0.0,0.0,0.0,0.0,0.0,0.0,0.0,0.0,0.0,0.0,0.0,0.0,0.0,0.0,0.0,0.0,0.0,0.0,0.0,0.0,0.0,0.0,0.0,0.0,0.0,0.0,0.0,0.0,0.0,0.0,0.0,0.0,0.0,0.0,0.0,0.0,0.0,0.0,0.0,0.0,0.0,0.0,0.0,0.0,0.0,0.0,0.0,0.0,0.0,0.0,0.0,0.0,0.0,0.0,0.0,0.0,0.0,0.0,0.0,0.0,0.0,0.0,0.0,0.0,0.0,0.0,0.0,0.0,0.0,0.0,0.0,0.0,0.0,0.0,0.0,0.0,0.0,0.0,0.0,0.0,0.0,0.0,0.0,0.0,0.0,0.0,0.0,0.0,0.0,0.0,0.0,0.0,0.0,0.0,0.0,0.0,0.0,0.0,0.0,0.0,0.0,0.0,0.0,0.0,0.0,0.0,0.0,0.0,-3.0744,0.0,0.0,0.0,0.0,0.0,0.0,0.0,0.0,0.0,0.0,0.0,0.0,0.0,0.0,0.0,0.0,0.0,0.0,0.0,0.0,0.0,0.0,0.0,0.0,0.0,0.0,0.0,0.0,0.0,0.0,0.0,0.0,0.0,0.0,0.0,0.0,0.0,0.0,0.0,0.0,0.0,0.0,0.0,0.0,0.0,0.0,0.0,0.0,0.0,0.0,0.0,0.0,0.0,0.0,0.0,0.0,0.0,0.0,0.0,0.0,0.0,0.0,0.0,0.0,0.0,0.0,0.0,0.0,0.0,0.0,0.0,0.0,0.0,0.0,0.0,0.0,0.0,0.0,0.0,0.0,0.0,0.0,0.0,0.0,0.0,0.0,0.0,0.0,0.0,0.0,0.0,0.0,0.0,0.0,0.0,0.0,0.0,0.0,0.0,0.0,0.0,0.0,0.0,0.0,0.0,0.0,0.0,0.0,-3.1397,-3.1383,-3.1516,-3.2048,-3.2285,-3.23,-3.2404,-3.1944,-3.1232,-3.2451,0.0,0.0,0.0,0.0,0.0,0.0,0.0,0.0,0.0,0.0,0.0,0.0,0.0,0.0,0.0,0.0,0.0,0.0,0.0,0.0,0.0,0.0,0.0,0.0,0.0,0.0,0.0,0.0,0.0,0.0,0.0,0.0,0.0,0.0,0.0,0.0,0.0,0.0,-1.9846,-2.07,-2.1336,-2.1714,0.0,0.0,0.0,0.0,0.0,0.0,0.0,0.0,0.0,0.0,0.0,0.0,0.0,0.0,0.0,0.0,0.0,0.0,0.0,0.0,0.0,0.0,0.0,0.0,0.0,0.0,0.0,0.0,0.0,0.0,0.0,0.0,0.0,0.0,0.0,0.0,0.0,0.0,0.0,0.0,0.0,0.0,0.0,0.0,-2.7001,-2.753,0.0,0.0,0.0,0.0,0.0,0.0,0.0,0.0,0.0,0.0,0.0,0.0,0.0,-3.0955,-3.1649,-3.0896,-3.0833,-3.1474,-3.1474,-3.1766,-3.2368,-3.2998,-3.3304,-3.3333,-3.3901,0.0,-3.184,-3.2571,0.0,0.0,0.0,0.0,0.0,0.0,0.0,0.0,0.0,0.0,0.0,0.0,0.0,0.0,0.0,0.0,0.0,0.0,0.0,0.0,0.0,0.0,0.0,0.0,0.0,0.0,0.0,0.0,0.0,0.0,0.0,0.0,0.0,0.0,0.0,0.0,-1.8307,-1.9034,-2.0234,-2.083,-2.1644,-2.2598,-2.291,-2.2904,-2.2592,-2.3513,0.0,0.0,0.0,0.0,0.0,0.0,0.0,0.0,0.0,0.0,0.0,0.0,0.0,0.0,0.0,0.0,0.0,0.0,0.0,0.0,0.0,0.0,0.0,0.0,0.0,0.0,0.0,0.0,0.0,0.0,0.0,0.0,0.0,0.0,0.0,0.0,0.0,0.0,0.0,-2.6946,-2.719,-2.8567,-2.8035,-2.8188,0.0,0.0,0.0,0.0,0.0,0.0,0.0,0.0,0.0,-3.1652,-3.1174,-3.1129,-3.1693,-3.0877,-3.0742,-3.1368,-3.1368,-3.1782,-3.2454,-3.3152,-3.3661,-3.4083,-3.4756,-3.4395,-3.3316,-3.4083,-3.4296,-3.4207,0.0,0.0,0.0,0.0,-3.1663,-3.0934,0.0,0.0,0.0,0.0,0.0,0.0,0.0,0.0,0.0,0.0,0.0,0.0,0.0,0.0,0.0,-1.707,0.0,0.0,0.0,0.0,0.0,0.0,0.0,0.0,0.0,0.0,0.0,0.0,-1.7985,-1.8874,-2.0456,-2.1059,-2.1936,-2.3068,-2.3561,-2.3523,-2.317,-2.3703,-2.4355,0.0,0.0,0.0,0.0,0.0,0.0,0.0,0.0,0.0,0.0,0.0,0.0,0.0,0.0,0.0,0.0,0.0,0.0,0.0,0.0,0.0,0.0,0.0,0.0,0.0,0.0,0.0,0.0,0.0,0.0,0.0,0.0,0.0,0.0,0.0,0.0,0.0,0.0,-2.706,-2.7414,-2.9134,-2.8297,-2.8312,0.0,0.0,0.0,0.0,0.0,0.0,-3.1026,-3.2053,-3.2604,-3.2492,-3.2058,-3.1841,-3.19,-3.1274,-3.1138,-3.1559,-3.1559,-3.191,-3.2622,-3.3097,-3.3777,-3.4471,-3.499,-3.4986,-3.4677,-3.5279,-3.5279,-3.5001,-3.5213,-3.4674,-3.3817,-3.3268,-3.25,-3.1757,0.0,0.0,0.0,0.0,0.0,0.0,0.0,0.0,0.0,0.0,0.0,0.0,0.0,0.0,-1.707,-1.7335,-1.7404,-1.756,0.0,0.0,0.0,0.0,0.0,0.0,0.0,0.0,0.0,-1.7772,-1.8726,-1.9499,-2.0186,-2.1446,-2.2298,-2.265,-2.3416,-2.3803,-2.3755,-2.4226,-2.4499,-2.4628,0.0,0.0,0.0,0.0,0.0,0.0,0.0,0.0,0.0,0.0,0.0,0.0,0.0,0.0,0.0,0.0,0.0,0.0,0.0,0.0,0.0,0.0,0.0,0.0,0.0,0.0,0.0,0.0,0.0,0.0,0.0,0.0,0.0,0.0,0.0,0.0,0.0,0.0,0.0,-2.8581,-2.8057,0.0,0.0,0.0,0.0,-3.133,-3.1987,-3.2351,-3.2281,-3.2982,-3.3352,-3.3352,-3.3808,-3.3668,-3.2838,-3.2635,-3.2364,-3.219,-3.219,-3.2498,-3.3129,-3.3157,-3.3587,-3.4336,-3.4365,-3.4758,-3.5424,-3.5504,-3.5052,-3.4394,-3.5213,-3.4937,-3.4084,-3.4012,-3.3445,-3.2607,0.0,0.0,0.0,0.0,0.0,0.0,0.0,0.0,0.0,0.0,0.0,0.0,0.0,-1.7019,-1.6742,-1.6385,-1.6376,-1.6524,-1.6899,0.0,0.0,0.0,0.0,0.0,0.0,0.0,-1.7916,-1.8401,-1.8543,-1.9331,-2.0553,-2.1063,-2.2078,-2.3592,-2.3886,-2.4248,-2.4735,-2.459,-2.4713,-2.5149,-2.5832,-2.6503,0.0,0.0,0.0,0.0,0.0,0.0,0.0,0.0,0.0,0.0,0.0,0.0,0.0,0.0,0.0,0.0,0.0,0.0,0.0,0.0,0.0,0.0,0.0,0.0,0.0,0.0,0.0,0.0,0.0,0.0,0.0,0.0,0.0,0.0,0.0,0.0,0.0,-2.9625,-2.8904,0.0,-3.0346,-3.0499,-3.0808,-3.1454,-3.2443,-3.3058,-3.3137,-3.3762,-3.4091,-3.4091,-3.3728,-3.3357,-3.2956,-3.2364,-3.1944,-3.1658,-3.1658,-3.1897,-3.2506,-3.2506,-3.2918,-3.3575,-3.3973,-3.4661,-3.5404,-3.5776,-3.5854,-3.5688,-3.5404,-3.5078,-3.4685,-3.4079,-3.3409,-3.2685,0.0,0.0,0.0,0.0,0.0,0.0,0.0,0.0,0.0,0.0,0.0,-1.7774,-1.6784,-1.6603,-1.6333,-1.5833,-1.5903,-1.6123,-1.6482,0.0,0.0,0.0,0.0,0.0,0.0,-1.8184,-1.8471,-1.89,-1.8976,-1.9628,-2.0722,-2.1012,-2.2051,-2.3756,-2.3963,-2.4564,-2.5358,-2.5009,-2.5071,-2.5518,-2.6083,-2.6837,-2.7643,0.0,0.0,0.0,0.0,0.0,0.0,0.0,0.0,0.0,0.0,0.0,0.0,0.0,0.0,0.0,0.0,0.0,0.0,0.0,0.0,0.0,0.0,0.0,0.0,0.0,0.0,0.0,0.0,0.0,0.0,0.0,0.0,0.0,0.0,0.0,-2.8567,-2.9968,-2.9617,-2.9567,-3.0416,-3.1093,-3.1582,-3.182,-3.302,-3.3778,-3.3864,-3.4497,-3.4814,-3.4814,-3.4698,-3.448,-3.4045,-3.3448,-3.307,-3.2832,-3.2502,-3.2637,-3.3256,-3.3183,-3.3545,-3.4228,-3.4353,-3.4882,-3.5619,-3.5698,-3.5984,-3.6234,-3.572,-3.5497,-3.5241,-3.4421,-3.3792,-3.326,0.0,0.0,0.0,0.0,0.0,0.0,0.0,0.0,0.0,0.0,0.0,-1.6853,-1.5409,-1.5621,-1.5833,-1.5833,-1.6132,-1.6482,-1.6908,-1.6908,0.0,0.0,0.0,0.0,-1.755,-1.885,-1.9509,-1.9354,-1.9985,-2.042,-2.0644,-2.1385,-2.2209,-2.3032,-2.3756,-2.4636,-2.5606,-2.5606,-2.5606,-2.5676,-2.622,-2.6756,-2.7297,0.0,0.0,0.0,0.0,0.0,0.0,0.0,0.0,0.0,0.0,0.0,0.0,0.0,0.0,0.0,0.0,0.0,0.0,0.0,0.0,0.0,0.0,0.0,0.0,0.0,0.0,0.0,0.0,0.0,0.0,0.0,0.0,0.0,-2.8695,-2.8641,-2.8871,-2.9512,-3.0186,-3.0566,-3.0437,-3.2236,-3.3208,-3.2533,-3.3758,-3.4552,-3.4599,-3.5214,-3.5568,-3.5568,-3.6846,-3.704,-3.6119,-3.595,-3.5827,-3.5755,-3.4771,-3.471,-3.5435,-3.5201,-3.5508,-3.6171,-3.5404,-3.5492,-3.6057,-3.5257,-3.5311,-3.5939,-3.6085,-3.6068,-3.5767,-3.4958,-3.4539,-3.4217,0.0,0.0,0.0,0.0,0.0,0.0,0.0,0.0,0.0,0.0,-1.8182,-1.7784,-1.6968,-1.6691,-1.6621,-1.6621,-1.6691,-1.6769,-1.6908,0.0,0.0,0.0,0.0,0.0,-1.8583,-1.9002,-1.9427,-2.0014,-2.0207,-2.042,-2.0566,-2.0867,-2.169,-2.3032,-2.3169,-2.4059,-2.5382,-2.5535,-2.5676,-2.5898,-2.6483,-2.7069,-2.7617,0.0,0.0,0.0,0.0,0.0,0.0,0.0,0.0,0.0,0.0,0.0,0.0,0.0,0.0,0.0,0.0,0.0,0.0,0.0,0.0,0.0,0.0,0.0,0.0,0.0,0.0,0.0,0.0,0.0,0.0,0.0,0.0,-2.9944,-2.9319,-2.9618,-3.0158,-3.0844,-3.1129,-3.1242,-3.1176,-3.2133,-3.2995,-3.3783,-3.4654,-3.5821,-3.7338,-3.7584,-3.7677,-3.7677,-3.8046,-3.7576,-3.6149,-3.6112,-3.5494,-3.4272,-3.4009,-3.3932,-3.3995,-3.3919,-3.3905,-3.3919,-3.4146,-3.4556,-3.5176,-3.537,-3.5958,-3.6494,-3.5523,-3.5352,-3.565,-3.4792,-3.3978,-3.3164,0.0,0.0,0.0,0.0,0.0,0.0,0.0,0.0,0.0,0.0,-1.8539,-1.8066,-1.7373,-1.7038,-1.683,-1.663,-1.6769,-1.6908,-1.6908,0.0,0.0,0.0,0.0,-1.8294,-1.8993,-1.9257,-1.9695,-2.0264,-2.0411,-2.0498,-2.0644,-2.0944,-2.1756,-2.3032,-2.3316,-2.4276,-2.5535,-2.5688,-2.5898,-2.6176,-2.6879,-2.7391,-2.7855,-2.8325,-2.8931,-2.9602,-2.9602,-2.9665,-2.9803,-2.9665,0.0,0.0,0.0,0.0,0.0,0.0,0.0,0.0,0.0,0.0,0.0,0.0,0.0,0.0,0.0,0.0,0.0,0.0,0.0,0.0,0.0,0.0,0.0,0.0,-3.0622,-3.0649,-3.0283,-3.0337,-3.0542,-3.0989,-3.1744,-3.2134,-3.1806,-3.3115,-3.4124,-3.4651,-3.5604,-3.6685,-3.7953,-3.8295,-3.8361,-3.7998,-3.8272,-3.7833,-3.6591,-3.6503,-3.6127,-3.5551,-3.5132,-3.5068,-3.5286,-3.5209,-3.5041,-3.4963,-3.4952,-3.5087,-3.5339,-3.5305,-3.5507,0.0,0.0,0.0,0.0,0.0,-3.325,-3.219,0.0,0.0,0.0,0.0,0.0,0.0,0.0,0.0,0.0,0.0,0.0,-1.8056,-1.7285,-1.7028,-1.6769,-1.6412,-1.6691,-1.6908,0.0,0.0,0.0,-1.7567,-1.8303,-1.8813,-1.9002,-1.9646,-2.002,-2.0264,-2.0489,-2.0644,-2.0712,-2.1461,-2.2285,-2.3169,-2.3829,-2.4779,-2.584,-2.591,-2.6119,-2.6521,-2.7162,-2.767,-2.8051,-2.8117,-2.8789,-2.9727,-2.9727,-2.9913,-3.0111,-2.9789,0.0,0.0,0.0,0.0,0.0,0.0,0.0,0.0,0.0,0.0,0.0,0.0,0.0,0.0,0.0,0.0,0.0,0.0,0.0,0.0,0.0,0.0,0.0,0.0,-3.111,-3.149,-3.1561,-3.1097,-3.0785,-3.0842,-3.2403,-3.324,-3.2577,-3.4667,-3.5769,-3.5194,-3.6401,-3.7203,-3.7347,0.0,0.0,0.0,0.0,-3.7925,-3.7112,-3.6949,-3.7218,-3.78,-3.7028,-3.6964,-3.7658,-3.7491,-3.7337,-3.7337,-3.6545,-3.607,-3.583,-3.5154,-3.466,-3.4564,-3.5264,-3.5507,-3.5156,-3.3479,-3.2277,-3.1311,0.0,0.0,0.0,0.0,0.0,0.0,0.0,0.0,0.0,-1.932,-1.8777,-1.824,-1.7638,-1.7166,-1.6839,-1.676,-1.6839,-1.6968,0.0,0.0,-1.7306,-1.7986,-1.8266,-1.8676,-1.925,-1.9888,-2.0264,-2.0264,-2.0489,-2.0944,-2.1538,-2.1766,-2.2574,-2.3891,-2.4047,-2.4707,-2.5676,-2.584,-2.605,-2.627,-2.6589,-2.7351,-2.8505,-2.903,-2.9747,-3.0387,-3.0387,-3.0462,-3.0522,-3.0462,-3.0911,-3.1537,-3.1637,0.0,0.0,0.0,0.0,0.0,0.0,0.0,0.0,0.0,0.0,0.0,0.0,0.0,0.0,0.0,0.0,0.0,0.0,0.0,0.0,-3.1829,-3.2331,-3.2872,-3.3152,-3.326,-3.3287,-3.3392,-3.4497,-3.505,-3.4538,-3.5263,-3.5823,-3.5845,-3.6084,-3.6745,-3.7856,-3.8106,-3.8106,-3.7959,-3.8076,-3.7777,-3.6971,-3.6944,-3.6624,-3.6163,0.0,0.0,-3.6097,-3.6111,-3.5937,-3.579,-3.5629,-3.5467,-3.5223,-3.5086,-3.499,-3.4908,-3.4729,-3.4191,-3.3407,-3.2277,-3.1311,-3.0351,0.0,0.0,0.0,0.0,0.0,0.0,0.0,0.0,0.0,0.0,-1.9243,-1.8767,-1.8499,-1.8037,-1.7569,-1.7304,-1.7176,0.0,0.0,-1.7176,-1.7525,-1.836,-1.8514,-1.892,-1.9783,-2.0526,-2.0712,-2.0411,-2.1395,-2.1832,-2.1842,-2.2574,-2.3379,-2.412,-2.4492,-2.5087,-2.5758,-2.584,-2.605,-2.6339,-2.6465,-2.7095,-2.8051,-2.8762,-2.9484,-3.0129,-3.0507,-3.0568,-3.0568,-3.0568,-3.0911,-3.1306,-3.1552,-3.2064,-3.257,0.0,0.0,0.0,0.0,0.0,0.0,0.0,0.0,0.0,0.0,0.0,0.0,0.0,0.0,-3.2472,0.0,0.0,-3.291,-3.2896,-3.3403,-3.3949,-3.4098,-3.4244,-3.438,-3.4349,-3.506,-3.5437,-3.4982,-3.5579,-3.6025,-3.5825,-3.6507,-3.719,-3.789,-3.8592,-3.8842,-3.8439,-3.8361,-3.7995,-3.7247,-3.7166,-3.7016,-3.6619,-3.6619,-3.6619,-3.6619,-3.6619,-3.6549,-3.6466,-3.6466,-3.6383,-3.6133,-3.6049,-3.5624,-3.501,-3.4829,-3.4028,-3.298,-3.1765,-3.0789,-3.0091,0.0,0.0,0.0,0.0,0.0,0.0,0.0,0.0,0.0,0.0,0.0,-1.9299,-1.9299,-1.89,-1.8442,0.0,0.0,0.0,0.0,-1.7784,-1.8132,-1.8676,-1.9,-1.948,-2.0198,-2.1268,-2.1461,-2.0867,-2.2285,-2.2734,-2.2274,-2.3526,-2.4181,-2.4337,-2.5004,-2.5535,-2.591,-2.591,-2.6119,-2.6533,-2.6533,-2.685,-2.7417,-2.8182,-2.8953,-2.9685,-3.0387,-3.0568,-3.0568,-3.0568,-3.0687,-3.0911,-3.1278,-3.1781,-3.2298,-3.2856,-3.3054,0.0,0.0,0.0,0.0,0.0,0.0,0.0,0.0,0.0,-3.4196,-3.3563,-3.3508,-3.3452,-3.3084,-3.354,-3.3956,-3.3942,-3.4455,-3.4946,-3.5022,-3.5091,-3.5104,-3.5197,-3.5551,-3.5595,-3.5167,-3.6108,-3.6518,-3.6062,-3.7137,-3.7724,-3.7724,-3.8819,-3.9169,-3.8449,-3.8449,-3.8145,-3.7528,-3.7528,-3.7528,-3.7528,-3.7528,-3.7528,-3.7528,-3.7528,-3.7528,-3.7528,-3.7528,-3.7456,-3.7286,-3.7115,-3.6307,-3.5258,-3.5172,-3.4331,-3.317,-3.1584,-3.0711,-3.0091,0.0,0.0,0.0,0.0,0.0,0.0,0.0,0.0,0.0,0.0,0.0,0.0,0.0,0.0,0.0,0.0,0.0,0.0,0.0,-1.9023,-1.9049,-1.8611,-2.0102,-2.0627,-1.998,-2.1849,-2.2435,-2.169,-2.2585,-2.3316,-2.3818,-2.4047,-2.4492,-2.5158,-2.5241,-2.5535,-2.591,-2.591,-2.6119,-2.6533,-2.6533,-2.6521,-2.6782,-2.8051,-2.8953,-2.9685,-3.0387,-3.0568,-3.0568,-3.0568,-3.1087,-3.1766,-3.1823,-3.2453,-3.3206,-3.351,0.0,-3.364,-3.3876,-3.395,-3.4041,-3.4185,-3.4254,-3.4312,0.0,0.0,-3.4264,-3.3839,-3.4212,-3.4526,-3.4084,-3.4618,-3.5054,-3.504,-3.5559,-3.6029,-3.639,-3.6347,-3.654,-3.7461,-3.7097,-3.6698,-3.6429,-3.719,-3.7629,-3.7284,-3.7463,-3.7504,-3.7504,-3.7642,-3.7768,-3.7612,-3.7599,-3.7612,-3.7528,-3.7528,-3.7528,-3.7528,-3.7528,-3.7528,-3.7528,-3.7528,-3.7528,-3.7528,-3.7528,-3.7443,-3.7443,-3.7456,-3.6949,-3.6166,-3.5567,-3.4614,-3.3345,-3.2051,-3.1003,-3.0204,0.0,0.0,0.0,0.0,0.0,0.0,0.0,0.0,0.0,0.0,0.0,0.0,0.0,0.0,0.0,0.0,0.0,0.0,-1.941,-1.9683,-1.9831,-1.9833,-2.085,-2.1311,-2.1209,-2.2842,-2.3243,-2.251,-2.3756,-2.4276,-2.4108,-2.4564,-2.5004,-2.5453,-2.5453,-2.5688,-2.6062,-2.6062,-2.627,-2.6533,-2.6533,-2.6714,-2.7162,-2.8117,-2.8953,-2.9685,-3.0387,-3.0568,0.0,0.0,-3.1029,-3.161,-3.1823,-3.2675,-3.3599,-3.4084,-3.4523,0.0,-3.474,-3.4737,0.0,0.0,-3.4414,-3.4414,-3.4414,-3.4704,-3.4897,-3.4452,-3.4896,-3.5353,-3.5195,-3.5634,-3.6046,0.0,-3.6358,-3.6753,-3.7135,-3.7055,-3.7306,-3.8195,-3.8388,-3.8225,-3.7579,-3.8345,-3.8538,-3.7978,-3.8265,-3.83,-3.8043,-3.8383,-3.8559,-3.8559,-3.8559,-3.8559,-3.8559,-3.8559,-3.8559,-3.8559,-3.8559,-3.8559,-3.8559,-3.8559,-3.8559,-3.8559,-3.8559,-3.8297,-3.7931,-3.7931,-3.7009,-3.5698,-3.5438,-3.452,-3.3281,-3.2456,-3.1553,-3.0631,0.0,0.0,0.0,0.0,0.0,0.0,0.0,0.0,0.0,0.0,0.0,0.0,0.0,0.0,0.0,0.0,0.0,0.0,0.0,-2.0473,-2.0651,-2.0521,-2.1407,0.0,-2.2029,-2.3436,-2.391,-2.3316,-2.4636,-2.5004,-2.4409,-2.5016,-2.5382,-2.5606,-2.5606,-2.5828,-2.6213,-2.6213,-2.6339,-2.6533,-2.6533,-2.6782,-2.7284,-2.8182,-2.8826,-2.9421,-3.0312,-3.0568,0.0,0.0,-3.1043,-3.1604,-3.188,-3.281,-3.3902,-3.4491,-3.5168,-3.5692,-3.5295,0.0,0.0,-3.4534,-3.4414,-3.4457,-3.4632,-3.5024,-3.5331,-3.5224,-3.5784,-3.6244,-3.6244,-3.6733,-3.7135,-3.7089,-3.7234,-3.7514,-3.8007,-3.7783,-3.8032,-3.8945,-3.9467,-3.9566,-3.9145,-3.9335,-3.9321,-3.8726,-3.9164,-3.9248,-3.8898,-3.9481,-3.9807,-3.9807,-3.9807,-3.9807,-3.9807,-3.9807,-3.9712,-3.9549,-3.9549,-3.9454,-3.9305,-3.9305,-3.9305,-3.9305,-3.9305,-3.9024,-3.8485,-3.8291,-3.7221,-3.5742,-3.5463,-3.4679,-3.3705,-3.3303,-3.2546,-3.1647,0.0,0.0,0.0,0.0,0.0,0.0,0.0,0.0,0.0,0.0,0.0,0.0,0.0,0.0,0.0,0.0,0.0,0.0,0.0,-2.1726,-2.1549,-2.0183,-2.1911,-2.2488,-2.1527,-2.349,-2.4354,-2.4036,-2.4862,-2.5312,-2.5229,-2.5312,-2.5382,-2.5606,-2.5606,-2.5828,-2.6213,-2.6213,-2.6339,-2.6533,-2.6533,-2.6533,-2.6658,-2.7986,-2.8492,-2.8684,-3.0115,0.0,0.0,0.0,-3.1276,-3.2153,-3.2213,-3.2976,0.0,-3.4698,-3.5366,0.0,0.0,0.0,-3.5037,-3.4534,-3.4414,-3.4574,-3.5198,-3.5427,-3.5532,-3.6156,-3.6809,-3.7273,-3.7273,-3.7767,-3.8173,-3.8173,-3.8188,-3.842,-3.9073,-3.8788,-3.8996,-4.021,-4.041,-4.0667,0.0,-4.0336,-3.9788,-3.9899,-4.0062,-4.0133,-4.0133,-4.073,-4.1069,-4.1069,-4.1069,-4.1069,-4.1069,-4.1069,-4.0757,-4.016,-4.016,-3.9861,-3.9305,-3.9305,-3.9305,-3.9305,-3.9305,-3.9305,-3.9216,-3.8472,-3.7717,-3.6938,-3.6213,-3.5463,-3.4775,-3.4775,-3.4054,-3.3191,0.0,0.0,0.0,0.0,0.0,0.0,0.0,0.0,0.0,0.0,0.0,0.0,0.0,0.0,0.0,0.0,0.0,0.0,0.0,-2.2061,-2.1999,-2.1537,-2.2436,-2.2858,-2.2476,-2.3482,-2.413,-2.4354,-2.4644,-2.4963,-2.5312,-2.5312,-2.5382,-2.5618,-2.5758,-2.598,-2.6213,-2.6339,-2.6465,-2.6533,-2.6533,-2.6782,-2.7297,-2.8182,-2.8826,-2.9345,0.0,0.0,0.0,0.0,-3.1291,-3.2183,-3.2183,0.0,0.0,-3.5381,-3.573,-3.5785,0.0,0.0,-3.5156,-3.5059,-3.5038,-3.5212,-3.5836,-3.633,-3.6707,-3.6925,-3.7462,-3.7897,-3.7897,-3.8072,-3.8202,-3.8202,-3.8337,-3.8621,-3.9175,-3.9614,-4.0129,-4.079,-4.1583,0.0,0.0,0.0,0.0,-4.1117,-4.1513,-4.141,-4.0811,-4.1001,-4.1123,-4.1123,-4.1123,-4.1123,-4.1123,-4.1123,-4.1015,-4.0811,-4.0811,-4.0703,-4.0499,-4.0078,-3.9888,-3.9861,-3.9468,-3.9024,-3.8472,-3.773,-3.707,-3.6332,-3.5488,-3.5017,-3.4823,-3.4823,-3.4607,-3.4114,0.0,0.0,0.0,0.0,0.0,0.0,0.0,0.0,0.0,0.0,0.0,0.0,0.0,0.0,0.0,0.0,0.0,0.0,0.0,0.0,-2.2197,-2.2197,-2.2522,-2.2787,-2.2979,-2.3316,-2.3833,-2.4518,-2.4406,-2.4683,-2.5382,-2.5259,-2.5423,-2.5828,-2.598,-2.6131,-2.6339,-2.6465,-2.6533,-2.6521,-2.6782,-2.7095,-2.7604,-2.8505,-2.9156,0.0,0.0,0.0,0.0,0.0,0.0,-3.2308,-3.2308,-3.3428,-3.4812,-3.523,-3.535,-3.5285,-3.4986,-3.5082,-3.5295,-3.5394,-3.5532,-3.5865,-3.6519,-3.6997,-3.736,-3.7593,-3.7941,-3.8202,-3.8202,-3.8202,-3.8275,-3.8522,-3.8683,-3.9038,-3.9813,-4.0343,-4.0867,-4.1424,-4.2368,-4.2992,0.0,0.0,0.0,-4.2318,-4.2603,-4.2593,-4.1966,-4.1986,-4.2016,-4.2016,-4.1841,-4.1747,-4.1747,-4.1747,-4.1639,-4.1435,-4.1218,-4.1123,-4.111,-4.0703,-4.0526,-4.0499,-4.0119,-3.9671,-3.9096,-3.7935,-3.7095,-3.6621,-3.5284,-3.4823,-3.4823,-3.4823,-3.4823,-3.4628,0.0,0.0,0.0,0.0,0.0,0.0,0.0,0.0,0.0,0.0,0.0,0.0,0.0,0.0,0.0,0.0,0.0,0.0,0.0,0.0,0.0,-2.2197,-2.2197,-2.2426,-2.2995,-2.2943,-2.3436,-2.4446,-2.4074,-2.4511,-2.5521,-2.5227,-2.5413,-2.6126,-2.6126,-2.6252,-2.6445,-2.6433,-2.6526,-2.6607,-2.7245,-2.7511,-2.767,-2.9107,0.0,0.0,0.0,0.0,0.0,0.0,0.0,0.0,0.0,-3.3412,-3.4414,-3.4414,-3.4414,-3.4428,-3.4443,-3.4907,-3.5441,-3.5444,-3.5909,-3.6533,-3.7201,-3.736,-3.752,-3.8086,-3.8202,-3.8202,0.0,0.0,-3.842,-3.9088,-3.9233,-3.9683,-4.0916,-4.1134,-4.1395,0.0,0.0,0.0,0.0,0.0,0.0,-4.3498,0.0,-4.3589,-4.3497,-4.3579,-4.36,-4.36,-4.3149,-4.2887,-4.2887,-4.2887,-4.2602,-4.2046,-4.1489,-4.1205,-4.1205,-4.1177,-4.1164,-4.1164,-4.1123,-4.1123,-4.0976,-3.8877,-3.8075,-3.7833,-3.5648,-3.4871,-3.4871,-3.4835,-3.4823,-3.4823,0.0,0.0,0.0,0.0,0.0,0.0,0.0,0.0,0.0,0.0,0.0,0.0,0.0,0.0,0.0,0.0,0.0,0.0,0.0,0.0,0.0,0.0,0.0,0.0,0.0,0.0,0.0,0.0,0.0,-2.377,-2.4414,-2.4401,-2.4546,0.0,-2.4892,-2.5209,-2.5691,-2.5833,-2.6465,-2.7309,0.0,-2.787,-2.8363,0.0,0.0,0.0,0.0,0.0,0.0,0.0,0.0,0.0,0.0,-3.3775,-3.4414,-3.4414,-3.4414,-3.4516,-3.4994,-3.5241,-3.5604,-3.6577,-3.6939,-3.7215,-3.7839,-3.797,-3.8014,-3.8173,-3.8202,-3.8202,0.0,0.0,0.0,-3.9088,-3.9581,0.0,-4.0974,-4.1526,0.0,-4.2687,0.0,-4.3906,-4.4356,-4.5155,0.0,0.0,-4.4886,-4.4422,-4.3648,-4.3612,-4.3423,-4.3067,-4.2984,-4.2887,-4.2887,-4.2887,-4.2806,-4.2656,-4.2507,-4.2439,-4.2426,-4.1978,-4.1774,-4.1761,-4.1313,-4.1123,-4.1003,-3.9307,-3.8569,-3.8408,-3.6198,-3.5425,-3.5364,-3.4968,-3.4823,-3.4823,0.0,0.0,0.0,0.0,0.0,0.0,0.0,0.0,0.0,0.0,0.0,0.0,0.0,0.0,0.0,0.0,0.0,0.0,0.0,0.0,0.0,0.0,0.0,0.0,0.0,0.0,0.0,0.0,0.0,0.0,0.0,-2.4275,-2.4236,-2.4471,-2.4847,-2.5103,-2.5154,0.0,0.0,0.0,0.0,0.0,0.0,0.0,0.0,0.0,0.0,0.0,0.0,0.0,0.0,-3.2629,-3.3267,-3.3891,-3.4414,-3.4414,0.0,-3.4559,-3.5183,-3.5561,-3.6025,-3.7056,-3.7506,-3.7781,-3.813,-3.8202,-3.8202,-3.8202,-3.8202,0.0,0.0,0.0,0.0,0.0,0.0,0.0,-4.1004,-4.1671,-4.2324,0.0,-4.3587,0.0,-4.4821,-4.5503,-4.588,0.0,-4.5595,-4.5216,-4.4648,-4.4181,-4.3818,-4.356,-4.3177,-4.2887,-4.2887,-4.2887,-4.2887,-4.2887,-4.2887,-4.2887,-4.2873,-4.2548,-4.2385,-4.2371,0.0,-4.1896,-4.1775,-3.9933,-3.9146,-3.8996,-3.6761,-3.5966,-3.5905,-3.5376,-3.5172,-3.5148,0.0,0.0,0.0,0.0,0.0,0.0,0.0,0.0,0.0,0.0,0.0,0.0,0.0,0.0,0.0,0.0,0.0,0.0,0.0,0.0,0.0,0.0,0.0,0.0,0.0,0.0,0.0,0.0,0.0,0.0,0.0,0.0,0.0,0.0,0.0,0.0,0.0,0.0,0.0,0.0,0.0,0.0,0.0,0.0,0.0,0.0,0.0,0.0,0.0,0.0,-3.138,-3.2498,-3.3137,-3.3775,-3.4312,-3.4385,-3.4414,-3.4559,-3.5183,-3.5822,-3.646,-3.7143,-3.7752,-3.8202,-3.8202,-3.8202,-3.8202,-3.8202,0.0,-3.8202,-3.8202,-3.8202,-3.842,-3.9088,0.0,-4.0321,-4.1004,-4.1671,-4.2353,-4.305,-4.3645,-4.4255,-4.4951,-4.5547,-4.588,-4.588,-4.588,-4.588,-4.579,-4.4876,-4.4317,-4.4223,-4.3369,-4.2887,-4.2887,-4.2887,-4.2887,-4.2887,-4.2887,-4.2887,-4.2887,-4.2887,-4.2887,-4.2887,-4.2887,0.0,-4.2749,-4.0736,-3.9921,-3.9559,-3.7513,-3.6609,-3.6447,-3.5918,-3.5725,-3.5653,0.0,0.0,0.0,0.0,0.0,0.0,0.0,0.0,0.0,0.0,0.0,0.0,0.0,0.0,0.0,0.0,0.0,0.0,0.0,0.0,0.0,0.0,0.0,0.0,0.0,0.0,0.0,0.0,0.0,0.0,0.0,0.0,0.0,0.0,0.0,0.0,0.0,0.0,0.0,0.0,0.0,0.0,0.0,0.0,0.0,0.0,0.0,0.0,0.0,0.0,-3.1076,-3.1801,-3.2469,-3.3122,-3.3732,-3.4254,-3.4414,-3.4559,-3.5183,-3.5822,-3.646,-3.7143,-3.7752,-3.8202,-3.8202,-3.8202,0.0,0.0,0.0,-3.8202,-3.8202,-3.8202,-3.842,-3.9088,0.0,0.0,0.0,0.0,-4.2528,0.0,0.0,0.0,0.0,0.0,0.0,0.0,0.0,-4.57,-4.5216,-4.4676,-4.4035,-4.3177,-4.2984,-4.2887,-4.2887,-4.2887,-4.2887,-4.2887,-4.2887,-4.2887,-4.2887,-4.2887,-4.2887,-4.2887,-4.2887,0.0,-4.2776,-4.1775,-4.0915,-4.0121,-3.8678,-3.7665,-3.7,-3.6459,-3.6266,-3.6194,0.0,0.0,0.0,0.0,0.0,0.0,0.0,0.0,0.0,0.0,-2.3662,-2.359,0.0,0.0,0.0,0.0,0.0,0.0,0.0,0.0,0.0,0.0,0.0,0.0,0.0,0.0,0.0,0.0,0.0,0.0,0.0,0.0,0.0,0.0,0.0,0.0,0.0,0.0,0.0,0.0,0.0,0.0,0.0,0.0,0.0,0.0,0.0,0.0,0.0,0.0,-3.0771,-3.1192,-3.2208,-3.2962,-3.3601,-3.4225,-3.4414,-3.4559,-3.5183,-3.5822,-3.646,-3.7143,-3.7752,-3.8202,-3.8202,0.0,0.0,0.0,-3.8202,-3.8202,-3.8202,0.0,0.0,0.0,0.0,0.0,0.0,0.0,0.0,0.0,0.0,0.0,0.0,0.0,0.0,0.0,0.0,-4.579,-4.5504,-4.4783,-4.4021,-4.3245,-4.3067,-4.2887,-4.2887,-4.2887,-4.2887,-4.2887,-4.2887,-4.2887,-4.2887,-4.2887,-4.2887,-4.2887,-4.2887,0.0,-4.279,-4.1993,-4.1484,-4.0932,-3.9435,-3.863,-3.8154,-3.7218,-3.6819,-3.6735,0.0,0.0,0.0,0.0,0.0,0.0,0.0,-2.3989,-2.3872,-2.4234,-2.4292,-2.4234,-2.406,-2.3872,0.0,0.0,0.0,0.0,0.0,0.0,0.0,0.0,0.0,0.0,0.0,0.0,0.0,0.0,0.0,0.0,0.0,0.0,0.0,0.0,0.0,0.0,0.0,0.0,0.0,0.0,0.0,0.0,0.0,0.0,0.0,0.0,0.0,0.0,0.0,0.0,-3.0507,-3.0589,-3.1869,-3.2745,-3.3412,-3.4182,-3.4414,-3.4516,-3.5024,-3.5619,-3.6228,-3.6765,-3.7462,-3.8014,-3.8014,-3.8115,0.0,0.0,-3.8202,-3.8202,-3.8202,0.0,-3.8202,0.0,0.0,0.0,0.0,0.0,0.0,0.0,0.0,0.0,0.0,0.0,0.0,0.0,0.0,0.0,-4.57,-4.4954,-4.4303,-4.3804,-4.3341,-4.3067,-4.3067,-4.2984,-4.2887,-4.2887,-4.2887,-4.2887,-4.2887,-4.2887,-4.2887,-4.2887,-4.2887,0.0,0.0,-4.219,-4.1895,-4.1584,-4.0045,-3.9324,-3.9067,-3.7818,-3.736,-3.7288,0.0,0.0,0.0,0.0,0.0,0.0,0.0,-2.4292,-2.4234,-2.4292,-2.4292,-2.4536,-2.5257,-2.465,0.0,0.0,0.0,0.0,0.0,0.0,0.0,0.0,0.0,0.0,0.0,0.0,0.0,0.0,0.0,0.0,0.0,0.0,0.0,0.0,0.0,0.0,0.0,0.0,0.0,0.0,0.0,0.0,0.0,0.0,0.0,0.0,0.0,0.0,0.0,0.0,0.0,-2.9922,-3.1195,-3.2063,-3.2846,-3.4051,0.0,0.0,-3.4486,-3.4965,-3.5473,-3.5532,-3.6475,-3.7389,-3.7389,0.0,0.0,-3.8202,-3.8202,-3.8202,-3.8202,-3.8202,-3.8202,0.0,0.0,0.0,0.0,0.0,0.0,0.0,0.0,0.0,0.0,0.0,0.0,0.0,0.0,0.0,-4.5216,-4.5124,-4.4862,-4.4317,-4.3804,-4.3505,-4.3505,-4.3067,-4.2887,-4.2887,-4.2887,-4.2887,-4.2887,-4.2887,-4.2887,-4.2887,-4.2887,0.0,0.0,-4.279,-4.2387,-4.1597,-4.063,-3.9815,-3.9117,-3.823,-3.7914,-3.7829,0.0,0.0,0.0,0.0,0.0,0.0,0.0,-2.4708,-2.4708,-2.4708,-2.4708,-2.4835,-2.5188,-2.5075,-2.4835,0.0,0.0,0.0,0.0,0.0,0.0,0.0,0.0,0.0,0.0,0.0,0.0,0.0,0.0,0.0,0.0,0.0,0.0,0.0,0.0,0.0,0.0,0.0,0.0,0.0,0.0,0.0,0.0,0.0,0.0,0.0,0.0,0.0,0.0,0.0,0.0,0.0,-3.0468,-3.139,0.0,0.0,-3.4124,-3.4414,-3.4414,-3.4878,-3.5427,-3.5427,-3.6344,-3.7302,-3.7302,0.0,0.0,-3.8202,-3.8202,-3.8202,-3.8202,-3.8202,-3.8202,0.0,0.0,0.0,0.0,0.0,0.0,0.0,0.0,0.0,0.0,0.0,0.0,0.0,0.0,0.0,-4.6751,-4.5677,-4.4847,-4.4411,-4.3899,-4.3423,-4.3149,-4.297,-4.2887,-4.2887,-4.2887,-4.2887,-4.2887,-4.2887,-4.2887,-4.2887,-4.2887,0.0,0.0,-4.2887,-4.2693,-4.2387,-4.1471,-4.0642,-3.9815,-3.9013,-3.8396,-3.795,0.0,0.0,0.0,0.0,0.0,0.0,-2.5005,-2.5005,-2.5005,-2.5005,-2.5005,-2.5061,-2.523,-2.53,-2.53,-2.5189,0.0,0.0,0.0,0.0,0.0,0.0,0.0,0.0,0.0,0.0,0.0,0.0,0.0,0.0,0.0,0.0,0.0,0.0,0.0,0.0,0.0,0.0,0.0,0.0,0.0,0.0,0.0,0.0,0.0,0.0,0.0,0.0,0.0,0.0,0.0,0.0,0.0,0.0,0.0,0.0,-3.392,-3.4414,-3.4414,-3.4733,-3.5082,-3.5082,-3.6054,-3.7012,0.0,0.0,-3.8202,-3.8202,-3.8202,-3.8202,-3.8202,-3.8202,-3.8202,0.0,0.0,-4.0104,0.0,0.0,0.0,0.0,0.0,0.0,0.0,0.0,0.0,0.0,0.0,0.0,-4.8476,-4.708,-4.5859,-4.4876,-4.4275,-4.3804,-4.3369,-4.3163,-4.3067,-4.2887,-4.2887,-4.2887,-4.2887,-4.2887,-4.2887,-4.2887,-4.2887,0.0,0.0,-4.2887,-4.2887,-4.279,-4.1993,-4.1159,-4.0313,-3.9519,-3.8699,-3.7986,0.0,0.0,0.0,0.0,0.0,0.0,0.0,-2.5005,-2.5005,-2.5005,-2.5005,-2.523,-2.5839,-2.5342,-2.5328,-2.6229,0.0,0.0,0.0,0.0,0.0,0.0,0.0,0.0,0.0,0.0,0.0,0.0,0.0,0.0,0.0,0.0,0.0,0.0,0.0,0.0,0.0,0.0,0.0,0.0,0.0,0.0,0.0,0.0,0.0,0.0,0.0,0.0,0.0,0.0,0.0,0.0,0.0,0.0,0.0,0.0,-3.392,-3.4414,-3.4414,-3.4414,-3.4428,-3.4428,-3.5386,-3.6315,0.0,0.0,-3.8202,-3.8202,-3.8202,-3.8202,-3.8202,-3.8202,-3.8202,-3.8202,-3.9276,0.0,0.0,0.0,0.0,0.0,0.0,0.0,0.0,0.0,0.0,0.0,0.0,0.0,-4.995,-4.9285,-4.8025,-4.5999,-4.5321,-4.4847,-4.4411,-4.3899,-4.3328,-4.2887,-4.2887,-4.2887,-4.2887,-4.2887,-4.2887,0.0,0.0,0.0,0.0,-4.2887,-4.2887,-4.279,-4.1993,-4.1159,-4.0313,-3.9519,-3.8699,-3.7986,0.0,0.0,0.0,0.0,0.0,0.0,0.0,-2.5005,-2.5005,-2.5005,-2.5005,-2.5061,-2.5286,-2.5508,-2.5674,-2.5743,0.0,0.0,0.0,0.0,0.0,0.0,0.0,0.0,0.0,0.0,0.0,-2.328,-2.3053,0.0,0.0,0.0,0.0,0.0,0.0,0.0,0.0,0.0,0.0,0.0,0.0,0.0,0.0,0.0,0.0,0.0,0.0,0.0,0.0,0.0,0.0,0.0,0.0,0.0,0.0,0.0,0.0,0.0,-3.4414,-3.4414,-3.4414,-3.4414,-3.5053,-3.5778,-3.6214,-3.6983,-3.7709,-3.8115,-3.8202,-3.8202,-3.8202,-3.8202,-3.8202,-3.8202,-3.9276,0.0,0.0,0.0,0.0,0.0,0.0,0.0,0.0,0.0,0.0,0.0,0.0,0.0,-5.1354,-5.0659,-4.9387,-4.754,-4.6816,-4.6062,-4.5067,-4.4577,-4.3937,-4.3328,-4.3067,-4.2887,-4.2887,-4.2887,0.0,0.0,0.0,0.0,0.0,-4.2887,-4.2887,-4.2887,-4.2595,-4.1657,-4.0414,-4.0109,-3.9196,-3.7986,0.0,0.0,0.0,0.0,0.0,0.0,0.0,-2.5005,-2.5005,-2.5005,-2.5005,-2.5061,-2.5188,-2.5522,-2.5688,-2.5647,0.0,0.0,0.0,0.0,0.0,0.0,0.0,0.0,0.0,0.0,-2.2604,-2.2604,-2.242,-2.2432,-2.2616,-2.2567,0.0,0.0,0.0,0.0,0.0,0.0,0.0,0.0,0.0,0.0,-2.3078,0.0,0.0,0.0,0.0,0.0,0.0,0.0,0.0,0.0,0.0,0.0,0.0,0.0,-3.2064,0.0,0.0,-3.4414,-3.4414,-3.4414,-3.4893,0.0,0.0,-3.6823,-3.7476,-3.8086,-3.8202,-3.8202,-3.8202,-3.8202,-3.8202,-3.8202,-3.9276,0.0,0.0,0.0,0.0,0.0,0.0,0.0,0.0,0.0,0.0,0.0,0.0,0.0,-5.2778,-5.2126,-5.1236,-5.0085,-4.8392,-4.6904,-4.5674,-4.4869,-4.4233,-4.36,-4.3149,-4.2887,-4.2887,-4.2887,0.0,0.0,0.0,0.0,0.0,-4.2887,-4.2887,-4.2887,-4.2887,-4.1855,-4.0414,-4.0414,-3.9403,-3.7986,0.0,0.0,0.0,0.0,0.0,0.0,0.0,0.0,0.0,0.0,-2.5005,-2.5131,-2.5439,-2.5494,-2.5647,0.0,0.0,0.0,0.0,0.0,0.0,0.0,0.0,0.0,0.0,-2.2432,-2.2432,-2.2848,-2.2432,-2.2247,-2.2359,-2.2247,-2.2383,0.0,0.0,0.0,0.0,-2.286,-2.2969,-2.3078,-2.3078,-2.3078,0.0,0.0,0.0,0.0,0.0,0.0,0.0,0.0,0.0,0.0,0.0,0.0,0.0,0.0,0.0,0.0,0.0,0.0,0.0,0.0,0.0,0.0,0.0,-3.6751,0.0,-3.8014,-3.8173,-3.8202,-3.8202,-3.8202,-3.8202,-3.8202,-3.9276,0.0,0.0,0.0,0.0,0.0,0.0,0.0,0.0,0.0,0.0,0.0,0.0,0.0,-5.4071,-5.3518,-5.3155,-5.3107,-4.9824,-4.7585,-4.6358,-4.5201,-4.4275,-4.3776,-4.3245,-4.2984,-4.2984,-4.2887,0.0,0.0,0.0,0.0,0.0,-4.2887,-4.2887,-4.2887,-4.2887,-4.1855,-4.0414,-4.0414,-3.9403,-3.7986,0.0,0.0,0.0,0.0,0.0,0.0,0.0,0.0,0.0,0.0,0.0,-2.5005,-2.5131,-2.5522,0.0,0.0,0.0,0.0,0.0,0.0,0.0,0.0,0.0,0.0,0.0,-2.2247,-2.2247,-2.2371,-2.2247,-2.2185,-2.2247,-2.2309,-2.2371,-2.2321,-2.2555,-2.2678,-2.269,-2.2739,-2.28,-2.2969,-2.2969,-2.2969,0.0,0.0,0.0,0.0,-2.4405,-2.4895,0.0,0.0,0.0,0.0,0.0,0.0,0.0,0.0,-2.9297,-3.0104,-3.1597,0.0,-3.2804,-3.3367,-3.3633,-3.4043,0.0,0.0,-3.6722,0.0,0.0,-3.8202,-3.8202,-3.8202,-3.8202,-3.8202,-3.9276,-4.0104,0.0,0.0,0.0,0.0,0.0,0.0,0.0,0.0,0.0,0.0,0.0,-5.3929,-5.4087,-5.3945,-5.3629,-5.3123,-5.1282,-4.988,-4.9105,-4.7357,-4.6226,-4.5479,-4.4139,-4.3423,-4.3423,-4.3067,0.0,0.0,0.0,0.0,-4.2887,-4.2887,-4.2887,-4.2887,-4.2887,-4.1855,-4.0414,-4.0414,-3.9403,-3.7986,0.0,0.0,0.0,0.0,0.0,0.0,0.0,0.0,0.0,0.0,0.0,0.0,0.0,0.0,0.0,0.0,0.0,0.0,0.0,0.0,0.0,0.0,0.0,0.0,0.0,-2.2197,-2.2197,-2.2197,-2.2197,-2.2197,-2.2197,-2.2247,-2.2247,-2.2197,-2.2383,-2.2494,-2.2555,-2.2678,-2.28,-2.2909,-2.2909,0.0,0.0,0.0,0.0,0.0,-2.4391,-2.4918,0.0,-2.6176,-2.6533,-2.6533,0.0,0.0,0.0,0.0,-2.8286,-2.8924,-2.9902,-3.1122,-3.229,-3.3003,-3.2932,-3.317,0.0,0.0,0.0,0.0,0.0,0.0,-3.8127,-3.8202,0.0,-3.8609,-3.9465,0.0,0.0,0.0,0.0,0.0,0.0,0.0,0.0,0.0,0.0,0.0,0.0,-5.3771,-5.4087,-5.4103,-5.3929,-5.3581,-5.2203,-5.0991,-4.9972,-4.8137,-4.6827,-4.6107,-4.4748,-4.3857,-4.36,-4.3067,-4.2887,0.0,0.0,0.0,-4.2887,-4.2887,-4.2887,-4.2887,-4.2887,-4.1855,-4.0414,-4.0414,-3.9403,-3.7986,0.0,0.0,0.0,0.0,0.0,0.0,0.0,0.0,0.0,0.0,0.0,0.0,0.0,0.0,0.0,0.0,0.0,0.0,0.0,0.0,0.0,0.0,0.0,0.0,-2.2197,-2.2197,-2.2197,-2.2197,-2.2197,-2.2197,-2.2197,-2.2197,-2.2197,-2.2197,-2.2197,-2.2247,-2.2359,-2.2555,-2.2739,-2.2848,-2.2848,0.0,0.0,0.0,0.0,0.0,0.0,0.0,0.0,-2.6195,-2.6533,-2.6533,-2.6533,0.0,0.0,0.0,0.0,0.0,-2.8674,-3.0203,-3.1942,-3.2635,-3.2362,-3.2427,0.0,0.0,0.0,0.0,0.0,0.0,0.0,0.0,0.0,0.0,0.0,0.0,0.0,0.0,0.0,0.0,0.0,0.0,0.0,0.0,0.0,0.0,0.0,-5.3392,-5.4055,-5.4103,-5.4103,-5.4103,-5.2728,-5.147,-5.0294,-4.8453,-4.7088,-4.6373,-4.5283,-4.4392,-4.3695,-4.3163,-4.2887,-4.2887,0.0,0.0,-4.2887,-4.2887,-4.2887,-4.2887,-4.2887,-4.1855,-4.0414,-4.0414,-3.9403,-3.7986,0.0,0.0,0.0,0.0,0.0,0.0,0.0,0.0,0.0,0.0,0.0,0.0,0.0,0.0,0.0,0.0,0.0,0.0,0.0,0.0,0.0,0.0,0.0,-2.2247,-2.2197,-2.2197,-2.2197,-2.2197,-2.2197,-2.2197,-2.2197,-2.2197,-2.2197,-2.2197,-2.2197,-2.2197,-2.2247,-2.2359,-2.2482,-2.2482,-2.2482,0.0,0.0,0.0,0.0,0.0,0.0,0.0,0.0,-2.6195,-2.6533,-2.6533,-2.6533,0.0,0.0,0.0,0.0,0.0,-2.821,-2.9201,-3.0368,-3.1044,-3.1193,-3.1355,-3.2341,0.0,0.0,0.0,0.0,0.0,0.0,0.0,0.0,0.0,0.0,0.0,0.0,0.0,0.0,0.0,0.0,0.0,0.0,0.0,0.0,0.0,0.0,-5.3392,-5.4055,-5.4103,-5.4103,-5.4103,-5.2728,-5.1871,-5.1694,-4.9703,-4.8293,-4.7634,-4.6018,-4.4975,-4.4223,-4.3355,-4.2887,-4.2887,0.0,-4.2887,-4.2887,-4.2887,-4.2887,-4.2887,-4.2887,-4.1855,-4.0414,-4.0414,-3.9403,-3.7986,0.0,0.0,0.0,0.0,0.0,0.0,0.0,0.0,0.0,0.0,0.0,0.0,0.0,0.0,0.0,0.0,0.0,0.0,0.0,0.0,0.0,0.0,-2.2197,-2.2197,-2.2197,-2.2197,-2.2197,-2.2197,-2.2197,-2.2197,-2.2197,-2.2197,-2.2197,-2.2197,-2.2197,-2.2197,-2.2197,-2.2359,-2.242,-2.242,0.0,0.0,0.0,0.0,0.0,0.0,0.0,0.0,0.0,0.0,-2.6533,-2.6533,-2.6533,0.0,0.0,0.0,0.0,0.0,-2.8021,-2.8699,-2.9466,-3.0126,-3.0279,-3.0633,-3.1796,0.0,0.0,0.0,0.0,0.0,0.0,0.0,0.0,0.0,0.0,0.0,0.0,0.0,0.0,0.0,0.0,0.0,0.0,0.0,0.0,0.0,0.0,0.0,-5.3502,-5.3566,-5.3566,-5.3566,-5.2554,-5.1828,-5.1448,-5.0084,-4.9066,-4.8392,-4.7417,-4.6182,-4.4897,-4.4139,-4.3505,-4.2887,0.0,-4.2887,-4.2887,-4.2887,-4.2887,-4.2887,-4.2887,-4.2177,-4.0958,-4.0134,-3.9,-3.7986,0.0,0.0,0.0,0.0,0.0,0.0,0.0,0.0,0.0,0.0,0.0,0.0,0.0,0.0,0.0,0.0,0.0,0.0,0.0,0.0,-2.2197,-2.2197,-2.2197,-2.2197,-2.2197,-2.2197,-2.2197,-2.2197,-2.2197,-2.2197,-2.2197,-2.2197,-2.2197,-2.2197,-2.2197,-2.2197,-2.2197,-2.2309,-2.2359,-2.2371,0.0,0.0,0.0,0.0,0.0,0.0,0.0,0.0,0.0,0.0,0.0,0.0,0.0,0.0,0.0,-2.6533,-2.6854,-2.7406,-2.7959,-2.8511,-2.9063,-2.9641,0.0,-3.0075,-3.1294,0.0,0.0,0.0,0.0,0.0,0.0,0.0,0.0,0.0,0.0,0.0,0.0,0.0,0.0,0.0,0.0,0.0,0.0,0.0,0.0,0.0,0.0,0.0,-5.2791,-5.2855,-5.2855,-5.2855,-5.2144,-5.1512,-5.0974,-5.0279,-4.9566,-4.8887,-4.8444,-4.7302,-4.5584,-4.4918,-4.4031,-4.3067,-4.2984,-4.2887,-4.2887,-4.2887,-4.2887,-4.2887,-4.2887,-4.2289,-4.1172,-3.9737,-3.8699,-3.7986,0.0,0.0,0.0,0.0,0.0,0.0,0.0,0.0,0.0,0.0,0.0,0.0,0.0,0.0,0.0,0.0,0.0,0.0,0.0,0.0,-2.2197,-2.2197,-2.2197,-2.2197,-2.2197,-2.2197,-2.2197,-2.2197,-2.2197,-2.2197,-2.2197,-2.2197,-2.2197,-2.2197,-2.2197,-2.2197,-2.2197,-2.2197,-2.2197,-2.2234,-2.279,0.0,0.0,0.0,0.0,0.0,0.0,0.0,0.0,0.0,0.0,0.0,0.0,0.0,-2.6533,-2.6533,-2.6854,-2.7406,-2.7959,-2.8511,-2.9063,-2.9641,-2.9792,0.0,-2.9934,0.0,0.0,0.0,0.0,0.0,0.0,0.0,0.0,0.0,0.0,0.0,0.0,0.0,0.0,0.0,0.0,0.0,0.0,0.0,0.0,0.0,0.0,0.0,-5.2049,-5.2096,-5.2096,-5.2096,-5.1417,-5.1022,-5.0974,-5.0279,-4.9566,-4.8887,-4.8444,-4.7402,-4.6018,-4.501,-4.4205,-4.3519,-4.3067,-4.2887,-4.2887,-4.2887,-4.2887,-4.2887,-4.2887,-4.1954,-4.0414,-3.9519,-3.8699,-3.7986,0.0,0.0,0.0,0.0,0.0,0.0,0.0,0.0,0.0,0.0,0.0,0.0,0.0,0.0,0.0,0.0,0.0,0.0,0.0,0.0,-2.2197,-2.2197,-2.2197,-2.2197,-2.2197,-2.2197,-2.2197,-2.2197,-2.2197,-2.2197,-2.2197,-2.2197,-2.2197,-2.2197,-2.2197,-2.2378,-2.2678,-2.2678,-2.2871,-2.3195,-2.3388,-2.3472,0.0,0.0,0.0,0.0,0.0,0.0,0.0,0.0,-2.6533,-2.6533,0.0,0.0,-2.6533,-2.6533,-2.6603,-2.6967,-2.7858,-2.826,-2.8637,-2.9566,0.0,0.0,0.0,0.0,0.0,0.0,0.0,0.0,0.0,0.0,0.0,0.0,0.0,0.0,0.0,0.0,0.0,0.0,0.0,0.0,0.0,0.0,0.0,0.0,0.0,0.0,-5.1338,-5.1369,-5.1369,-5.1369,-5.1116,-5.0769,-5.0326,-5.0058,-4.9757,-4.9501,-4.9309,-4.861,-4.7402,-4.6535,-4.566,-4.4684,-4.379,-4.3328,-4.3341,-4.297,-4.2887,-4.2887,-4.2387,-4.1458,-4.0313,-3.9519,-3.8699,-3.7986,0.0,0.0,0.0,0.0,0.0,0.0,0.0,0.0,0.0,0.0,0.0,0.0,0.0,0.0,0.0,0.0,0.0,0.0,0.0,0.0,-2.2197,-2.2197,-2.2197,-2.2197,-2.2197,-2.2197,-2.2197,-2.2197,-2.2197,-2.2197,-2.2197,-2.2197,0.0,0.0,-2.2438,-2.2739,-2.3232,-2.3232,-2.3436,-2.3785,-2.3941,-2.4013,0.0,0.0,0.0,0.0,0.0,0.0,0.0,0.0,-2.6533,0.0,0.0,0.0,0.0,0.0,-2.6647,-2.6917,-2.7846,-2.8235,-2.8599,0.0,0.0,0.0,0.0,0.0,0.0,0.0,0.0,0.0,0.0,0.0,0.0,0.0,0.0,0.0,0.0,0.0,0.0,0.0,0.0,0.0,0.0,0.0,0.0,0.0,0.0,0.0,0.0,-5.0642,-5.0642,-5.0642,-5.0642,-5.0405,-4.9916,-4.9916,-4.9916,-4.9916,-4.9916,-4.9244,-4.8111,-4.7448,-4.6491,-4.525,-4.4261,-4.3804,-4.3804,-4.3341,-4.3067,-4.279,-4.1993,-4.1159,-4.0313,-3.9519,-3.8699,-3.7986,0.0,0.0,0.0,0.0,0.0,0.0,0.0,0.0,0.0,0.0,0.0,0.0,0.0,0.0,0.0,0.0,0.0,0.0,0.0,-2.2185,-2.2185,-2.2197,-2.2197,-2.2197,-2.2197,-2.2197,-2.2197,-2.2197,-2.2197,-2.2197,-2.2197,-2.2197,0.0,0.0,0.0,0.0,0.0,-2.3773,-2.3773,-2.3833,-2.4326,-2.453,-2.459,0.0,0.0,0.0,0.0,0.0,0.0,0.0,-2.6533,0.0,0.0,0.0,0.0,0.0,-2.6854,-2.7406,-2.7959,-2.8511,0.0,0.0,0.0,0.0,0.0,0.0,0.0,0.0,0.0,0.0,0.0,0.0,0.0,0.0,0.0,0.0,0.0,0.0,0.0,0.0,0.0,0.0,0.0,0.0,0.0,0.0,0.0,0.0,0.0,-4.9916,-4.9916,-4.9916,-4.9916,-4.9916,-4.9916,-4.9916,-4.9916,-4.9916,-4.9916,-4.9163,-4.7904,-4.7463,-4.6418,-4.5124,-4.4583,-4.4411,-4.4411,-4.3804,-4.3328,-4.279,-4.1993,-4.1159,-4.0313,-3.9519,-3.8699,-3.7986,0.0,0.0,0.0,0.0,0.0,0.0,0.0,0.0,0.0,0.0,0.0,0.0,0.0,0.0,0.0,0.0,0.0,0.0,0.0,-2.1849,-2.1813,-2.2173,-2.2197,-2.2197,-2.2197,-2.2197,-2.2197,-2.2197,-2.2197,-2.2197,-2.2197,0.0,0.0,-2.3003,0.0,0.0,-2.429,-2.429,-2.4518,-2.4867,-2.5011,-2.5071,-2.5095,0.0,0.0,0.0,0.0,0.0,0.0,0.0,0.0,0.0,0.0,0.0,0.0,-2.6533,-2.6854,-2.7406,-2.7959,0.0,0.0,0.0,0.0,0.0,0.0,0.0,0.0,0.0,0.0,0.0,0.0,0.0,0.0,0.0,0.0,0.0,0.0,0.0,0.0,0.0,0.0,0.0,0.0,0.0,0.0,0.0,0.0,0.0,0.0,-4.9916,-4.9916,-4.9916,-4.9916,-4.9916,-4.9916,-4.9916,-4.9916,-4.9916,-4.9916,-4.9405,-4.8558,-4.7973,-4.7219,-4.6284,-4.5307,-4.4847,-4.4847,-4.4383,-4.4115,-4.3832,-4.2639,-4.173,-4.0818,-3.9622,-3.8699,-3.7986,0.0,0.0,0.0,0.0,0.0,0.0,0.0,0.0,0.0,0.0,0.0,0.0,0.0,0.0,0.0,0.0,0.0,0.0,0.0,0.0,-2.1861,-2.2173,-2.2197,-2.2197,-2.2197,-2.2197,-2.2197,-2.2197,-2.2197,-2.2306,0.0,0.0,-2.3195,-2.3604,0.0,-2.435,0.0,-2.4831,-2.5011,-2.5312,-2.5312,-2.5312,-2.5312,0.0,0.0,0.0,0.0,0.0,0.0,0.0,0.0,0.0,0.0,0.0,0.0,-2.6798,-2.718,-2.772,-2.8285,0.0,0.0,0.0,0.0,0.0,0.0,0.0,0.0,0.0,0.0,0.0,0.0,0.0,0.0,0.0,0.0,0.0,0.0,0.0,0.0,0.0,0.0,0.0,0.0,0.0,0.0,0.0,0.0,0.0,0.0,-4.9916,-4.9916,-4.9916,-4.9916,-4.9916,-4.9916,-4.9916,-4.9916,-4.9916,-4.9916,-4.9582,-4.8887,-4.824,-4.7493,-4.6829,-4.5851,-4.5307,-4.5032,-4.4769,-4.4597,-4.4317,-4.2916,-4.1914,-4.1019,-3.9725,-3.8699,-3.7986,0.0,0.0,0.0,0.0,0.0,0.0,0.0,0.0,0.0,0.0,0.0,0.0,0.0,0.0,0.0,0.0,0.0,0.0,0.0,0.0,-2.2149,-2.2197,-2.2197,-2.2197,-2.2197,-2.2197,-2.2209,-2.2258,-2.2258,0.0,0.0,0.0,-2.3616,-2.4518,0.0,-2.4855,-2.5312,-2.5312,-2.5312,-2.5312,-2.5312,-2.5312,-2.5312,-2.5312,0.0,0.0,0.0,0.0,0.0,0.0,0.0,0.0,0.0,0.0,-2.6697,-2.713,-2.7708,-2.8285,0.0,0.0,0.0,0.0,0.0,0.0,0.0,0.0,0.0,0.0,0.0,0.0,0.0,0.0,0.0,0.0,0.0,0.0,0.0,0.0,0.0,0.0,0.0,0.0,0.0,0.0,0.0,0.0,0.0,0.0,0.0,-4.9836,-4.9916,-4.9916,-4.9916,-4.9916,-4.9916,-4.9916,-4.9916,-4.9916,-4.9916,-4.9582,-4.8969,-4.8324,-4.7578,-4.6829,-4.6239,-4.5595,-4.5124,-4.5124,-4.494,-4.4397,-4.3108,-4.211,-4.1119,-3.9815,-3.8804,-3.7986,0.0,0.0,0.0,0.0,0.0,0.0,0.0,0.0,0.0,0.0,0.0,0.0,0.0,0.0,0.0,0.0,0.0,0.0,0.0,0.0,-2.1765,-2.2173,-2.2197,-2.2197,-2.2197,-2.2197,-2.2402,-2.2811,-2.2811,0.0,0.0,0.0,0.0,-2.4542,0.0,-2.5204,-2.5312,-2.5312,-2.5312,-2.5312,-2.5312,-2.5312,-2.5312,-2.5312,-2.5535,0.0,0.0,0.0,0.0,0.0,0.0,0.0,-2.6533,-2.6753,-2.713,-2.7256,-2.7984,-2.8775,0.0,0.0,0.0,0.0,0.0,0.0,0.0,0.0,0.0,0.0,0.0,0.0,0.0,0.0,0.0,0.0,0.0,0.0,0.0,0.0,0.0,0.0,0.0,0.0,0.0,0.0,0.0,0.0,0.0,0.0,-4.9147,-4.9582,-4.9916,-4.9916,-4.9916,-4.9916,-4.9916,-4.9916,-4.9916,0.0,-4.9916,-4.9836,-4.9661,-4.8984,-4.8072,-4.6829,-4.6239,-4.579,-4.57,-4.57,-4.57,-4.5518,-4.4833,-4.3341,-4.1663,-4.1006,-3.9609,-3.7986,0.0,0.0,0.0,0.0,0.0,0.0,0.0,0.0,0.0,0.0,0.0,0.0,0.0,0.0,0.0,0.0,0.0,0.0,0.0,0.0,0.0,0.0,-2.2197,-2.2306,-2.257,-2.257,-2.2835,0.0,0.0,0.0,0.0,0.0,0.0,-2.4915,0.0,-2.5312,-2.5312,-2.5312,-2.5312,-2.5312,-2.5312,-2.5312,-2.5312,-2.5312,-2.561,-2.5995,-2.6208,0.0,0.0,0.0,0.0,0.0,0.0,0.0,-2.772,-2.7996,-2.8473,-2.8988,0.0,0.0,0.0,0.0,0.0,0.0,0.0,0.0,0.0,0.0,0.0,0.0,0.0,0.0,0.0,0.0,0.0,0.0,0.0,0.0,0.0,0.0,0.0,0.0,0.0,0.0,0.0,0.0,0.0,-4.8225,-4.8887,-4.9228,-4.9582,-4.9916,-4.9916,-4.9916,-4.9916,-4.9916,-4.9916,-4.9916,-4.9916,-4.9916,-4.9836,-4.9228,-4.8157,-4.6916,-4.6491,-4.6239,-4.588,-4.588,-4.588,-4.588,-4.5307,-4.3923,-4.2057,-4.1591,-4.0007,-3.8198,0.0,0.0,0.0,0.0,0.0,0.0,0.0,0.0,0.0,0.0,0.0,0.0,0.0,0.0,0.0,0.0,0.0,0.0,0.0,0.0,0.0,0.0,-2.2282,-2.2534,-2.2967,-2.3063,-2.3376,0.0,0.0,0.0,0.0,0.0,0.0,-2.5312,0.0,-2.5312,-2.5312,-2.5408,-2.5444,-2.5456,-2.554,-2.566,-2.566,-2.5648,-2.5997,-2.6457,-2.6772,-2.7212,-2.7668,-2.7963,0.0,0.0,0.0,0.0,-2.8335,-2.88,-2.9001,-2.9176,0.0,0.0,0.0,0.0,0.0,0.0,0.0,0.0,0.0,0.0,0.0,0.0,0.0,0.0,0.0,0.0,0.0,0.0,0.0,0.0,0.0,0.0,0.0,0.0,0.0,0.0,0.0,0.0,0.0,-4.7407,-4.849,-4.8805,-4.9147,-4.9741,-4.9836,-4.9916,-4.9916,-4.9916,-4.9916,-4.9916,-4.9916,-4.9916,-4.9916,-4.9325,-4.8324,-4.7091,-4.6916,-4.6491,-4.588,-4.588,-4.588,-4.588,-4.5413,-4.4219,-4.2544,-4.1985,-4.0401,-3.8607,0.0,0.0,0.0,0.0,0.0,0.0,0.0,0.0,0.0,0.0,0.0,0.0,0.0,0.0,0.0,0.0,0.0,0.0,-2.2065,0.0,0.0,-2.2197,-2.263,-2.2907,-2.2979,-2.3436,-2.3917,0.0,0.0,0.0,0.0,0.0,0.0,-2.5312,0.0,0.0,-2.5336,-2.5793,-2.5997,-2.6033,-2.6724,-2.6918,-2.6992,-2.7115,-2.7385,-2.7606,-2.7606,-2.7815,-2.8036,-2.8109,-2.8109,0.0,0.0,0.0,-2.8837,-2.89,-2.9289,-2.9691,0.0,0.0,0.0,0.0,0.0,0.0,0.0,0.0,0.0,0.0,0.0,0.0,0.0,0.0,0.0,0.0,0.0,0.0,0.0,0.0,0.0,0.0,0.0,0.0,0.0,0.0,0.0,0.0,-4.6241,-4.7004,-4.7178,-4.824,-4.8969,-4.905,-4.9582,-4.9916,-4.9916,-4.9916,-4.9916,-4.9916,-4.9916,-4.9916,-4.9916,-4.9836,-4.9,-4.7734,-4.7163,-4.6491,-4.588,-4.588,-4.588,-4.588,-4.579,-4.4989,-4.3598,-4.2641,-4.128,-3.9687,0.0,0.0,0.0,0.0,0.0,0.0,0.0,0.0,0.0,0.0,0.0,0.0,0.0,0.0,0.0,-2.1838,-2.1861,-2.1945,-2.2173,-2.2474,-2.263,-2.263,-2.3135,-2.3556,-2.3833,-2.4073,0.0,0.0,0.0,0.0,0.0,-2.5312,-2.5312,0.0,0.0,0.0,0.0,0.0,-2.6562,-2.6586,-2.7039,-2.7198,-2.7198,-2.7409,-2.7742,-2.8113,-2.8263,-2.8537,-2.8862,-2.8963,-2.9051,-2.9051,-2.9051,0.0,0.0,0.0,-2.9591,0.0,0.0,0.0,0.0,0.0,0.0,0.0,0.0,0.0,0.0,0.0,0.0,0.0,0.0,0.0,0.0,0.0,0.0,0.0,0.0,0.0,0.0,0.0,0.0,0.0,0.0,0.0,0.0,0.0,-4.523,-4.5917,-4.6352,-4.7282,-4.8157,-4.8887,-4.9147,-4.9501,-4.9916,-4.9916,-4.9916,-4.9916,-4.9916,-4.9916,-4.9916,-4.9916,-4.9405,-4.8392,-4.7734,-4.7076,-4.6403,-4.606,-4.588,-4.588,-4.588,-4.5187,-4.4003,-4.2958,-4.1677,-4.0287,0.0,0.0,0.0,0.0,0.0,0.0,0.0,0.0,0.0,0.0,0.0,0.0,0.0,0.0,0.0,0.0,-2.2139,-2.245,-2.2582,-2.2967,-2.3183,-2.3183,-2.3688,-2.4133,-2.4506,-2.465,0.0,0.0,0.0,0.0,-2.5312,-2.5444,-2.5504,0.0,-2.5925,0.0,0.0,0.0,0.0,0.0,0.0,-2.7612,-2.7688,-2.7889,-2.8235,-2.8694,-2.8936,-2.9172,-2.9509,-2.9702,-2.9792,-2.9792,-2.9792,-2.9792,0.0,0.0,0.0,0.0,0.0,0.0,0.0,0.0,0.0,0.0,0.0,0.0,0.0,0.0,0.0,0.0,0.0,0.0,0.0,0.0,0.0,0.0,0.0,0.0,0.0,0.0,0.0,0.0,0.0,0.0,0.0,0.0,-4.4313,-4.4982,-4.5634,-4.6295,-4.7156,-4.8392,-4.8723,-4.9147,-4.9661,-4.9836,-4.9916,-4.9916,-4.9916,-4.9916,-4.9916,-4.9916,-4.9661,-4.9147,-4.824,-4.7493,-4.6829,-4.615,-4.588,-4.588,-4.588,-4.5398,-4.4606,-4.3559,-4.2474,-4.1366,0.0,0.0,0.0,0.0,0.0,0.0,0.0,0.0,0.0,0.0,0.0,0.0,-2.1404,-2.1958,-2.2322,-2.2149,-2.263,-2.3147,-2.3652,-2.3713,-2.3725,-2.3725,-2.4206,0.0,-2.4518,-2.5011,0.0,0.0,0.0,0.0,-2.5312,-2.5817,-2.6057,-2.6057,-2.6081,-2.6394,-2.6923,0.0,0.0,0.0,0.0,0.0,0.0,0.0,0.0,0.0,0.0,-2.9767,-2.9792,-2.9792,-2.9792,-2.9792,-2.9792,-2.9792,-2.9792,0.0,0.0,0.0,0.0,0.0,0.0,0.0,0.0,0.0,0.0,0.0,0.0,0.0,0.0,0.0,0.0,0.0,0.0,0.0,0.0,0.0,0.0,0.0,0.0,0.0,0.0,0.0,0.0,0.0,0.0,0.0,-4.3745,-4.4284,-4.4938,-4.5592,-4.6248,-4.6974,-4.824,-4.8887,-4.8969,-4.9582,-4.9916,-4.9916,-4.9916,-4.9916,-4.9916,-4.9916,-4.9916,-4.9757,-4.849,-4.7493,-4.6829,-4.615,-4.588,-4.588,-4.588,-4.588,-4.5685,-4.4606,-4.4003,-4.349,0.0,0.0,0.0,0.0,0.0,0.0,0.0,0.0,0.0,0.0,0.0,0.0,0.0,-2.2959,-2.314,-2.3353,-2.3559,-2.3753,-2.3947,-2.4274,-2.4389,-2.4254,-2.4747,-2.5023,-2.5023,-2.5216,0.0,0.0,0.0,-2.548,-2.5817,-2.6009,-2.6466,-2.714,-2.714,-2.7248,-2.7476,-2.8005,0.0,0.0,0.0,0.0,0.0,0.0,0.0,0.0,0.0,0.0,0.0,-2.9792,-2.9792,-2.9792,-2.9792,-2.9792,-2.9792,-2.9792,-2.9792,0.0,0.0,0.0,0.0,0.0,0.0,0.0,0.0,0.0,0.0,0.0,0.0,0.0,0.0,0.0,0.0,0.0,0.0,0.0,0.0,0.0,0.0,0.0,0.0,0.0,0.0,0.0,0.0,0.0,0.0,-4.3442,-4.366,-4.469,-4.5594,-4.6263,-4.7182,-4.8072,-4.8887,-4.9147,-4.9486,-4.9916,-4.9916,-4.9916,-4.9916,-4.9916,-4.9916,-4.9836,-4.849,-4.7734,-4.7493,-4.6314,-4.588,-4.588,-4.588,-4.588,-4.579,-4.4712,-4.4205,-4.3909,0.0,0.0,0.0,0.0,0.0,0.0,0.0,0.0,0.0,0.0,0.0,0.0,0.0,0.0,-2.398,-2.431,-2.428,-2.4353,-2.4536,-2.4876,-2.5014,-2.4864,-2.5272,-2.5465,-2.5382,-2.5214,0.0,0.0,0.0,0.0,0.0,-2.6466,-2.7031,-2.7729,-2.7909,-2.7993,0.0,0.0,0.0,-2.8657,0.0,0.0,-2.9197,0.0,0.0,0.0,0.0,0.0,0.0,0.0,-2.9792,-2.9792,-2.9792,-2.9792,-2.9792,-2.9792,-2.9792,0.0,0.0,0.0,0.0,0.0,0.0,0.0,0.0,0.0,0.0,0.0,0.0,0.0,0.0,0.0,0.0,0.0,0.0,0.0,0.0,0.0,0.0,0.0,0.0,0.0,0.0,0.0,0.0,0.0,0.0,0.0,-4.2977,-4.379,-4.4791,-4.5892,-4.656,-4.7407,-4.8558,-4.8558,-4.8903,-4.9566,-4.9566,-4.9661,-4.9916,-4.9916,-4.9916,-4.9836,-4.8738,-4.8072,-4.7819,-4.6476,-4.588,-4.588,-4.588,-4.588,-4.579,-4.5095,-4.4805,-4.4698,0.0,0.0,0.0,0.0,0.0,0.0,0.0,0.0,0.0,0.0,0.0,0.0,0.0,0.0,0.0,-2.5087,-2.4976,-2.5059,-2.5581,-2.5606,-2.5606,-2.5606,-2.5828,-2.5828,-2.5606,-2.5119,-2.5038,0.0,0.0,0.0,0.0,0.0,-2.7729,-2.7765,-2.8282,-2.851,-2.851,0.0,-2.8657,-2.8791,0.0,-2.9028,-2.9419,0.0,0.0,0.0,-2.9792,-2.9792,0.0,-2.9792,0.0,0.0,0.0,0.0,-2.9792,-2.9792,0.0,0.0,0.0,0.0,0.0,0.0,0.0,0.0,0.0,0.0,0.0,0.0,0.0,0.0,0.0,0.0,0.0,0.0,0.0,0.0,0.0,0.0,0.0,0.0,0.0,0.0,0.0,0.0,0.0,0.0,-4.0859,-4.1312,-4.2835,-4.2977,-4.3899,-4.5776,-4.6545,-4.7148,-4.7819,-4.7904,-4.824,-4.8887,-4.8887,-4.9228,-4.9836,-4.9916,-4.9916,-4.9836,-4.9228,-4.8558,-4.7819,-4.6476,-4.588,-4.588,-4.588,-4.588,-4.588,-4.588,-4.588,-4.5776,0.0,0.0,0.0,0.0,0.0,0.0,0.0,0.0,0.0,0.0,0.0,0.0,-2.578,-2.5682,-2.5667,-2.5896,-2.5827,-2.5901,-2.605,-2.605,-2.598,-2.5828,-2.584,-2.5828,-2.5606,-2.5837,-2.596,0.0,0.0,0.0,0.0,0.0,0.0,0.0,-2.8518,-2.8669,-2.8895,-2.8803,0.0,0.0,-2.9106,-2.9341,0.0,0.0,0.0,0.0,0.0,-2.9792,-2.9792,0.0,-2.9792,-2.9792,0.0,0.0,0.0,0.0,0.0,0.0,-3.0075,0.0,0.0,0.0,0.0,0.0,0.0,0.0,0.0,0.0,0.0,0.0,0.0,0.0,0.0,0.0,0.0,0.0,0.0,0.0,0.0,0.0,0.0,0.0,0.0,0.0,0.0,0.0,-4.0073,-4.0759,-4.1213,-4.2379,-4.3658,-4.5099,-4.5318,-4.5991,-4.7163,-4.7163,-4.7493,-4.8141,-4.8641,-4.8969,-4.9228,-4.9661,-4.9916,-4.9836,-4.9228,-4.8558,-4.7819,-4.6989,-4.6314,-4.588,-4.588,-4.588,-4.588,-4.588,-4.588,-4.588,0.0,0.0,0.0,0.0,0.0,0.0,0.0,0.0,0.0,0.0,0.0,0.0,-2.6883,-2.67,-2.6508,-2.6339,-2.6533,-2.6533,-2.6201,-2.6412,-2.6454,-2.6371,-2.6664,-2.6717,-2.6549,-2.6564,-2.6651,-2.6712,0.0,0.0,0.0,0.0,0.0,0.0,0.0,0.0,0.0,0.0,0.0,0.0,-2.9341,0.0,0.0,-2.9702,-2.9792,0.0,0.0,0.0,-2.9792,-2.9792,-2.9792,0.0,0.0,0.0,0.0,0.0,0.0,0.0,0.0,0.0,0.0,0.0,0.0,0.0,-3.0766,-3.1087,-3.1511,0.0,0.0,0.0,0.0,0.0,0.0,0.0,0.0,0.0,0.0,0.0,0.0,0.0,0.0,0.0,0.0,-3.693,-3.7372,-3.8136,-3.9338,-4.0346,-4.1156,-4.2377,-4.3326,-4.4066,-4.4371,-4.4982,-4.6065,-4.6079,-4.6547,-4.7493,-4.7904,-4.8225,-4.849,-4.8918,-4.9081,-4.9081,-4.8656,-4.8072,-4.7407,-4.7091,-4.6491,-4.588,-4.588,-4.588,-4.588,-4.588,-4.588,-4.588,0.0,0.0,0.0,0.0,0.0,0.0,0.0,0.0,0.0,0.0,0.0,0.0,-2.767,-2.7603,-2.7387,-2.6883,-2.7194,-2.7165,-2.6584,-2.7022,-2.7201,-2.7142,-2.7761,-2.8024,-2.7791,-2.7369,-2.7309,-2.757,0.0,0.0,0.0,0.0,0.0,0.0,0.0,0.0,0.0,0.0,0.0,-2.9716,-2.9639,-2.9677,0.0,0.0,-2.9934,0.0,-2.9869,-2.9856,-2.9934,-2.9869,-2.9792,0.0,0.0,0.0,0.0,0.0,-3.1489,0.0,0.0,0.0,0.0,0.0,0.0,0.0,-3.1193,-3.1438,-3.1746,-3.1563,0.0,0.0,0.0,0.0,0.0,0.0,0.0,0.0,0.0,0.0,0.0,0.0,0.0,0.0,-3.5865,-3.6044,-3.6483,-3.7493,-3.8532,-4.0014,-4.1829,-4.2516,-4.2919,-4.2992,-4.3573,-4.4168,-4.4777,-4.485,-4.5522,-4.6725,-4.6799,-4.7249,-4.7819,-4.7904,-4.7904,-4.7904,-4.7904,-4.7493,-4.6916,-4.6916,-4.6491,-4.588,-4.588,-4.588,-4.588,-4.588,-4.588,-4.588,-3.0205,0.0,0.0,0.0,0.0,0.0,0.0,0.0,0.0,0.0,0.0,0.0,0.0,-2.8212,-2.8368,-2.8853,-2.8884,-2.8825,-2.8685,-2.8789,-2.8569,-2.7934,-2.8047,-2.8024,-2.7791,-2.8114,-2.8275,-2.816,0.0,0.0,0.0,0.0,0.0,0.0,0.0,0.0,0.0,0.0,0.0,-3.1489,-3.0895,0.0,-2.9856,-3.0482,-3.0683,-3.062,-2.9998,-3.0203,-3.062,0.0,-2.9792,-2.9869,0.0,0.0,0.0,0.0,0.0,0.0,0.0,0.0,0.0,0.0,0.0,0.0,-3.1928,-3.2036,-3.2293,0.0,0.0,0.0,0.0,0.0,0.0,0.0,0.0,0.0,0.0,0.0,0.0,0.0,0.0,0.0,-3.512,-3.484,-3.52,-3.6457,-3.8176,-3.9738,-4.0788,-4.1734,-4.2498,-4.2977,-4.3123,-4.35,-4.4153,-4.4647,-4.504,-4.5347,-4.6402,-4.7004,-4.7076,-4.7664,-4.7904,-4.7904,-4.7904,-4.7493,-4.6916,-4.6916,-4.6491,-4.588,-4.588,-4.588,-4.588,-4.588,-4.588,-4.588,-3.0568,0.0,0.0,0.0,0.0,0.0,0.0,0.0,0.0,0.0,0.0,0.0,0.0,0.0,-2.9929,-2.9929,-3.0215,-3.0062,-2.9363,-2.991,-2.9926,-2.916,-2.977,-2.9839,-2.9397,-2.9591,-2.9543,-2.9058,0.0,0.0,0.0,0.0,0.0,0.0,0.0,0.0,0.0,0.0,-3.2015,-3.2074,-3.1636,0.0,-3.0934,-3.0895,-3.1365,-3.1854,-3.1137,-3.1535,-3.2355,-3.2001,-3.1861,0.0,0.0,-3.2243,-3.2024,0.0,-3.2887,-3.2686,0.0,0.0,0.0,-3.3241,0.0,0.0,0.0,-3.2733,-3.2842,-3.2921,0.0,0.0,0.0,0.0,0.0,0.0,0.0,0.0,0.0,0.0,0.0,0.0,0.0,0.0,-3.4477,-3.4417,-3.5045,-3.6535,-3.7566,-3.8634,-3.9798,-4.0802,-4.1481,-4.1781,-4.2262,-4.2847,-4.3485,-4.379,-4.4255,-4.4893,-4.5566,-4.6079,-4.6403,-4.6741,-4.6901,-4.6901,-4.6901,-4.6726,-4.6403,-4.6403,-4.6239,-4.588,-4.588,-4.588,-4.588,-4.588,-4.588,-4.588,-3.0568,0.0,0.0,0.0,0.0,0.0,0.0,0.0,0.0,0.0,0.0,0.0,0.0,0.0,0.0,0.0,-3.1495,-3.1294,0.0,0.0,-3.1297,-3.0533,-3.1541,-3.1783,-3.1119,-3.1119,-3.0846,-3.0228,0.0,0.0,0.0,0.0,0.0,0.0,0.0,0.0,0.0,0.0,0.0,-3.2519,0.0,-3.2444,-3.225,-3.1723,-3.232,-3.3369,-3.2782,-3.3154,-3.4004,-3.4004,0.0,-3.408,-3.4785,-3.4547,0.0,0.0,0.0,0.0,0.0,0.0,0.0,0.0,0.0,-3.4408,0.0,0.0,0.0,-3.3211,0.0,0.0,0.0,0.0,0.0,0.0,0.0,0.0,0.0,0.0,0.0,0.0,0.0,0.0,0.0,-3.435,-3.5043,-3.63,-3.6739,-3.759,-3.9007,-3.983,-4.0518,-4.0873,-4.1535,-4.2143,-4.2818,-4.2934,-4.35,-4.4516,-4.4647,-4.5053,-4.5692,-4.5692,-4.5764,-4.588,-4.588,-4.588,-4.588,-4.588,-4.588,-4.588,-4.588,-4.588,-4.588,-4.588,-4.588,-4.588,-3.0568,-3.0568,0.0,0.0,0.0,0.0,0.0,0.0,0.0,0.0,0.0,0.0,0.0,0.0,0.0,0.0,0.0,0.0,-3.2793,0.0,-3.2623,-3.1906,-3.2046,-3.2074,-3.2001,-3.1928,-3.1928,-3.1869,0.0,0.0,0.0,0.0,0.0,0.0,-3.2791,0.0,0.0,0.0,-3.4128,0.0,-3.4128,-3.3649,0.0,-3.3623,-3.4304,-3.4924,-3.485,-3.4491,-3.4004,0.0,-3.4004,-3.4004,0.0,-3.408,-3.4142,0.0,0.0,0.0,0.0,0.0,0.0,0.0,-3.5256,0.0,0.0,0.0,-3.4278,-3.4214,0.0,0.0,0.0,0.0,0.0,0.0,0.0,0.0,0.0,0.0,0.0,0.0,0.0,0.0,0.0,-3.4066,-3.4286,-3.425,-3.5954,-3.7404,-3.8423,-3.8999,-4.0187,-4.1912,-4.1156,-4.1198,-4.2194,-4.2716,-4.3065,-4.321,-4.3819,-4.4414,-4.4995,-4.4995,-4.5329,-4.588,-4.588,-4.588,-4.588,-4.588,-4.588,-4.588,-4.588,-4.588,-4.588,-4.588,-4.588,-4.588,-3.1192,-3.1119,0.0,0.0,0.0,0.0,0.0,0.0,0.0,0.0,0.0,0.0,0.0,0.0,0.0,0.0,0.0,-3.3673,0.0,0.0,0.0,-3.2791,-3.3171,-3.3241,-3.272,-3.272,-3.2506,-3.2074,-3.2434,0.0,0.0,0.0,0.0,0.0,-3.3756,0.0,-3.3894,0.0,0.0,0.0,0.0,0.0,0.0,-3.4536,-3.486,-3.5836,-3.6653,-3.6693,-3.6453,0.0,-3.6453,0.0,0.0,0.0,0.0,0.0,0.0,0.0,0.0,0.0,0.0,0.0,0.0,0.0,-3.5575,0.0,-3.5517,0.0,0.0,0.0,0.0,0.0,0.0,0.0,-3.6796,0.0,0.0,0.0,0.0,0.0,0.0,0.0,0.0,0.0,0.0,0.0,-3.4667,-3.5506,-3.6246,-3.7329,-3.8269,-3.907,-4.0078,-4.0788,-4.1254,-4.206,-4.2644,-4.2992,-4.3282,-4.3747,-4.4385,-4.4734,-4.5039,-4.5329,-4.5721,-4.588,-4.588,-4.588,-4.588,-4.588,-4.588,-4.588,-4.588,-4.588,-4.588,-4.588,-3.2121,0.0,0.0,0.0,0.0,0.0,0.0,0.0,0.0,0.0,0.0,0.0,-3.4356,-3.4414,0.0,0.0,-3.4414,-3.4113,0.0,0.0,-3.4113,0.0,0.0,0.0,0.0,-3.352,-3.3241,-3.2733,-3.3241,0.0,0.0,0.0,0.0,0.0,0.0,-3.4414,-3.4414,0.0,0.0,-3.5427,-3.5427,-3.6141,-3.7142,-3.5839,-3.5875,-3.6803,-3.7803,-3.8202,-3.8202,-3.8202,-3.8202,0.0,-3.8202,0.0,0.0,0.0,0.0,0.0,-3.6954,0.0,0.0,0.0,0.0,0.0,0.0,0.0,0.0,0.0,0.0,0.0,0.0,0.0,0.0,0.0,0.0,0.0,0.0,0.0,0.0,0.0,0.0,0.0,0.0,0.0,0.0,-3.3982,-3.4147,-3.44,-3.4806,-3.6056,-3.6954,-3.7378,-3.9343,-4.0435,-4.0603,-4.1633,-4.2324,-4.2745,-4.2745,-4.3079,-4.3732,-4.4168,-4.4458,-4.4676,-4.5329,-4.5619,-4.5634,-4.5808,-4.588,-4.588,-4.588,-4.588,-4.588,-4.588,-4.588,-4.588,-3.3282,-3.2904,0.0,0.0,0.0,0.0,0.0,0.0,0.0,0.0,0.0,0.0,0.0,0.0,0.0,0.0,0.0,-3.4414,-3.4332,0.0,-3.4414,0.0,0.0,-3.4414,0.0,0.0,-3.4346,-3.4346,-3.4346,-3.4346,0.0,0.0,0.0,0.0,0.0,-3.4414,-3.4414,-3.4414,-3.4777,-3.5427,-3.5427,-3.6141,-3.7375,0.0,-3.8144,-3.8173,-3.8188,0.0,0.0,-3.8202,-3.8202,0.0,0.0,0.0,0.0,0.0,0.0,0.0,0.0,0.0,0.0,-3.7418,0.0,0.0,0.0,0.0,-3.6301,0.0,0.0,0.0,0.0,0.0,0.0,0.0,0.0,0.0,0.0,0.0,0.0,0.0,0.0,0.0,0.0,0.0,-3.4397,-3.434,-3.4822,-3.5208,-3.5319,-3.5783,-3.677,-3.8301,-3.9227,-4.0027,-4.0589,-4.1633,-4.2107,-4.2121,-4.2121,-4.244,-4.3021,-4.305,-4.3413,-4.4052,-4.4661,-4.4922,-4.4966,-4.5619,-4.588,-4.588,-4.588,-4.588,-4.588,-4.588,-4.588,-4.588,0.0,0.0,0.0,0.0,0.0,0.0,0.0,-3.4283,0.0,0.0,0.0,0.0,0.0,-3.4414,-3.4414,0.0,0.0,-3.4414,-3.4414,-3.4806,0.0,0.0,0.0,-3.4835,0.0,0.0,-3.4414,-3.4414,-3.4414,-3.4414,0.0,0.0,0.0,0.0,0.0,-3.4646,0.0,0.0,0.0,0.0,0.0,-3.7506,-3.7926,0.0,0.0,-3.8202,-3.8202,-3.8202,0.0,-3.8202,-3.8202,-3.8202,-3.8202,-3.8202,-3.8202,-3.8202,-3.8202,0.0,0.0,0.0,-3.8159,-3.7955,0.0,0.0,0.0,0.0,0.0,0.0,0.0,0.0,0.0,0.0,0.0,0.0,0.0,0.0,0.0,0.0,0.0,0.0,0.0,0.0,0.0,0.0,0.0,-3.4397,-3.4062,-3.3836,-3.3836,-3.4852,-3.5427,-3.546,-3.7564,-3.8596,-3.8188,-4.0164,-4.0802,-4.0201,-4.1465,-4.1832,-4.1469,-4.2521,-4.3108,-4.3369,-4.4008,-4.4516,-4.4908,-4.5126,-4.5488,-4.588,-4.588,-4.588,-4.588,-4.588,-4.588,-4.588,-3.4414,0.0,0.0,0.0,0.0,0.0,0.0,0.0,0.0,0.0,-3.4414,0.0,-3.4719,0.0,-3.4835,0.0,-3.5082,-3.5082,-3.5082,-3.5473,0.0,-3.5096,-3.5488,0.0,0.0,0.0,-3.4748,-3.4748,-3.453,-3.4414,0.0,0.0,0.0,0.0,0.0,0.0,0.0,0.0,-3.6315,0.0,0.0,-3.8202,0.0,0.0,-3.8202,-3.8202,0.0,-3.8202,-3.8202,-3.8202,-3.8202,-3.8202,-3.8202,-3.8202,-3.8202,-3.8202,-3.8202,-3.8202,-3.8202,-3.8202,0.0,-3.8202,-3.8202,0.0,-3.8202,0.0,0.0,0.0,0.0,0.0,0.0,0.0,0.0,0.0,0.0,0.0,0.0,-3.8277,0.0,0.0,0.0,0.0,0.0,0.0,-3.5032,-3.4481,-3.4121,-3.3882,0.0,0.0,-3.4769,-3.4385,-3.6731,-3.7678,-3.7048,-3.9073,-3.9812,-3.921,-4.0474,-4.0731,-4.0173,-4.1197,-4.1667,-4.1696,-4.2349,-4.3036,-4.376,-4.399,-4.4657,-4.5532,-4.5532,-4.5677,-4.588,-4.588,-4.588,-4.588,0.0,0.0,0.0,0.0,-3.4414,0.0,0.0,0.0,-3.4428,0.0,-3.4457,-3.4704,-3.5343,-3.547,-3.5662,-3.6257,-3.6301,-3.6301,-3.6301,-3.6344,0.0,0.0,-3.6344,-3.6344,-3.6301,0.0,0.0,0.0,0.0,0.0,0.0,0.0,0.0,0.0,-3.547,0.0,-3.6359,-3.6359,-3.6736,-3.7404,-3.797,-3.8202,-3.8202,-3.8202,-3.8202,-3.8202,-3.8202,-3.8202,-3.8202,-3.8202,-3.8202,-3.8202,-3.8202,-3.8202,-3.8202,-3.8202,-3.8202,-3.8202,-3.8202,-3.8202,-3.8202,-3.8202,0.0,0.0,0.0,0.0,-3.8202,0.0,0.0,0.0,0.0,0.0,0.0,0.0,0.0,0.0,0.0,0.0,0.0,0.0,0.0,0.0,0.0,-3.6858,-3.6215,-3.4634,-3.5169,0.0,0.0,0.0,-3.4633,-3.5057,-3.6489,-3.7163,-3.6907,-3.8341,-3.9081,-3.9019,-3.9121,-3.921,-3.9121,-3.921,-3.921,-3.9237,-3.9834,-4.0646,-4.1615,-4.2191,-4.3347,-4.4747,-4.4776,-4.5196,-4.579,-4.588,-4.588,-4.588,-3.4414,-3.4414,-3.4414,0.0,-3.4414,-3.4414,0.0,0.0,0.0,0.0,-3.5111,-3.5357,-3.5996,-3.6069,-3.6127,-3.6301,-3.6301,0.0,0.0,0.0,0.0,-3.633,-3.678,-3.6823,-3.6315,-3.6156,0.0,-3.6069,0.0,0.0,-3.5822,0.0,0.0,0.0,0.0,0.0,-3.7056,-3.7056,-3.7404,-3.7984,-3.8144,-3.8202,0.0,0.0,-3.8202,-3.8202,-3.8202,-3.8202,-3.8202,-3.8202,-3.8202,-3.8202,-3.8202,-3.8202,-3.8202,-3.8202,-3.8202,-3.8202,-3.8202,-3.8202,-3.8202,-3.8202,-3.8202,-3.8202,0.0,0.0,0.0,0.0,0.0,0.0,0.0,0.0,0.0,0.0,0.0,0.0,0.0,0.0,0.0,-3.8202,0.0,0.0,-3.7886,-3.6674,-3.6029,-3.6215,-3.5264,0.0,0.0,0.0,0.0,-3.3687,-3.5057,-3.5631,-3.5276,-3.6791,-3.7377,-3.7163,-3.8496,-3.8854,-3.816,-3.8854,-3.921,-3.921,-3.9373,-3.9891,-4.0597,-4.0748,-4.1341,-4.2167,-4.3398,-4.4251,-4.4805,-4.5595,-4.588,-4.588,-3.4414,0.0,0.0,-3.4777,0.0,0.0,-3.4835,0.0,0.0,-3.5691,-3.5778,0.0,-3.6678,-3.6751,-3.6852,-3.7114,-3.7128,0.0,-3.7128,0.0,0.0,-3.7157,-3.7491,-3.752,-3.7143,-3.6881,0.0,-3.6751,0.0,0.0,-3.6301,0.0,0.0,0.0,0.0,-3.7099,0.0,-3.7694,-3.7897,-3.8202,-3.8202,0.0,0.0,-3.8202,-3.8202,-3.8202,-3.8202,-3.8202,-3.8202,-3.8202,-3.8202,-3.8202,-3.8202,-3.8202,-3.8202,-3.8202,-3.8202,-3.8202,-3.8202,-3.8202,-3.8202,-3.8202,-3.8202,-3.8202,-3.8202,-3.8202,-3.8202,0.0,0.0,0.0,0.0,0.0,0.0,0.0,0.0,0.0,0.0,0.0,0.0,0.0,-3.8202,0.0,-3.8202,-3.7309,-3.6582,-3.636,-3.5883,0.0,0.0,0.0,0.0,-3.4191,-3.4508,-3.4538,-3.4361,-3.5672,-3.6233,-3.6006,-3.7311,-3.7704,-3.7176,-3.7704,-3.7965,-3.7965,-3.7965,-3.8423,-3.9106,-3.9106,-3.9806,-4.0845,-4.1998,-4.2805,-4.3346,-4.3933,-4.4578,-4.5201,0.0,0.0,0.0,0.0,0.0,0.0,0.0,-3.5616,0.0,-3.6359,0.0,-3.6693,-3.736,-3.7418,-3.7636,-3.8159,0.0,-3.8202,-3.8202,-3.8202,-3.8202,-3.8202,-3.8202,-3.8202,-3.8202,-3.7694,-3.7418,0.0,0.0,0.0,0.0,0.0,0.0,0.0,0.0,0.0,0.0,-3.8202,-3.8202,0.0,-3.8202,-3.8202,-3.8202,-3.8202,-3.8202,-3.8202,-3.8202,-3.8202,-3.8202,-3.8202,-3.8202,-3.8202,-3.8202,-3.8202,-3.8202,-3.8202,-3.8202,-3.8202,-3.8202,-3.8202,-3.8202,-3.8202,-3.8202,-3.8202,-3.8202,-3.8202,-3.8202,-3.8202,-3.8202,-3.8202,0.0,0.0,0.0,0.0,0.0,0.0,0.0,0.0,0.0,0.0,0.0,0.0,-3.8202,-3.8127,-3.7477,0.0,0.0,0.0,0.0,0.0,0.0,-3.5305,-3.443,-3.3909,-3.3897,0.0,-3.5403,-3.5554,-3.6031,-3.6389,-3.6358,-3.6358,-3.6358,-3.6358,-3.6358,-3.6909,-3.7625,-3.7625,-3.8595,-4.0096,-4.057,-4.1152,-4.1693,-4.1775,-4.2602,-4.3826,0.0,0.0,0.0,0.0,0.0,-3.6387,-3.7069,-3.6633,-3.6388,-3.7041,-3.7128,-3.736,-3.7984,-3.8043,-3.8086,-3.8188,-3.8202,0.0,0.0,0.0,0.0,-3.8202,-3.8202,-3.8202,-3.8202,-3.8101,-3.8043,0.0,0.0,0.0,0.0,0.0,0.0,0.0,0.0,0.0,-3.8202,-3.8202,0.0,-3.8202,-3.8202,-3.8202,-3.8202,-3.8202,-3.8202,-3.8202,-3.8202,-3.8202,-3.8202,-3.8202,-3.8202,-3.8202,-3.8202,-3.8202,-3.8202,-3.8202,-3.8202,-3.8202,-3.8202,-3.8202,-3.8202,-3.8202,-3.8202,-3.8202,-3.8202,-3.8202,-3.8202,-3.8202,-3.8202,-3.8202,-3.8202,0.0,0.0,0.0,0.0,0.0,0.0,0.0,0.0,0.0,0.0,-3.8202,0.0,0.0,0.0,0.0,0.0,0.0,0.0,0.0,0.0,0.0,-3.4082,0.0,0.0,0.0,-3.4817,-3.5542,-3.584,-3.6117,-3.6358,-3.6358,-3.6358,-3.6358,-3.6358,-3.6452,-3.664,-3.664,-3.759,-3.9031,-3.9137,-3.9519,-4.01,-4.0478,-4.0812,-4.1249,0.0,0.0,0.0,0.0,0.0,0.0,0.0,-3.7726,0.0,-3.7886,-3.7855,-3.7883,-3.8173,-3.8202,-3.8202,-3.8202,-3.8202,-3.8202,-3.8202,-3.8202,-3.8202,-3.8202,-3.8202,0.0,-3.8202,-3.8202,-3.8202,-3.8202,0.0,0.0,0.0,0.0,0.0,0.0,0.0,-3.8202,0.0,0.0,0.0,-3.8202,-3.8202,-3.8202,-3.8202,-3.8202,-3.8202,-3.8202,-3.8202,-3.8202,-3.8202,-3.8202,-3.8202,-3.8202,-3.8202,-3.8202,-3.8202,-3.8202,-3.8202,-3.8202,-3.8202,-3.8202,-3.8202,-3.8202,-3.8202,-3.8202,-3.8202,-3.8202,-3.8202,-3.8202,-3.8202,-3.8202,-3.8202,-3.8202,0.0,0.0,0.0,0.0,0.0,0.0,0.0,0.0,0.0,0.0,0.0,0.0,0.0,0.0,0.0,0.0,0.0,0.0,0.0,0.0,0.0,0.0,0.0,0.0,0.0,-3.5479,-3.5874,-3.6294,-3.6534,-3.6534,-3.6546,-3.6358,-3.6358,-3.6358,-3.6358,-3.6358,-3.6887,-3.7587,-3.7587,-3.7921,-3.8364,-3.8633,-3.9107,-3.9895,0.0,-3.659,0.0,0.0,-3.7842,0.0,-3.8517,-3.859,-3.8516,-3.8516,-3.8277,-3.8202,-3.8277,-3.8202,-3.8202,-3.8202,-3.8202,-3.8202,-3.8202,-3.8202,-3.8202,-3.8202,-3.8202,-3.8202,-3.8202,-3.8202,-3.8202,0.0,0.0,0.0,0.0,0.0,0.0,0.0,0.0,0.0,0.0,0.0,-3.8202,-3.8202,-3.8202,-3.8202,-3.8202,-3.8202,-3.8202,-3.8202,-3.8202,-3.8202,-3.8202,-3.8202,-3.8202,-3.8202,-3.8202,-3.8202,-3.8202,-3.8202,-3.8202,-3.8202,-3.8202,-3.8202,-3.8202,-3.8202,-3.8202,-3.8202,-3.8202,-3.8202,-3.8202,-3.8202,-3.8202,-3.8202,-3.8202,-3.8202,0.0,0.0,0.0,0.0,0.0,0.0,0.0,0.0,0.0,0.0,-3.8202,0.0,0.0,0.0,0.0,0.0,0.0,0.0,0.0,0.0,0.0,-3.3484,-3.3484,0.0,-3.4512,-3.5263,-3.5917,-3.6378,-3.6637,-3.6658,-3.6628,-3.6452,-3.6452,-3.6358,-3.6358,-3.6358,-3.6358,-3.6358,-3.6358,-3.6621,-3.7023,-3.7149,-3.7751,-3.8705,0.0,0.0,0.0,0.0,0.0,0.0,-3.9017,-3.887,-3.8723,-3.8516,-3.8277,-3.8277,-3.8441,-3.8277,-3.8202,-3.8202,-3.8202,-3.8202,-3.8202,-3.8202,-3.8202,-3.8202,-3.8202,-3.8202,-3.8202,-3.8202,-3.8202,0.0,0.0,-3.7926,0.0,0.0,0.0,0.0,0.0,0.0,0.0,-3.8202,-3.8202,-3.8202,-3.8202,-3.8202,-3.8202,-3.8202,-3.8202,-3.8202,-3.8202,-3.8202,-3.8202,-3.8202,-3.8202,-3.8202,-3.8202,-3.8202,-3.8202,-3.8202,-3.8202,-3.8202,-3.8202,-3.8202,-3.8202,-3.8202,-3.8202,-3.8202,-3.8202,-3.8202,-3.8202,-3.8202,-3.8202,-3.8202,-3.8202,-3.8202,-3.8202,0.0,0.0,0.0,0.0,0.0,0.0,0.0,0.0,0.0,0.0,-3.8202,0.0,0.0,0.0,0.0,0.0,0.0,0.0,-3.4716,0.0,-3.4301,-3.3713,-3.3679,-3.4097,-3.4686,-3.544,-3.6006,-3.6365,-3.6586,-3.6722,-3.6628,-3.6452,-3.6358,-3.6358,-3.6358,-3.6358,-3.6358,-3.6358,-3.6395,-3.6496,-3.6998,-3.7249,-3.75,0.0,0.0,0.0,0.0,0.0,0.0,0.0,-3.9307,-3.9091,-3.9417,-3.8824,-3.8512,-3.8844,-3.8888,-3.8942,-3.9305,-3.9334,-3.9334,-3.9334,-3.9,-3.8797,-3.8797,-3.8405,-3.8202,-3.8202,-3.8202,-3.8202,0.0,0.0,0.0,0.0,0.0,0.0,0.0,0.0,-3.8202,-3.8202,-3.8202,-3.8202,-3.8202,-3.8202,-3.8202,-3.8202,-3.8202,-3.8202,-3.8202,-3.8202,-3.8202,-3.8202,-3.8202,-3.8202,-3.8202,-3.8202,-3.8202,-3.8202,-3.8202,-3.8202,-3.8202,-3.8202,-3.8202,-3.8202,-3.8202,-3.8202,-3.8202,-3.8202,-3.8202,-3.8202,-3.8202,-3.8202,-3.8202,-3.8202,-3.8202,-3.8202,0.0,0.0,0.0,0.0,0.0,0.0,0.0,0.0,0.0,0.0,0.0,0.0,0.0,0.0,0.0,0.0,0.0,0.0,-3.4134,0.0,-3.4063,-3.3894,-3.3894,-3.4276,-3.5042,-3.5687,-3.6158,-3.6457,-3.6839,-3.6815,-3.6546,-3.6452,-3.6358,-3.6358,-3.6358,-3.6358,-3.6358,-3.6358,-3.6358,-3.6383,-3.6609,-3.6897,-3.7249,-4.0914,0.0,-3.9874,0.0,-4.017,-3.9655,-4.0208,-3.9824,-3.9713,-4.0293,-3.9742,-3.9427,-3.9744,-3.9711,-3.9872,-4.031,-4.0275,-4.0197,-4.0197,-3.9697,-3.9465,-3.9465,-3.8841,0.0,-3.8492,-3.8304,-3.8202,-3.8202,-3.8202,0.0,0.0,0.0,0.0,0.0,-3.8202,-3.8202,-3.8202,-3.8202,-3.8202,-3.8202,-3.8202,-3.8202,-3.8202,-3.8202,-3.8202,-3.8202,-3.8202,-3.8202,-3.8202,-3.8202,-3.8202,-3.8202,-3.8202,-3.8202,-3.8202,-3.8202,-3.8202,-3.8202,-3.8202,-3.8202,-3.8202,-3.8202,-3.8202,-3.8202,-3.8202,-3.8202,-3.8202,-3.8202,-3.8202,-3.8202,-3.8202,-3.8202,-3.8202,-3.8202,0.0,0.0,0.0,0.0,0.0,0.0,-3.8202,-3.8202,-3.8202,-3.8202,0.0,0.0,0.0,0.0,0.0,0.0,0.0,0.0,0.0,0.0,-3.3992,-3.3992,-3.4283,-3.4966,-3.577,-3.623,-3.6482,-3.6867,-3.6922,-3.6452,-3.6452,-3.6358,-3.6358,-3.6358,-3.6358,-3.6358,-3.6358,-3.6358,-3.6358,-3.6358,-3.6609,-3.696,-4.1213,-4.1362,-4.126,-4.0615,-4.0478,-4.043,-4.0424,-4.0382,-4.0547,-4.1005,-4.108,-4.108,-4.108,-4.0926,-4.0757,-4.0772,-4.0632,-4.049,-4.049,-4.0275,-4.0089,0.0,0.0,-3.9189,-3.9189,-3.8551,-3.8202,-3.8202,0.0,0.0,-3.7317,0.0,-3.7636,-3.8202,-3.8202,-3.8202,-3.8202,-3.8202,-3.8202,-3.8202,-3.8202,-3.8202,-3.8202,-3.8202,-3.8202,-3.8202,-3.8202,-3.8202,-3.8202,-3.8202,-3.8202,-3.8202,-3.8202,-3.8202,-3.8202,-3.8202,-3.8202,-3.8202,-3.8202,-3.8202,-3.8202,-3.8202,-3.8202,-3.8202,-3.8202,-3.8202,-3.8202,-3.8202,-3.8202,-3.8202,-3.8202,-3.8202,-3.8202,-3.8202,0.0,0.0,0.0,0.0,0.0,-3.8202,-3.8202,-3.8202,-3.8202,0.0,0.0,0.0,0.0,0.0,0.0,0.0,0.0,-3.599,-3.4288,0.0,-3.3713,-3.3713,-3.381,-3.4102,-3.5474,-3.6109,-3.6149,-3.6779,-3.6909,-3.6722,-3.6452,-3.6358,-3.6358,-3.6358,-3.6358,-3.6358,-3.6358,-3.6358,-3.6358,-3.6358,-3.637,-3.6458,-4.2756,-4.2094,-4.1749,-4.2489,-4.1815,-4.1425,-4.2404,-4.2155,-4.2053,-4.2665,-4.2756,-4.2713,-4.2593,-4.1922,-4.1597,0.0,-4.2004,-4.2004,0.0,-4.1324,-4.0996,-4.0996,-4.0226,-3.9625,-3.9218,-3.8986,-3.8667,-3.8202,0.0,0.0,0.0,-3.7912,-3.8028,-3.8202,-3.8202,-3.8202,-3.8202,-3.8202,-3.8202,-3.8202,-3.8202,-3.8202,-3.8202,-3.8202,-3.8202,-3.8202,-3.8202,-3.8202,-3.8202,-3.8202,-3.8202,-3.8202,-3.8202,-3.8202,-3.8202,-3.8202,-3.8202,-3.8202,-3.8202,-3.8202,-3.8202,-3.8202,-3.8202,-3.8202,-3.8202,-3.8202,-3.8202,-3.8202,-3.8202,-3.8202,-3.8202,-3.8202,-3.8202,-3.8202,-3.8202,0.0,0.0,0.0,0.0,-3.8202,-3.8202,-3.8202,0.0,-3.8202,0.0,0.0,0.0,0.0,0.0,0.0,0.0,0.0,-3.4786,0.0,-3.3725,-3.3713,-3.381,-3.4089,-3.5314,-3.6261,-3.7053,-3.7127,-3.6909,-3.6722,-3.6452,-3.6358,-3.6358,-3.6358,-3.6358,-3.6358,-3.6358,-3.6358,-3.6358,-3.6358,-3.6358,-3.6383,-4.3899,-4.3304,-4.2993,-4.3864,-4.3285,-4.2962,-4.3895,-4.3639,-4.3459,-4.3787,-4.3895,-4.3762,-4.3364,-4.2718,0.0,-4.29,-4.285,-4.2769,-4.2688,-4.2144,-4.1763,-4.1697,-4.0909,-4.0292,-3.9929,-3.945,0.0,-3.858,-3.8318,-3.8202,-3.8202,-3.8202,-3.8202,-3.8202,-3.8202,-3.8202,-3.8202,-3.8202,-3.8202,-3.8202,-3.8202,-3.8202,-3.8202,-3.8202,-3.8202,-3.8202,-3.8202,-3.8202,-3.8202,-3.8202,-3.8202,-3.8202,-3.8202,-3.8202,-3.8202,-3.8202,-3.8202,-3.8202,-3.8202,-3.8202,-3.8202,-3.8202,-3.8202,-3.8202,-3.8202,-3.8202,-3.8202,-3.8202,-3.8202,-3.8202,-3.8202,-3.8202,-3.8202,-3.8202,-3.8202,-3.8202,-3.8202,0.0,0.0,0.0,0.0,0.0,0.0,-3.8202,-3.8202,0.0,0.0,0.0,0.0,0.0,0.0,-3.5251,-3.462,0.0,-3.3471,-3.3556,-3.3641,-3.3836,-3.5066,-3.629,-3.7307,-3.7108,-3.6815,-3.6722,-3.6452,-3.6358,-3.6358,-3.6358,-3.6358,-3.6358,-3.6358,-3.6358,-3.6358,-3.6358,-3.6358,-3.6358,-4.4638,-4.4771,-4.4801,0.0,-4.4886,0.0,-4.4833,-4.4874,-4.4811,-4.4644,-4.4586,-4.4297,-4.3472,-4.3329,-4.3329,-4.3329,0.0,0.0,0.0,-4.2541,-4.231,-4.2175,-4.1497,-4.1134,-4.1091,-3.9944,-3.9291,-3.9204,-3.8536,-3.8202,-3.8202,-3.8202,-3.8202,-3.8202,-3.8202,-3.8202,-3.8202,-3.8202,-3.8202,-3.8202,-3.8202,-3.8202,-3.8202,-3.8202,-3.8202,-3.8202,-3.8202,-3.8202,-3.8202,-3.8202,-3.8202,-3.8202,-3.8202,-3.8202,-3.8202,-3.8202,-3.8202,-3.8202,-3.8202,-3.8202,-3.8202,-3.8202,-3.8202,-3.8202,-3.8202,-3.8202,-3.8202,-3.8202,-3.8202,-3.8202,-3.8202,-3.8202,-3.8202,-3.8202,-3.8202,-3.8202,-3.8202,0.0,0.0,0.0,0.0,0.0,0.0,-3.8202,-3.8202,0.0,0.0,0.0,0.0,0.0,-3.5019,-3.5615,-3.4037,-3.3154,-3.3081,-3.3326,-3.3436,-3.3525,-3.4881,-3.607,-3.7108,-3.6815,-3.6709,-3.6722,-3.6452,-3.6358,-3.6358,-3.6358,-3.6358,-3.6358,-3.6358,-3.6358,-3.6358,-3.6358,-3.6358,-3.6358,0.0,0.0,-4.556,-4.5503,-4.55,-4.5675,-4.6249,-4.6293,-4.6271,-4.6292,-4.5753,-4.511,-4.4297,-4.3708,-4.3329,-4.3329,-4.325,-4.317,-4.317,-4.301,-4.2769,-4.2541,-4.2246,-4.1762,-4.1105,-4.08,-4.0176,-3.9204,-3.8536,-3.8202,-3.8202,-3.8202,-3.8202,-3.8202,-3.8202,-3.8202,-3.8202,-3.8202,-3.8202,-3.8202,-3.8202,-3.8202,-3.8202,-3.8202,-3.8202,-3.8202,-3.8202,-3.8202,-3.8202,-3.8202,-3.8202,-3.8202,-3.8202,-3.8202,-3.8202,-3.8202,-3.8202,-3.8202,-3.8202,-3.8202,-3.8202,-3.8202,-3.8202,-3.8202,-3.8202,-3.8202,-3.8202,-3.8202,-3.8202,-3.8202,-3.8202,-3.8202,-3.8202,-3.8202,-3.8202,-3.8202,-3.8202,-3.8202,0.0,0.0,-3.8202,-3.8202,-3.8202,-3.8202,-3.8202,0.0,0.0,0.0,0.0,-3.6439,-3.5467,-3.5628,-3.4607,-3.3738,-3.3081,-3.3154,-3.3669,-3.4705,-3.566,-3.6429,-3.7108,-3.6815,-3.6709,-3.6722,-3.6452,-3.6358,-3.6358,-3.6358,-3.6358,-3.6358,-3.6358,-3.6358,-3.6358,-3.6358,-3.6358,-3.6358,-4.6228,-4.6295,-4.6383,-4.67,-4.6748,-4.6879,-4.7272,-4.7337,-4.7186,-4.6828,-4.6464,-4.5753,-4.4586,-4.4143,-4.3708,-4.3329,-4.3329,-4.325,-4.3155,-4.3076,-4.2915,-4.2688,-4.2622,-4.2298,-4.1851,-4.1558,-4.085,-3.9794,-3.9062,-3.8667,-3.8652,-3.8347,-3.8202,-3.8202,-3.8202,-3.8202,-3.8202,-3.8202,-3.8202,-3.8202,-3.8202,-3.8202,-3.8202,-3.8202,-3.8202,-3.8202,-3.8202,-3.8202,-3.8202,-3.8202,-3.8202,-3.8202,-3.8202,-3.8202,-3.8202,-3.8202,-3.8202,-3.8202,-3.8202,-3.8202,-3.8202,-3.8202,-3.8202,-3.8202,-3.8202,-3.8202,-3.8202,-3.8202,-3.8202,-3.8202,-3.8202,-3.8202,-3.8202,-3.8202,-3.8202,-3.8202,-3.8202,-3.8202,0.0,-3.8202,-3.8202,-3.8202,-3.8202,-3.8202,-3.8202,-3.8202,-3.8202,0.0,-3.8202,-3.6582,-3.5615,-3.5615,-3.4441,-3.3569,-3.3081,-3.3319,-3.4098,-3.5297,-3.577,-3.6202,-3.6734,-3.664,-3.6534,-3.6534,-3.6452,-3.6358,-3.6358,-3.6358,-3.6358,-3.6358,-3.6358,-3.6358,-3.6358,-3.6358,-3.6358,-3.6358,-4.6941,-4.7073,-4.7255,-4.7885,-4.8001,-4.8001,-4.8001,-4.8001,-4.777,-4.7033,-4.6896,-4.6308,-4.502,-4.4737,-4.4373,-4.3551,-4.3472,-4.3394,-4.3061,-4.3076,-4.2996,-4.2769,-4.2769,-4.2769,-4.2688,-4.2054,-4.1386,-4.0622,-3.9809,-3.9349,-3.932,-3.8754,-3.8492,-3.8492,-3.8492,-3.8492,-3.8492,-3.8492,-3.8434,-3.8362,-3.8362,-3.8289,-3.8202,-3.8202,-3.8202,-3.8202,-3.8202,-3.8202,-3.8202,-3.8202,-3.8202,-3.8202,-3.8202,-3.8202,-3.8202,-3.8202,-3.8202,-3.8202,-3.8202,-3.8202,-3.8202,-3.8202,-3.8202,-3.8202,-3.8202,-3.8202,-3.8202,-3.8202,-3.8202,-3.8202,-3.8202,-3.8202,-3.8202,-3.8202,-3.8202,-3.8202,-3.8202,0.0,-3.8202,-3.8202,-3.8202,-3.8202,-3.8202,-3.8202,-3.8202,-3.8202,-3.8202,-3.8202,-3.8202,-3.666,-3.5789,-3.5789,-3.4037,-3.3119,-3.3206,-3.3746,-3.4537,-3.5542,-3.5629,-3.5906,-3.6358,-3.6358,-3.6358,-3.6358,-3.6358,-3.6358,-3.6358,-3.6358,-3.6358,-3.6358,-3.6358,-3.6358,-3.6358,-3.6358,-3.6358,-3.6358,-4.7819,-4.7835,-4.7868,-4.7984,-4.8001,-4.8001,-4.8001,-4.8001,-4.7935,-4.7853,-4.7186,-4.6673,-4.6464,-4.5897,-4.5184,-4.4358,-4.4297,-4.3989,-4.3329,-4.325,-4.3155,-4.2996,-4.2981,-4.2835,-4.2688,-4.2054,-4.1592,-4.1251,-4.0637,-4.0159,-3.9958,-3.9842,-3.9813,-3.9813,-3.9813,-3.9813,-3.9813,-3.9813,-3.9509,-3.9044,-3.9044,-3.871,-3.8202,-3.8202,-3.8202,-3.8202,-3.8202,-3.8202,-3.8202,-3.8202,-3.8202,-3.8202,-3.8202,-3.8202,-3.8202,-3.8202,-3.8202,-3.8202,-3.8202,-3.8202,-3.8202,-3.8202,-3.8202,-3.8202,-3.8202,-3.8202,-3.8202,-3.8202,-3.8202,-3.8202,-3.8202,-3.8202,-3.8202,-3.8202,-3.8202,-3.8202,-3.8202,0.0,-3.8202,-3.8202,-3.8202,-3.8202,-3.8202,-3.8202,-3.8202,-3.8202,-3.8202,-3.8202,-3.8202,-3.7246,-3.6688,-3.6688,-3.4358,-3.3307,-3.3771,-3.4324,-3.4914,-3.5554,-3.6019,-3.6282,-3.6358,-3.6358,-3.6358,-3.6358,-3.6358,-3.6358,-3.6358,-3.6358,-3.6358,-3.6358,-3.6358,-3.6358,-3.6358,-3.6358,-3.6358,-3.6358,-4.8001,-4.8001,-4.8001,-4.8001,-4.8001,-4.8001,-4.8001,-4.8001,-4.8001,-4.8001,-4.7704,-4.727,-4.6828,-4.6464,-4.5969,-4.5169,-4.5184,-4.4812,-4.4004,-4.3551,-4.325,-4.3155,-4.3155,-4.309,-4.301,-4.2634,-4.2391,-4.2296,-4.1518,-4.1037,-4.0771,-4.045,-4.0197,-4.0104,-4.0104,-4.0104,-4.0104,-4.0104,-3.9944,-3.9683,-3.9683,-3.9305,-3.8739,-3.8739,-3.8507,-3.8202,-3.8202,-3.8202,-3.8202,-3.8202,-3.8202,-3.8202,-3.8202,-3.8202,-3.8202,-3.8202,-3.8202,-3.8202,-3.8202,-3.8202,-3.8202,-3.8202,-3.8202,-3.8202,-3.8202,-3.8202,-3.8202,-3.8202,-3.8202,-3.8202,-3.8202,-3.8202,-3.8202,-3.8202,-3.8202,0.0,0.0,-3.8202,-3.8202,-3.8202,-3.8202,-3.8202,-3.8202,-3.8202,-3.8202,-3.8202,-3.8202,-3.8202,-3.8202,-3.7414,-3.7091,-3.7414,-3.5389,-3.4423,-3.4776,-3.5039,-3.5441,-3.5994,-3.6245,-3.6358,-3.6358,-3.6358,-3.6358,-3.6358,-3.6358,-3.6358,-3.6358,-3.6358,-3.6358,-3.6358,-3.6358,-3.6358,-3.6358,-3.6358,-3.6358,-3.6358,-4.8001,-4.8001,-4.8001,-4.8001,-4.8001,-4.8001,-4.8001,-4.8001,-4.8001,-4.8001,-4.8001,-4.777,-4.7118,-4.7118,-4.6759,-4.604,-4.5985,-4.5608,-4.4812,-4.4004,-4.3488,-4.3329,-4.3329,-4.3329,-4.3329,-4.3155,-4.3076,-4.2981,-4.2332,-4.1936,-4.1682,-4.1213,-4.09,-4.0712,-4.0633,-4.0633,-4.0633,-4.0554,-4.0466,-4.0321,-4.0321,-3.9958,-3.9392,-3.9247,-3.8884,-3.8405,-3.826,-3.8202,-3.8202,-3.8202,-3.8202,-3.8202,-3.8202,-3.8202,-3.8202,-3.8202,-3.8202,-3.8202,-3.8202,-3.8202,-3.8202,-3.8202,-3.8202,-3.8202,-3.8202,-3.8202,-3.8202,-3.8202,-3.8202,-3.8202,-3.8202,-3.8202,-3.8202,-3.8202,0.0,0.0,0.0,-3.8202,-3.8202,-3.8202,-3.8202,-3.8202,-3.8202,-3.8202,-3.8202,-3.8202,-3.8202,-3.8275,-3.842,-3.7796,-3.7749,-3.8257,-3.6391,-3.5564,-3.5897,-3.5634,-3.5818,-3.6358,-3.6358,-3.6358,-3.6358,-3.6358,-3.6358,-3.6358,-3.6358,-3.6358,-3.6358,-3.6358,-3.6358,-3.6358,-3.6358,-3.6358,-3.6358,-3.6358,-3.6358,-3.6358,-4.8001,-4.8001,-4.8001,-4.8001,-4.8001,-4.8001,-4.8001,-4.8001,-4.8001,-4.8001,-4.8001,-4.8001,-4.7935,-4.7919,-4.7555,-4.6811,-4.6742,-4.6394,-4.5697,-4.4887,-4.4066,-4.3329,-4.3329,-4.3329,-4.3329,-4.325,-4.317,-4.2981,-4.2936,-4.2761,-4.2614,-4.257,-4.2555,-4.246,-4.2327,-4.2246,-4.2246,-4.2015,-4.1584,-4.1018,-4.1018,-4.0626,-3.9973,-3.9407,-3.9175,-3.9044,-3.842,-3.8202,-3.8202,-3.8202,-3.8202,-3.8202,-3.8202,-3.8202,-3.8202,-3.8202,-3.8202,-3.8202,-3.8202,-3.8202,-3.8202,-3.8202,-3.8202,-3.8202,-3.8202,-3.8202,-3.8202,-3.8202,-3.8202,-3.8202,-3.8202,-3.8202,-3.8202,-3.8202,0.0,0.0,-3.8202,-3.8202,-3.8202,-3.8202,-3.8202,-3.8202,-3.8202,-3.8202,-3.8202,-3.8202,-3.8202,-3.8463,-3.9088,-3.9054,-3.9197,-3.9564,-3.7308,-3.6305,-3.6856,-3.5989,-3.5818,-3.6358,-3.6358,-3.6358,-3.6358,-3.6358,-3.6358,-3.6358,-3.6358,-3.6358,-3.6358,-3.6358,-3.6358,-3.6358,-3.6358,-3.6358,-3.6358,-3.6358,-3.6358,-3.6358,-4.8001,-4.8001,-4.8001,-4.8001,-4.8001,-4.8001,-4.8001,-4.8001,-4.8001,-4.8001,-4.8001,-4.8001,-4.8001,-4.8001,-4.7853,-4.7555,-4.7555,-4.7186,-4.6394,-4.5681,-4.4662,-4.3329,-4.3329,-4.3329,-4.3329,-4.3329,-4.325,-4.317,-4.317,-4.3076,-4.2915,-4.2915,-4.2835,-4.2688,-4.2622,-4.2541,-4.2392,-4.2325,-4.2111,-4.1715,-4.1715,-4.1323,-4.0655,-4.0002,-3.9523,-3.9117,-3.8449,-3.8202,-3.8202,-3.8202,-3.8202,-3.8202,-3.8202,-3.8202,-3.8202,-3.8202,-3.8202,-3.8202,-3.8202,-3.8202,-3.8202,-3.8202,-3.8202,-3.8202,-3.8202,-3.8202,-3.8202,-3.8202,-3.8202,-3.8202,-3.8202,-3.8202,-3.8202,-3.8202,0.0,-3.8202,-3.8202,-3.8202,-3.8202,-3.8202,-3.8202,-3.8202,-3.8202,-3.8202,-3.8376,-3.8797,-3.8826,-3.9088,-3.9726,-4.0147,-4.0437,-4.0574,-3.8882,-3.7847,-3.7482,-3.6497,-3.6157,-3.6358,-3.6358,-3.6358,-3.6358,-3.6358,-3.6358,-3.6358,-3.6358,-3.6358,-3.6358,-3.6358,-3.6358,-3.6358,-3.6358,-3.6358,-3.6358,-3.6358,-3.6358,-3.6358,-4.8001,-4.8001,-4.8001,-4.8001,-4.8001,-4.8001,-4.8001,-4.8001,-4.8001,-4.8001,-4.8001,-4.8001,-4.8001,-4.8001,-4.8001,-4.8001,-4.8001,-4.7787,-4.7186,-4.648,-4.5243,-4.3409,-4.3329,-4.3329,-4.3329,-4.3329,-4.3329,-4.3329,-4.3329,-4.325,-4.3076,-4.3076,-4.2996,-4.285,-4.285,-4.2688,-4.2474,-4.2392,-4.2325,-4.2092,-4.2092,-4.1816,-4.1323,-4.0437,-3.9842,-3.9363,-3.8507,-3.8202,-3.8202,-3.8202,-3.8202,-3.8202,-3.8202,-3.8202,-3.8202,-3.8202,-3.8202,-3.8202,-3.8202,-3.8202,-3.8202,-3.8202,-3.8202,-3.8202,-3.8202,-3.8202,-3.8202,-3.8202,-3.8202,-3.8202,-3.8202,-3.8202,-3.8202,-3.8202,-3.8202,-3.8202,-3.8202,-3.8202,-3.8202,-3.8202,-3.8202,-3.8275,-3.8492,-3.8507,-3.8783,-3.9436,-3.9479,-3.9755,-4.0379,-4.1047,-4.1232,-4.0943,-3.9778,-3.8765,-3.7808,-3.6909,-3.6358,-3.6358,-3.6358,-3.6358,-3.6358,-3.6358,-3.6358,-3.6358,-3.6358,-3.6358,-3.6358,-3.6358,-3.6358,-3.6358,-3.6358,-3.6358,-3.6358,-3.6358,-3.6358,-3.6358,-4.8001,-4.8001,-4.8001,-4.8001,-4.8001,-4.8001,-4.8001,-4.8001,-4.8001,-4.8001,-4.8001,-4.8001,-4.8001,-4.8001,-4.8001,-4.8001,-4.8001,-4.8001,-4.8001,-4.7253,-4.5722,-4.3409,-4.3329,-4.3329,-4.3329,-4.3329,-4.3329,-4.3329,-4.3329,-4.3329,-4.3329,-4.3329,-4.3329,-4.325,-4.3076,-4.2915,-4.2688,-4.2474,-4.2325,-4.2092,-4.2092,-4.2092,-4.1947,-4.0612,-4.0104,-3.9929,-3.8667,-3.8202,-3.8202,-3.8202,-3.8202,-3.8202,-3.8202,-3.8202,-3.8202,-3.8202,-3.8202,-3.8202,-3.8202,-3.8202,-3.8202,-3.8202,-3.8202,-3.8202,-3.8202,-3.8202,-3.8202,-3.8202,-3.8202,-3.8202,-3.8202,-3.8202,-3.8202,-3.8202,-3.8202,-3.8217,-3.8217,-3.8217,-3.8217,-3.8217,-3.8217,-3.8478,-3.9146,-3.9218,-3.9465,-4.006,-4.0104,-4.0408,-4.1076,-4.1729,-4.1633,-4.0603,-3.9724,-3.8765,-3.7808,-3.6909,-3.6358,-3.6358,-3.6358,-3.6358,-3.6358,-3.6358,-3.6358,-3.6358,-3.6358,-3.6358,-3.6358,-3.6358,-3.6358,-3.6358,-3.6358,-3.6358,-3.6358,-3.6358,-3.6358,-3.6358,-4.8001,-4.8001,-4.8001,-4.8001,-4.8001,-4.8001,-4.8001,-4.8001,-4.8001,-4.8001,-4.8001,-4.8001,-4.8001,-4.8001,-4.8001,-4.8001,-4.8001,-4.777,-4.7186,-4.6965,-4.6237,-4.5036,-4.4434,-4.3849,-4.3329,-4.3329,-4.3329,-4.3329,-4.3329,-4.3329,-4.3329,-4.3329,-4.3329,-4.325,-4.3076,-4.2915,-4.2688,-4.2474,-4.2325,-4.2092,-4.2092,-4.2092,-4.1947,-4.0612,-4.0104,-3.9929,-3.8667,-3.8202,-3.8202,-3.8202,-3.8202,-3.8202,-3.8202,-3.8202,-3.8202,-3.8202,-3.8202,-3.8202,-3.8202,-3.8202,-3.8202,-3.8202,-3.8202,-3.8202,-3.8202,-3.8202,-3.8202,-3.8202,-3.8202,-3.8202,-3.8202,-3.8202,-3.8202,-3.8202,-3.8594,-3.8899,-3.8899,-3.9276,-3.9523,-3.9523,-3.9523,-3.961,-3.9813,-3.9828,-4.0104,-4.0742,-4.1236,-4.1584,-4.1787,-4.199,-4.1995,-4.1633,-4.0703,-3.9724,-3.8765,-3.7163,-3.6358,-3.6358,-3.6358,-3.6358,-3.6358,-3.6358,-3.6358,-3.6358,-3.6358,-3.6358,-3.6358,-3.6358,-3.6358,-3.6358,-3.6358,-3.6358,-3.6358,-3.6358,-3.6358,-3.6358,-4.8001,-4.8001,-4.8001,-4.8001,-4.8001,-4.8001,-4.8001,-4.8001,-4.8001,-4.8001,-4.8001,-4.8001,-4.8001,-4.8001,-4.8001,-4.8001,-4.8001,-4.7787,-4.7337,-4.7253,-4.6896,-4.6182,-4.5681,-4.4871,-4.3771,-4.3771,-4.363,-4.3329,-4.3329,-4.3329,-4.3329,-4.3329,-4.3329,-4.325,-4.3155,-4.2996,-4.2688,-4.2541,-4.2325,-4.2092,-4.2092,-4.2092,-4.1947,-4.0612,-4.0104,-3.9929,-3.8667,-3.8202,-3.8202,-3.8202,-3.8202,-3.8202,-3.8202,-3.8202,-3.8202,-3.8202,-3.8202,-3.8202,-3.8202,-3.8202,-3.8202,-3.8202,-3.8202,-3.8202,-3.8202,-3.8202,-3.8275,-3.8551,-3.8609,-3.8667,-3.8913,-3.8942,-3.8942,-3.8942,-3.9291,-3.9567,-3.9567,-3.9871,-4.0104,-4.0104,-4.0104,-4.0191,-4.0466,-4.0495,-4.0771,-4.1439,-4.186,-4.2092,-4.2092,-4.2092,-4.1912,-4.1535,-4.0532,-3.9637,-3.8675,-3.7163,-3.6358,-3.6358,-3.6358,-3.6358,-3.6358,-3.6358,-3.6358,-3.6358,-3.6358,-3.6358,-3.6358,-3.6358,-3.6358,-3.6358,-3.6358,-3.6358,-3.6358,-3.6358,-3.6358,-3.6358,-4.8001,-4.8001,-4.8001,-4.8001,-4.8001,-4.8001,-4.8001,-4.8001,-4.8001,-4.8001,-4.8001,-4.8001,-4.8001,-4.8001,-4.8001,-4.8001,-4.8001,-4.8001,-4.8001,-4.8001,-4.7704,-4.6965,-4.6896,-4.6253,-4.4737,-4.4586,-4.4082,-4.3329,-4.3329,-4.3329,-4.3329,-4.3329,-4.3329,-4.3329,-4.325,-4.309,-4.2688,-4.2688,-4.2474,-4.2092,-4.2092,-4.2092,-4.1961,-4.067,-4.0147,-3.9944,-3.8725,-3.826,-3.8202,-3.8202,-3.8202,-3.8202,-3.8202,-3.8202,-3.8202,-3.8202,-3.8202,-3.8202,-3.8202,-3.8202,-3.8202,-3.8202,-3.8202,-3.8217,-3.8275,-3.8289,-3.8478,-3.9146,-3.9276,-3.945,-4.0002,-4.0104,-4.0104,-4.0104,-4.0147,-4.0191,-4.0191,-4.0234,-4.0278,-4.0278,-4.0278,-4.0525,-4.1134,-4.1192,-4.1439,-4.2049,-4.2092,-4.2092,-4.2092,-4.2092,-4.1717,-4.0774,-3.9899,-3.9046,-3.8069,-3.7083,-3.6546,-3.6358,-3.6358,-3.6358,-3.6358,-3.6358,-3.6358,-3.6358,-3.6358,-3.6358,-3.6358,-3.6358,-3.6358,-3.6358,-3.6358,-3.6358,-3.6358,-3.6358,-3.6358,-3.6358,-4.8001,-4.8001,-4.8001,-4.8001,-4.8001,-4.8001,-4.8001,-4.8001,-4.8001,-4.8001,-4.8001,-4.8001,-4.8001,-4.8001,-4.8001,-4.8001,-4.8001,-4.8001,-4.8001,-4.8001,-4.7919,-4.7787,-4.7704,-4.727,-4.6308,-4.5095,-4.4082,-4.3329,-4.3329,-4.3329,-4.3329,-4.3329,-4.3329,-4.325,-4.3155,-4.2996,-4.2915,-4.2622,-4.2392,-4.2325,-4.2175,-4.2092,-4.2005,-4.1192,-4.0554,-4.0002,-3.9247,-3.8652,-3.8202,-3.8202,-3.8202,-3.8202,-3.8202,-3.8202,-3.8202,-3.8202,-3.8202,-3.8202,-3.8202,-3.8202,-3.8202,-3.8202,-3.8202,-3.8333,-3.887,-3.8986,-3.916,-3.977,-3.99,-3.9944,-4.0075,-4.0104,-4.0104,-4.0104,-4.0539,-4.0873,-4.0873,-4.1337,-4.1671,-4.1671,-4.1671,-4.1715,-4.186,-4.1874,-4.1932,-4.2092,-4.2092,-4.2092,-4.2092,-4.2092,-4.2009,-4.1814,-4.1549,-4.1001,-3.9986,-3.9019,-3.7874,-3.6358,-3.6358,-3.6358,-3.6358,-3.6358,-3.6358,-3.6358,-3.6358,-3.6358,-3.6358,-3.6358,-3.6358,-3.6358,-3.6358,-3.6358,-3.6358,-3.6358,-3.6358,-3.6358,-4.8001,-4.8001,-4.8001,-4.8001,-4.8001,-4.8001,-4.8001,-4.8001,-4.8001,-4.8001,-4.8001,-4.8001,-4.8001,-4.8001,-4.8001,-4.8001,-4.8001,-4.8001,-4.8001,-4.8001,-4.8001,-4.8001,-4.8001,-4.7621,-4.6828,-4.6024,-4.5005,-4.3849,-4.3472,-4.3329,-4.3329,-4.3329,-4.3329,-4.3329,-4.317,-4.3076,-4.2996,-4.2769,-4.2607,-4.2541,-4.231,-4.2242,-4.217,-4.1433,-4.0684,-4.0017,-3.9421,-3.8768,-3.8202,-3.8202,-3.8202,-3.8202,-3.8202,-3.8202,-3.8202,-3.8202,-3.8202,-3.8202,-3.8202,-3.8202,-3.8202,-3.8202,-3.8449,-3.8768,-3.9117,-3.9204,-3.9465,-4.0379,-4.0583,-4.067,-4.1004,-4.1047,-4.1047,-4.1047,-4.1337,-4.157,-4.157,-4.1874,-4.2092,-4.2092,-4.2092,-4.2092,-4.2092,-4.2092,-4.2092,-4.2092,-4.2092,-4.2092,-4.2092,-4.2092,-4.2092,-4.2092,-4.1619,-4.1156,-4.0603,-3.9637,-3.8675,-3.7691,-3.7256,-3.6815,-3.6465,-3.6909,-3.6815,-3.6358,-3.6358,-3.6358,-3.6358,-3.6358,-3.6358,-3.6358,-3.6358,-3.6358,-3.6358,-3.6358,-3.6358,-3.6358,-4.8001,-4.8001,-4.8001,-4.8001,-4.8001,-4.8001,-4.8001,-4.8001,-4.8001,-4.8001,-4.8001,-4.8001,-4.8001,-4.8001,-4.8001,-4.8001,-4.8001,-4.8001,-4.8001,-4.8001,-4.8001,-4.8001,-4.8001,-4.7704,-4.7033,-4.6896,-4.6095,-4.4737,-4.3927,-4.3488,-4.3472,-4.3329,-4.3329,-4.3329,-4.3329,-4.325,-4.3076,-4.2996,-4.2915,-4.2769,-4.2541,-4.2474,-4.2333,-4.163,-4.0866,-4.0124,-3.9538,-3.8855,-3.8202,-3.8202,-3.8202,-3.8202,-3.8202,-3.8202,-3.8202,-3.8202,-3.8202,-3.8202,-3.8202,-3.8202,-3.8231,-3.8347,-3.8797,-3.9262,-3.9479,-3.9523,-3.9857,-4.1033,-4.1265,-4.1439,-4.199,-4.2092,-4.2092,-4.2092,-4.2092,-4.2092,-4.2092,-4.2092,-4.2092,-4.2092,-4.2092,-4.2092,-4.2092,-4.2092,-4.2092,-4.2092,-4.2092,-4.2092,-4.2092,-4.2092,-4.2092,-4.2092,-4.1254,-4.0873,-4.0873,-3.9899,-3.9461,-3.9461,-3.8675,-3.7795,-3.6896,-3.7533,-3.7361,-3.664,-3.6452,-3.6358,-3.6358,-3.6358,-3.6358,-3.6358,-3.6358,-3.6358,-3.6358,-3.6358,-3.6358,-3.6358,-4.8001,-4.8001,-4.8001,-4.8001,-4.8001,-4.8001,-4.8001,-4.8001,-4.8001,-4.8001,-4.8001,-4.8001,-4.8001,-4.8001,-4.8001,-4.8001,-4.8001,-4.8001,-4.8001,-4.8001,-4.8001,-4.8001,-4.8001,-4.7935,-4.7853,-4.7186,-4.6394,-4.5551,-4.4737,-4.4373,-4.4297,-4.363,-4.3329,-4.3329,-4.3329,-4.325,-4.325,-4.3076,-4.2981,-4.2915,-4.2769,-4.2688,-4.2607,-4.2371,-4.1514,-4.0368,-4.0095,-3.9218,-3.8202,-3.8202,-3.8202,-3.8202,-3.8202,-3.8202,-3.8202,-3.8202,-3.8202,-3.8202,-3.8202,-3.8202,-3.8347,-3.8928,-3.9131,-3.9494,-4.0597,-4.0844,-4.1062,-4.1802,-4.1961,-4.199,-4.2078,-4.2092,-4.2092,-4.2092,-4.2092,-4.2092,-4.2092,-4.2092,-4.2092,-4.2092,-4.2092,-4.2092,-4.2092,-4.2092,-4.2092,-4.2092,-4.2092,-4.2092,-4.2092,-4.2092,-4.2092,-4.2092,-4.1995,-4.1912,-4.1912,-4.0887,-4.0418,-4.0418,-4.0246,-3.9724,-3.8765,-3.816,-3.7717,-3.7546,-3.6722,-3.6358,-3.6358,-3.6358,-3.6358,-3.6358,-3.6358,-3.6358,-3.6358,-3.6358,-3.6358,-3.6358,-4.8001,-4.8001,-4.8001,-4.8001,-4.8001,-4.8001,-4.8001,-4.8001,-4.8001,-4.8001,-4.8001,-4.8001,-4.8001,-4.8001,-4.8001,-4.8001,-4.8001,-4.8001,-4.8001,-4.8001,-4.8001,-4.8001,-4.8001,-4.8001,-4.8001,-4.7638,-4.7337,-4.6981,-4.5316,-4.451,-4.451,-4.3708,-4.3329,-4.3329,-4.3329,-4.3329,-4.325,-4.325,-4.3155,-4.3155,-4.2915,-4.2835,-4.285,-4.2607,-4.1887,-4.0885,-3.9935,-3.9,-3.8202,-3.8202,-3.8202,-3.8202,-3.8202,-3.8202,-3.8202,-3.8202,-3.8202,-3.8202,-3.8202,-3.8202,-3.8362,-3.903,-3.945,-3.9944,-4.0887,-4.1381,-4.1744,-4.2034,-4.2092,-4.2092,-4.2092,-4.2092,-4.2092,-4.2092,-4.2092,-4.2092,-4.2092,-4.2092,-4.2092,-4.2092,-4.2092,-4.2092,-4.2092,-4.2092,-4.2092,-4.2092,-4.2092,-4.2092,-4.2092,-4.2092,-4.2092,-4.2092,-4.2092,-4.2092,-4.2092,-4.1633,-4.1437,-4.1437,-4.1437,-4.0631,-3.921,-3.9285,-3.9121,-3.8509,-3.7625,-3.7176,-3.7176,-3.664,-3.6358,-3.6358,-3.6358,-3.6358,-3.6358,-3.6358,-3.6358,-3.6358]},{"header":{"parameterUnit":"m.s-1","parameterCategory":1,"la1":30.6,"la2":28.766,"lo1":-90.7593,"lo2":-88.6598,"dy":0.0162,"dx":0.0183,"nx":116,"ny":114,"refTime":"2023-07-17T12:00:00:Z","depth":0,"parameterNumber":3,"parameterNumberName":"V-component_of_WINDS"},"data":[0.0,0.0,0.0,0.0,0.0,0.0,0.0,0.0,0.0,0.0,0.0,0.0,0.0,0.0,0.0,0.0,0.0,0.0,0.0,0.0,0.0,0.0,0.0,0.0,0.0,0.0,0.0,0.0,0.0,0.0,0.0,0.0,0.0,0.0,0.0,0.0,0.0,0.0,0.0,0.0,0.0,0.0,0.0,0.0,0.0,0.0,0.0,0.0,0.0,0.0,0.0,0.0,0.0,0.0,0.0,0.0,0.0,0.0,0.0,0.0,0.0,0.0,0.0,0.0,0.0,0.0,0.0,0.0,0.0,0.0,0.0,0.0,0.0,0.0,0.0,0.0,0.0,0.0,0.0,0.0,0.0,0.0,0.0,0.0,0.0,0.0,0.0,0.0,0.0,0.0,0.0,0.0,0.0,0.0,0.0,0.0,0.0,0.0,0.0,0.0,0.0,0.0,0.0,0.0,0.0,0.0,0.0,0.0,0.0,0.0,0.0,0.0,0.0,0.0,0.0,0.0,0.0,0.0,0.0,0.0,0.0,0.0,0.0,0.0,0.0,0.0,0.0,0.0,0.0,0.0,0.0,0.0,0.0,0.0,0.0,0.0,0.0,0.0,0.0,0.0,0.0,0.0,0.0,0.0,0.0,0.0,0.0,0.0,0.0,0.0,0.0,0.0,0.0,0.0,0.0,0.0,0.0,0.0,0.0,0.0,0.0,0.0,0.0,0.0,0.0,0.0,0.0,0.0,0.0,0.0,0.0,0.0,0.0,0.0,0.0,0.0,0.0,0.0,0.0,0.0,0.0,0.0,0.0,0.0,0.0,0.0,0.0,0.0,0.0,0.0,0.0,0.0,0.0,0.0,0.0,0.0,0.0,0.0,0.0,0.0,0.0,0.0,0.0,0.0,0.0,0.0,0.0,0.0,0.0,0.0,0.0,0.0,0.0,0.0,0.0,0.0,0.0,0.0,0.0,0.0,0.0,0.0,0.0,0.0,0.0,0.0,0.0,0.0,0.0,0.0,0.0,0.0,0.0,0.0,0.0,0.0,0.0,0.0,0.0,0.0,0.0,0.0,0.0,0.0,0.0,0.0,0.0,0.0,0.0,0.0,0.0,0.0,0.0,0.0,0.0,0.0,0.0,0.0,0.0,0.0,0.0,0.0,0.0,0.0,0.0,0.0,0.0,0.0,0.0,0.0,0.0,0.0,0.0,0.0,0.0,0.0,0.0,0.0,0.0,0.0,0.0,0.0,0.0,0.0,0.0,0.0,0.0,0.0,0.0,0.0,0.0,0.0,0.0,0.0,0.0,0.0,0.0,0.0,0.0,0.0,0.0,0.0,0.0,0.0,0.0,0.0,0.0,0.0,0.0,0.0,0.0,0.0,0.0,0.0,0.0,0.0,0.0,0.0,0.0,0.0,0.0,0.0,0.0,0.0,0.0,0.0,0.0,0.0,0.0,0.0,0.0,0.0,0.0,0.0,0.0,0.0,0.0,0.0,0.0,0.0,0.0,0.0,0.0,0.0,0.0,0.0,0.0,0.0,0.0,0.0,0.0,0.0,0.0,0.0,0.0,0.0,0.0,0.0,0.0,0.0,0.0,0.0,0.0,0.0,0.0,0.0,0.0,0.0,0.0,0.0,0.0,0.0,0.0,0.0,0.0,0.0,0.0,0.0,0.0,0.0,0.0,0.0,0.0,0.0,0.0,0.0,0.0,0.0,0.0,0.0,0.0,0.0,0.0,0.0,0.0,0.0,0.0,0.0,0.0,0.0,0.0,0.0,0.0,0.0,0.0,0.0,0.0,0.0,0.0,0.0,0.0,0.0,0.0,0.0,0.0,0.0,0.0,0.0,0.0,0.0,0.0,0.0,0.0,0.0,0.0,0.0,0.0,0.0,0.0,0.0,0.0,0.0,0.0,0.0,0.0,0.0,0.0,0.0,0.0,0.0,0.0,0.0,0.0,0.0,0.0,0.0,0.0,0.0,0.0,0.0,0.0,0.0,0.0,0.0,0.0,0.0,0.0,0.0,0.0,0.0,0.0,0.0,0.0,0.0,0.0,0.0,0.0,0.0,0.0,0.0,0.0,0.0,0.0,0.0,0.0,0.0,0.0,0.0,0.0,0.0,0.0,0.0,0.0,0.0,0.0,0.0,0.0,0.0,0.0,0.0,0.0,0.0,0.0,0.0,0.0,0.0,0.0,0.0,0.0,0.0,0.0,0.0,0.0,0.0,0.0,0.0,0.0,0.0,0.0,0.0,0.0,0.0,0.0,0.0,0.0,0.0,0.0,0.0,0.0,0.0,0.0,0.0,0.0,0.0,0.0,0.0,0.0,0.0,0.0,0.0,0.0,0.0,0.0,0.0,0.0,0.0,0.0,0.0,0.0,0.0,0.0,0.0,0.0,0.0,0.0,0.0,0.0,0.0,0.0,0.0,0.0,0.0,0.0,0.0,0.0,0.0,0.0,0.0,0.0,0.0,0.0,0.0,0.0,0.0,0.0,0.0,0.0,0.0,0.0,0.0,0.0,0.0,0.0,0.0,0.0,0.0,0.0,0.0,0.0,0.0,0.0,0.0,0.0,0.0,0.0,0.0,0.0,0.0,0.0,0.0,0.0,0.0,0.0,0.0,0.0,0.0,0.0,0.0,0.0,0.0,0.0,0.0,0.0,0.0,0.0,0.0,0.0,0.0,0.0,0.0,0.0,0.0,0.0,0.0,0.0,0.0,0.0,0.0,0.0,0.0,0.0,0.0,0.0,0.0,0.0,0.0,0.0,0.0,0.0,0.0,0.0,0.0,0.0,0.0,0.0,0.0,0.0,0.0,0.0,0.0,0.0,0.0,0.0,0.0,0.0,0.0,0.0,0.0,0.0,0.0,0.0,0.0,0.0,0.0,0.0,0.0,0.0,0.0,0.0,0.0,0.0,0.0,0.0,0.0,0.0,0.0,0.0,0.0,0.0,0.0,0.0,0.0,0.0,0.0,0.0,0.0,0.0,0.0,0.0,0.0,0.0,0.0,0.0,0.0,0.0,0.0,0.0,0.0,0.0,0.0,0.0,0.0,0.0,0.0,0.0,0.0,0.0,0.0,0.0,0.0,0.0,0.0,0.0,0.0,0.0,0.0,0.0,0.0,0.0,0.0,0.0,0.0,0.0,0.0,0.0,0.0,0.0,0.0,0.0,0.0,0.0,0.0,0.0,0.0,0.0,0.0,0.0,0.0,0.0,0.0,0.0,0.0,0.0,0.0,0.0,0.0,0.0,0.0,0.0,0.0,0.0,0.0,0.0,0.0,0.0,0.0,0.0,0.0,0.0,0.0,0.0,0.0,0.0,0.0,0.0,0.0,0.0,0.0,0.0,0.0,0.0,0.0,0.0,0.0,0.0,0.0,0.0,0.0,0.0,0.0,0.0,0.0,0.0,0.0,0.0,0.0,0.0,0.0,0.0,0.0,0.0,0.0,0.0,0.0,0.0,0.0,0.0,0.0,0.0,0.0,0.0,0.0,0.0,0.0,0.0,0.0,0.0,0.0,0.0,0.0,0.0,0.0,0.0,0.0,0.0,0.0,0.0,0.0,0.0,0.0,0.0,0.0,0.0,0.0,0.0,0.0,0.0,0.0,0.0,0.0,0.0,0.0,0.0,0.0,0.0,0.0,0.0,0.0,0.0,0.0,0.0,0.0,0.0,0.0,0.0,0.0,0.0,0.0,0.0,0.0,0.0,0.0,0.0,0.0,0.0,0.0,0.0,0.0,0.0,0.0,0.0,0.0,0.0,0.0,0.0,0.0,0.0,0.0,0.0,0.0,0.0,0.0,0.0,0.0,0.0,0.0,0.0,0.0,0.0,0.0,0.0,0.0,0.0,0.0,0.0,0.0,0.0,0.0,0.0,0.0,0.0,0.0,0.0,0.0,0.0,0.0,0.0,0.0,0.0,0.0,0.0,0.0,0.0,0.0,0.0,0.0,0.0,0.0,0.0,0.0,0.0,0.0,0.0,0.0,0.0,0.0,0.0,0.0,0.0,0.0,0.0,0.0,0.0,0.0,0.0,0.0,0.0,0.0,0.0,0.0,0.0,0.0,0.0,0.0,0.0,0.0,0.0,0.0,0.0,0.0,0.0,0.0,0.0,0.0,0.0,0.0,0.0,0.0,0.0,0.0,0.0,0.0,0.0,0.0,0.0,0.0,0.0,0.0,0.0,0.0,0.0,0.0,0.0,0.0,0.0,0.0,0.0,0.0,0.0,0.0,0.0,0.0,0.0,0.0,0.0,0.0,0.0,0.0,0.0,0.0,0.0,0.0,0.0,0.0,0.0,0.0,0.0,0.0,0.0,0.0,0.0,0.0,0.0,0.0,0.0,0.0,0.0,0.0,0.0,0.0,0.0,0.0,0.0,0.0,0.0,0.0,0.0,0.0,0.0,0.0,0.0,0.0,0.0,0.0,0.0,0.0,0.0,0.0,0.0,0.0,0.0,0.0,0.0,0.0,0.0,0.0,0.0,0.0,0.0,0.0,0.0,0.0,0.0,0.0,0.0,0.0,0.0,0.0,0.0,0.0,0.0,0.0,0.0,0.0,0.0,0.0,0.0,0.0,0.0,0.0,0.0,0.0,0.0,0.0,0.0,0.0,0.0,0.0,0.0,0.0,0.0,0.0,0.0,0.0,0.0,0.0,0.0,0.0,0.0,0.0,0.0,0.0,0.0,0.0,0.0,0.0,0.0,0.0,0.0,0.0,0.0,0.0,0.0,0.0,0.0,0.0,0.0,0.0,0.0,0.0,0.0,0.0,0.0,0.0,0.0,0.0,0.0,0.0,0.0,0.0,0.0,0.0,0.0,0.0,0.0,0.0,0.0,0.0,0.0,0.0,0.0,0.0,0.0,0.0,0.0,0.0,0.0,0.0,0.0,0.0,0.0,0.0,0.0,0.0,0.0,0.0,0.0,0.0,0.0,0.0,0.0,0.0,0.0,0.0,0.0,0.0,0.0,0.0,0.0,0.0,0.0,0.0,0.0,0.0,0.0,0.0,0.0,0.0,0.0,0.0,0.0,0.0,0.0,0.0,0.0,0.0,0.0,0.0,0.0,0.0,0.0,0.0,0.0,0.0,0.0,0.0,0.0,0.0,0.0,0.0,0.0,0.0,0.0,0.0,0.0,0.0,0.0,0.0,0.0,0.0,0.0,0.0,0.0,0.0,0.0,0.0,0.0,0.0,0.0,0.0,0.0,0.0,0.0,0.0,0.0,0.0,0.0,0.0,0.0,0.0,0.0,0.0,0.0,0.0,0.0,0.0,0.0,0.0,0.0,0.0,0.0,0.0,0.0,0.0,0.0,0.0,0.0,0.0,0.0,0.0,0.0,0.0,0.0,0.0,0.0,0.0,0.0,0.0,0.0,0.0,0.0,0.0,0.0,0.0,0.0,0.0,0.0,0.0,0.0,0.0,0.0,0.0,0.0,0.0,0.0,0.0,0.0,0.0,0.0,0.0,0.0,0.0,0.0,0.0,0.0,0.0,0.0,0.0,0.0,0.0,0.0,0.0,0.0,0.0,0.0,0.0,0.0,0.0,0.0,0.0,0.0,0.0,0.0,0.0,0.0,0.0,0.0,0.0,0.0,0.0,0.0,0.0,0.0,0.0,0.0,0.0,0.0,0.0,0.0,0.0,0.0,0.0,0.0,0.0,0.0,0.0,0.0,0.0,0.0,0.0,0.0,0.0,0.0,0.0,0.0,0.0,0.0,0.0,0.0,0.0,0.0,0.0,0.0,0.0,0.0,0.0,0.0,0.0,0.0,0.0,0.0,0.0,0.0,0.0,0.0,0.0,0.0,0.0,0.0,0.0,0.0,0.0,0.0,0.0,0.0,0.0,0.0,0.0,0.0,0.0,0.0,0.0,0.0,0.0,0.0,0.0,0.0,0.0,0.0,0.0,0.0,0.0,0.0,0.0,0.0,0.0,0.0,0.0,0.0,0.0,0.0,0.0,0.0,0.0,0.0,0.0,0.0,0.0,0.0,0.0,0.0,0.0,0.0,0.0,0.0,0.0,0.0,0.0,0.0,0.0,0.0,0.0,0.0,0.0,0.0,0.0,0.0,0.0,0.0,0.0,-2.8032,0.0,0.0,0.0,0.0,0.0,0.0,0.0,0.0,0.0,0.0,0.0,0.0,0.0,0.0,0.0,0.0,0.0,0.0,0.0,0.0,0.0,0.0,0.0,0.0,0.0,0.0,0.0,0.0,0.0,0.0,0.0,0.0,0.0,0.0,0.0,0.0,0.0,0.0,0.0,0.0,0.0,0.0,0.0,0.0,0.0,0.0,0.0,0.0,0.0,0.0,0.0,0.0,0.0,0.0,0.0,0.0,0.0,0.0,0.0,0.0,0.0,0.0,0.0,0.0,0.0,0.0,0.0,0.0,0.0,0.0,0.0,0.0,0.0,0.0,0.0,0.0,0.0,0.0,0.0,0.0,0.0,0.0,0.0,0.0,0.0,0.0,0.0,0.0,0.0,0.0,0.0,0.0,0.0,0.0,0.0,0.0,0.0,0.0,0.0,0.0,0.0,0.0,0.0,0.0,0.0,0.0,0.0,0.0,0.0,0.0,0.0,0.0,0.0,0.0,0.0,0.0,-2.8172,0.0,0.0,0.0,0.0,0.0,0.0,0.0,0.0,0.0,0.0,0.0,0.0,0.0,0.0,0.0,0.0,0.0,0.0,0.0,0.0,0.0,0.0,0.0,0.0,0.0,0.0,0.0,0.0,0.0,0.0,0.0,0.0,0.0,0.0,0.0,0.0,0.0,0.0,0.0,0.0,0.0,0.0,0.0,0.0,0.0,0.0,0.0,0.0,0.0,0.0,0.0,0.0,0.0,0.0,0.0,0.0,0.0,0.0,0.0,0.0,0.0,0.0,0.0,0.0,0.0,0.0,0.0,0.0,0.0,0.0,0.0,0.0,0.0,0.0,0.0,0.0,0.0,0.0,0.0,0.0,0.0,0.0,0.0,0.0,0.0,0.0,0.0,0.0,0.0,0.0,0.0,0.0,0.0,0.0,0.0,0.0,0.0,0.0,0.0,0.0,0.0,0.0,0.0,0.0,0.0,0.0,0.0,0.0,-2.6934,-2.7041,-2.7156,-2.7615,-2.7819,-2.7831,-2.7921,-2.8386,-2.8997,-2.8963,0.0,0.0,0.0,0.0,0.0,0.0,0.0,0.0,0.0,0.0,0.0,0.0,0.0,0.0,0.0,0.0,0.0,0.0,0.0,0.0,0.0,0.0,0.0,0.0,0.0,0.0,0.0,0.0,0.0,0.0,0.0,0.0,0.0,0.0,0.0,0.0,0.0,0.0,-2.9984,-2.9425,-2.8967,-2.8685,0.0,0.0,0.0,0.0,0.0,0.0,0.0,0.0,0.0,0.0,0.0,0.0,0.0,0.0,0.0,0.0,0.0,0.0,0.0,0.0,0.0,0.0,0.0,0.0,0.0,0.0,0.0,0.0,0.0,0.0,0.0,0.0,0.0,0.0,0.0,0.0,0.0,0.0,0.0,0.0,0.0,0.0,0.0,0.0,-2.4099,-2.4679,0.0,0.0,0.0,0.0,0.0,0.0,0.0,0.0,0.0,0.0,0.0,0.0,0.0,-2.5518,-2.6089,-2.6857,-2.752,-2.8092,-2.8092,-2.8352,-2.8763,-2.8308,-2.8069,-2.8094,-2.8573,0.0,-2.9691,-3.0108,0.0,0.0,0.0,0.0,0.0,0.0,0.0,0.0,0.0,0.0,0.0,0.0,0.0,0.0,0.0,0.0,0.0,0.0,0.0,0.0,0.0,0.0,0.0,0.0,0.0,0.0,0.0,0.0,0.0,0.0,0.0,0.0,0.0,0.0,0.0,0.0,-3.0925,-3.0759,-3.057,-3.0167,-2.9927,-2.9853,-2.9589,-2.8924,-2.8024,-2.7897,0.0,0.0,0.0,0.0,0.0,0.0,0.0,0.0,0.0,0.0,0.0,0.0,0.0,0.0,0.0,0.0,0.0,0.0,0.0,0.0,0.0,0.0,0.0,0.0,0.0,0.0,0.0,0.0,0.0,0.0,0.0,0.0,0.0,0.0,0.0,0.0,0.0,0.0,0.0,-2.48,-2.5024,-2.4833,-2.5023,-2.4939,0.0,0.0,0.0,0.0,0.0,0.0,0.0,0.0,0.0,-2.5404,-2.5927,-2.6587,-2.7309,-2.817,-2.8919,-2.9508,-2.9508,-2.9379,-2.9222,-2.9202,-2.9004,-2.8599,-2.9164,-2.9768,-3.0395,-3.0154,-3.0209,-3.0397,0.0,0.0,0.0,0.0,-3.3659,-3.4356,0.0,0.0,0.0,0.0,0.0,0.0,0.0,0.0,0.0,0.0,0.0,0.0,0.0,0.0,0.0,-3.1603,0.0,0.0,0.0,0.0,0.0,0.0,0.0,0.0,0.0,0.0,0.0,0.0,-3.1788,-3.1724,-3.1499,-3.1075,-3.0895,-3.0892,-3.0567,-2.9705,-2.8485,-2.8882,-2.8643,0.0,0.0,0.0,0.0,0.0,0.0,0.0,0.0,0.0,0.0,0.0,0.0,0.0,0.0,0.0,0.0,0.0,0.0,0.0,0.0,0.0,0.0,0.0,0.0,0.0,0.0,0.0,0.0,0.0,0.0,0.0,0.0,0.0,0.0,0.0,0.0,0.0,0.0,-2.6018,-2.6129,-2.555,-2.6272,-2.6286,0.0,0.0,0.0,0.0,0.0,0.0,-2.5462,-2.5496,-2.5587,-2.5729,-2.6544,-2.7436,-2.8347,-2.9037,-2.9808,-3.0609,-3.0609,-3.0414,-3.0024,-3.0461,-3.0147,-2.9441,-2.9885,-3.0279,-3.0545,-2.9998,-2.9998,-3.0292,-3.0075,-3.0812,-3.1951,-3.255,-3.3508,-3.4505,0.0,0.0,0.0,0.0,0.0,0.0,0.0,0.0,0.0,0.0,0.0,0.0,0.0,0.0,-3.1603,-3.1435,-3.1397,-3.1355,0.0,0.0,0.0,0.0,0.0,0.0,0.0,0.0,0.0,-3.2732,-3.3097,-3.3102,-3.2779,-3.1945,-3.1405,-3.1176,-3.0654,-3.033,-3.0268,-2.9917,-2.972,-2.9612,0.0,0.0,0.0,0.0,0.0,0.0,0.0,0.0,0.0,0.0,0.0,0.0,0.0,0.0,0.0,0.0,0.0,0.0,0.0,0.0,0.0,0.0,0.0,0.0,0.0,0.0,0.0,0.0,0.0,0.0,0.0,0.0,0.0,0.0,0.0,0.0,0.0,0.0,0.0,-2.748,-2.7094,0.0,0.0,0.0,0.0,-2.6289,-2.5673,-2.5276,-2.5334,-2.5769,-2.6057,-2.6057,-2.6772,-2.7631,-2.8672,-2.8873,-2.9786,-3.1221,-3.1221,-3.152,-3.1992,-3.2019,-3.1596,-3.0781,-3.0807,-3.0482,-2.9856,-2.9792,-3.0203,-3.0833,-3.0075,-3.1046,-3.2915,-3.2989,-3.4332,-3.6214,0.0,0.0,0.0,0.0,0.0,0.0,0.0,0.0,0.0,0.0,0.0,0.0,0.0,-3.1674,-3.1821,-3.1985,-3.1967,-3.1913,-3.1783,0.0,0.0,0.0,0.0,0.0,0.0,0.0,-3.3343,-3.3368,-3.3624,-3.3651,-3.3539,-3.3222,-3.2886,-3.2471,-3.228,-3.2033,-3.1659,-3.1052,-3.0654,-3.0373,-3.0514,-3.022,0.0,0.0,0.0,0.0,0.0,0.0,0.0,0.0,0.0,0.0,0.0,0.0,0.0,0.0,0.0,0.0,0.0,0.0,0.0,0.0,0.0,0.0,0.0,0.0,0.0,0.0,0.0,0.0,0.0,0.0,0.0,0.0,0.0,0.0,0.0,0.0,0.0,-2.7626,-2.8157,0.0,-2.7564,-2.7102,-2.7018,-2.7584,-2.6507,-2.6178,-2.6954,-2.6736,-2.6635,-2.6635,-2.7434,-2.8489,-2.9804,-3.0445,-3.1528,-3.3071,-3.3071,-3.3031,-3.2791,-3.2791,-3.2349,-3.1723,-3.2098,-3.1761,-3.1048,-3.1513,-3.1305,-3.0751,-3.1048,-3.2143,-3.3642,-3.4228,-3.5206,-3.6301,0.0,0.0,0.0,0.0,0.0,0.0,0.0,0.0,0.0,0.0,0.0,-3.1257,-3.1733,-3.1894,-3.2055,-3.2283,-3.2249,-3.2161,-3.2001,0.0,0.0,0.0,0.0,0.0,0.0,-3.3842,-3.402,-3.4096,-3.4411,-3.4516,-3.4488,-3.4289,-3.3956,-3.3459,-3.3287,-3.2895,-3.2312,-3.1866,-3.1518,-3.1233,-3.1501,-3.1146,-3.0433,0.0,0.0,0.0,0.0,0.0,0.0,0.0,0.0,0.0,0.0,0.0,0.0,0.0,0.0,0.0,0.0,0.0,0.0,0.0,0.0,0.0,0.0,0.0,0.0,0.0,0.0,0.0,0.0,0.0,0.0,0.0,0.0,0.0,0.0,0.0,-2.8692,-2.7946,-2.8852,-2.9182,-2.8239,-2.7874,-2.7941,-2.8525,-2.722,-2.6748,-2.7545,-2.7318,-2.72,-2.72,-2.8098,-2.9189,-3.052,-3.1602,-3.264,-3.3702,-3.4101,-3.3945,-3.3256,-3.3329,-3.2965,-3.234,-3.303,-3.2814,-3.2071,-3.2855,-3.2686,-3.2057,-3.2163,-3.2957,-3.4331,-3.518,-3.608,-3.6939,0.0,0.0,0.0,0.0,0.0,0.0,0.0,0.0,0.0,0.0,0.0,-3.1696,-3.2488,-3.2386,-3.2283,-3.2283,-3.2179,-3.2001,-3.18,-3.18,0.0,0.0,0.0,0.0,-3.3007,-3.5081,-3.5745,-3.4916,-3.5504,-3.5728,-3.5577,-3.5068,-3.4529,-3.3986,-3.3459,-3.2841,-3.2191,-3.2191,-3.2191,-3.2135,-3.1667,-3.119,-3.0718,0.0,0.0,0.0,0.0,0.0,0.0,0.0,0.0,0.0,0.0,0.0,0.0,0.0,0.0,0.0,0.0,0.0,0.0,0.0,0.0,0.0,0.0,0.0,0.0,0.0,0.0,0.0,0.0,0.0,0.0,0.0,0.0,0.0,-2.9715,-2.9659,-2.938,-2.8624,-2.9023,-2.9388,-2.9522,-2.8646,-2.8363,-2.9164,-2.7828,-2.6995,-2.7031,-2.7512,-2.7789,-2.7789,-2.8787,-2.9861,-3.0849,-3.2228,-3.2974,-3.3052,-3.4169,-3.4259,-3.348,-3.3698,-3.3403,-3.2712,-3.3598,-3.3534,-3.2896,-3.3752,-3.4399,-3.4706,-3.3357,-3.3634,-3.4995,-3.5885,-3.7039,-3.8337,0.0,0.0,0.0,0.0,0.0,0.0,0.0,0.0,0.0,0.0,-3.1021,-3.1274,-3.1746,-3.1893,-3.1929,-3.1929,-3.1893,-3.1873,-3.18,0.0,0.0,0.0,0.0,0.0,-3.4404,-3.4998,-3.5411,-3.5555,-3.5715,-3.5728,-3.5622,-3.5424,-3.488,-3.3986,-3.3869,-3.3266,-3.2342,-3.2247,-3.2135,-3.1981,-3.1422,-3.0866,-3.0404,0.0,0.0,0.0,0.0,0.0,0.0,0.0,0.0,0.0,0.0,0.0,0.0,0.0,0.0,0.0,0.0,0.0,0.0,0.0,0.0,0.0,0.0,0.0,0.0,0.0,0.0,0.0,0.0,0.0,0.0,0.0,0.0,-3.1007,-3.0361,-3.067,-3.0689,-2.9916,-2.993,-3.0038,-3.0106,-2.9315,-2.932,-3.0285,-2.9467,-2.9008,-2.9172,-2.9364,-2.9436,-2.9436,-2.9725,-3.0565,-3.2123,-3.2515,-3.3389,-3.4724,-3.5064,-3.5138,-3.505,-3.5124,-3.511,-3.5124,-3.5826,-3.5784,-3.5176,-3.5836,-3.5802,-3.5396,-3.5214,-3.5662,-3.6437,-3.731,-3.8237,-3.9175,0.0,0.0,0.0,0.0,0.0,0.0,0.0,0.0,0.0,0.0,-3.0855,-3.1134,-3.1504,-3.1709,-3.1819,-3.1946,-3.1873,-3.18,-3.18,0.0,0.0,0.0,0.0,-3.4226,-3.4981,-3.5282,-3.5531,-3.5817,-3.5711,-3.5684,-3.5577,-3.5379,-3.4816,-3.3986,-3.3767,-3.3108,-3.2247,-3.215,-3.1981,-3.1754,-3.1058,-3.0555,-3.0133,-2.9718,-2.9184,-2.8587,-2.8587,-2.8522,-2.8406,-2.8522,0.0,0.0,0.0,0.0,0.0,0.0,0.0,0.0,0.0,0.0,0.0,0.0,0.0,0.0,0.0,0.0,0.0,0.0,0.0,0.0,0.0,0.0,0.0,0.0,-3.171,-3.1738,-3.1359,-3.1415,-3.1352,-3.0855,-3.0923,-3.1167,-3.1529,-3.1015,-3.1132,-3.2031,-3.1087,-3.0511,-3.0597,-3.0325,-3.0241,-3.0633,-3.0854,-3.1605,-3.2947,-3.3595,-3.4283,-3.4936,-3.544,-3.553,-3.5286,-3.5363,-3.5502,-3.5579,-3.6352,-3.6493,-3.6277,-3.7042,-3.7092,0.0,0.0,0.0,0.0,0.0,-3.9103,-3.9929,0.0,0.0,0.0,0.0,0.0,0.0,0.0,0.0,0.0,0.0,0.0,-3.1117,-3.1507,-3.1691,-3.1873,-3.2037,-3.1893,-3.18,0.0,0.0,0.0,-3.2865,-3.4243,-3.5012,-3.4998,-3.5626,-3.5932,-3.5817,-3.5667,-3.5577,-3.5515,-3.5021,-3.448,-3.3869,-3.3407,-3.2734,-3.2053,-3.1996,-3.1826,-3.1467,-3.0837,-3.0329,-2.995,-2.9889,-2.9296,-2.8457,-2.8457,-2.8262,-2.8079,-2.8392,0.0,0.0,0.0,0.0,0.0,0.0,0.0,0.0,0.0,0.0,0.0,0.0,0.0,0.0,0.0,0.0,0.0,0.0,0.0,0.0,0.0,0.0,0.0,0.0,-3.2216,-3.2609,-3.254,-3.2202,-3.1878,-3.166,-3.1981,-3.2523,-3.3296,-3.3041,-3.3209,-3.3987,-3.2632,-3.1775,-3.1757,0.0,0.0,0.0,0.0,-3.2823,-3.371,-3.5063,-3.5318,-3.4637,-3.5602,-3.5696,-3.4964,-3.5114,-3.5277,-3.5277,-3.607,-3.6545,-3.678,-3.7534,-3.7991,-3.8052,-3.7323,-3.7092,-3.7372,-3.8855,-3.9859,-4.0622,0.0,0.0,0.0,0.0,0.0,0.0,0.0,0.0,0.0,-3.0326,-3.0642,-3.0965,-3.1334,-3.1617,-3.1837,-3.1856,-3.1837,-3.1746,0.0,0.0,-3.2207,-3.2615,-3.3642,-3.4397,-3.4907,-3.5513,-3.5817,-3.5817,-3.5667,-3.5379,-3.4975,-3.4833,-3.4268,-3.3339,-3.3251,-3.2788,-3.2135,-3.2053,-3.1883,-3.1727,-3.1409,-3.0644,-2.9518,-2.903,-2.8352,-2.7723,-2.7723,-2.7669,-2.7603,-2.7669,-2.7108,-2.6346,-2.6195,0.0,0.0,0.0,0.0,0.0,0.0,0.0,0.0,0.0,0.0,0.0,0.0,0.0,0.0,0.0,0.0,0.0,0.0,0.0,0.0,-3.296,-3.348,-3.3744,-3.3442,-3.3994,-3.4022,-3.2814,-3.288,-3.3261,-3.3793,-3.3463,-3.3552,-3.4465,-3.4243,-3.3966,-3.3788,-3.3566,-3.3566,-3.3731,-3.3835,-3.4314,-3.5238,-3.5521,-3.599,-3.648,0.0,0.0,-3.6573,-3.6587,-3.673,-3.69,-3.7056,-3.7211,-3.7443,-3.7625,-3.7687,-3.7763,-3.7901,-3.8308,-3.8942,-3.9859,-4.0622,-4.1393,0.0,0.0,0.0,0.0,0.0,0.0,0.0,0.0,0.0,0.0,-3.0351,-3.0625,-3.0788,-3.1083,-3.1372,-3.1542,-3.1634,0.0,0.0,-3.1634,-3.2111,-3.3123,-3.3573,-3.4309,-3.5326,-3.5374,-3.5515,-3.5711,-3.5085,-3.4769,-3.4785,-3.4268,-3.37,-3.3198,-3.2949,-3.2547,-3.2094,-3.2053,-3.1883,-3.167,-3.1539,-3.0896,-2.995,-2.9268,-2.8597,-2.7973,-2.759,-2.7523,-2.7523,-2.7523,-2.7108,-2.662,-2.6358,-2.5734,-2.5218,0.0,0.0,0.0,0.0,0.0,0.0,0.0,0.0,0.0,0.0,0.0,0.0,0.0,0.0,-3.205,0.0,0.0,-3.3489,-3.3475,-3.3991,-3.4247,-3.4098,-3.4999,-3.5139,-3.3902,-3.4153,-3.4521,-3.4982,-3.4963,-3.5094,-3.5825,-3.5719,-3.5602,-3.5488,-3.5363,-3.5437,-3.5845,-3.5929,-3.6372,-3.7247,-3.7328,-3.7504,-3.792,-3.792,-3.792,-3.792,-3.792,-3.8014,-3.8093,-3.8093,-3.8173,-3.841,-3.8489,-3.8537,-3.8543,-3.8681,-3.8973,-3.9305,-4.0293,-4.1044,-4.1607,0.0,0.0,0.0,0.0,0.0,0.0,0.0,0.0,0.0,0.0,0.0,-3.0293,-3.0293,-3.0543,-3.0845,0.0,0.0,0.0,0.0,-3.1274,-3.1885,-3.3349,-3.3413,-3.4084,-3.5518,-3.5048,-3.5021,-3.5424,-3.448,-3.4185,-3.4464,-3.3598,-3.313,-3.3039,-3.2586,-3.2247,-3.1996,-3.1996,-3.1826,-3.1482,-3.1482,-3.1161,-3.0584,-2.9827,-2.9079,-2.8417,-2.7723,-2.7523,-2.7523,-2.7523,-2.739,-2.7108,-2.6714,-2.6082,-2.5691,-2.6369,-2.6528,0.0,0.0,0.0,0.0,0.0,0.0,0.0,0.0,0.0,-3.1198,-3.185,-3.2077,-3.2304,-3.2654,-3.3248,-3.3661,-3.3647,-3.4156,-3.4492,-3.4416,-3.5398,-3.5878,-3.5044,-3.5242,-3.5751,-3.6416,-3.6425,-3.6678,-3.7344,-3.7137,-3.7071,-3.7071,-3.6838,-3.7008,-3.7783,-3.7783,-3.8145,-3.8861,-3.8861,-3.8861,-3.8861,-3.8861,-3.8861,-3.8861,-3.8861,-3.8861,-3.8861,-3.8861,-3.8957,-3.912,-3.9282,-3.9449,-3.9503,-3.958,-3.9668,-3.9706,-4.0608,-4.1127,-4.1607,0.0,0.0,0.0,0.0,0.0,0.0,0.0,0.0,0.0,0.0,0.0,0.0,0.0,0.0,0.0,0.0,0.0,0.0,0.0,-3.0444,-3.0933,-3.2398,-3.2326,-3.3011,-3.4607,-3.4296,-3.4382,-3.488,-3.4284,-3.3767,-3.3391,-3.3251,-3.2949,-3.2492,-3.2453,-3.2247,-3.1996,-3.1996,-3.1826,-3.1482,-3.1482,-3.1467,-3.1219,-2.995,-2.9079,-2.8417,-2.7723,-2.7523,-2.7523,-2.7523,-2.6905,-2.607,-2.6,-2.5241,-2.4571,-2.5597,0.0,-2.6164,-2.7188,-2.8362,-2.9461,-3.0511,-3.0843,-3.0895,0.0,0.0,-3.1123,-3.1556,-3.2043,-3.2479,-3.2915,-3.343,-3.3851,-3.3837,-3.4339,-3.4641,-3.4232,-3.5407,-3.638,-3.6334,-3.5981,-3.6221,-3.7559,-3.7028,-3.714,-3.8608,-3.8625,-3.8667,-3.8667,-3.8641,-3.8601,-3.8779,-3.8765,-3.8779,-3.8861,-3.8861,-3.8861,-3.8861,-3.8861,-3.8861,-3.8861,-3.8861,-3.8861,-3.8861,-3.8861,-3.8943,-3.8943,-3.8957,-3.9278,-3.9816,-4.0378,-4.1069,-4.1733,-4.0839,-4.0956,-4.1573,0.0,0.0,0.0,0.0,0.0,0.0,0.0,0.0,0.0,0.0,0.0,0.0,0.0,0.0,0.0,0.0,0.0,0.0,-3.0175,-3.0021,-3.0391,-3.1434,-3.1802,-3.2504,-3.3614,-3.3548,-3.3818,-3.4333,-3.3459,-3.3108,-3.3182,-3.2895,-3.2586,-3.2287,-3.2287,-3.215,-3.1898,-3.1898,-3.1727,-3.1482,-3.1482,-3.1278,-3.0837,-2.9889,-2.9079,-2.8417,-2.7723,-2.7523,0.0,0.0,-2.6973,-2.6289,-2.6,-2.5528,-2.5318,-2.6036,-2.6491,0.0,-2.851,-2.9277,0.0,0.0,-3.0986,-3.0986,-3.0986,-3.1248,-3.1559,-3.1987,-3.2541,-3.2968,-3.3108,-3.3668,-3.4057,0.0,-3.4805,-3.5183,-3.478,-3.594,-3.6661,-3.6246,-3.627,-3.6752,-3.7909,-3.7191,-3.7216,-3.8311,-3.8769,-3.9145,-3.9395,-3.9746,-3.9929,-3.9929,-3.9929,-3.9929,-3.9929,-3.9929,-3.9929,-3.9929,-3.9929,-3.9929,-3.9929,-3.9929,-3.9929,-3.9929,-3.9929,-4.018,-4.0499,-4.0499,-4.0923,-4.1429,-4.1677,-4.2063,-4.2406,-4.2107,-4.2448,-4.3142,0.0,0.0,0.0,0.0,0.0,0.0,0.0,0.0,0.0,0.0,0.0,0.0,0.0,0.0,0.0,0.0,0.0,0.0,0.0,-2.9512,-2.9769,-3.0567,-3.1003,0.0,-3.2659,-3.2704,-3.3061,-3.3767,-3.2841,-3.2586,-3.2986,-3.2602,-3.2342,-3.2191,-3.2191,-3.2038,-3.1799,-3.1799,-3.167,-3.1482,-3.1482,-3.1219,-3.0703,-2.9827,-2.9205,-2.8661,-2.7776,-2.7523,0.0,0.0,-2.7224,-2.6873,-2.6514,-2.6333,-2.6368,-2.6947,-2.7476,-2.8137,-2.9616,0.0,0.0,-3.0823,-3.0986,-3.1026,-3.1182,-3.1535,-3.1952,-3.2418,-3.2934,-3.3357,-3.3357,-3.3807,-3.4177,-3.4285,-3.4874,-3.529,-3.5133,-3.6169,-3.6727,-3.6476,-3.6804,-3.7383,-3.8133,-3.7655,-3.7641,-3.8558,-3.9335,-3.9939,-4.028,-4.0884,-4.1221,-4.1221,-4.1221,-4.1221,-4.1221,-4.1221,-4.1123,-4.0955,-4.0955,-4.0856,-4.0702,-4.0702,-4.0702,-4.0702,-4.0702,-4.0944,-4.1451,-4.1604,-4.207,-4.2596,-4.2829,-4.3016,-4.314,-4.3402,-4.3584,-4.3759,0.0,0.0,0.0,0.0,0.0,0.0,0.0,0.0,0.0,0.0,0.0,0.0,0.0,0.0,0.0,0.0,0.0,0.0,0.0,-2.87,-2.8858,-2.9782,-2.9611,-3.0253,-3.1915,-3.1601,-3.2027,-3.3235,-3.2695,-3.2398,-3.2437,-3.2398,-3.2342,-3.2191,-3.2191,-3.2038,-3.1799,-3.1799,-3.167,-3.1482,-3.1482,-3.1482,-3.1351,-3.0011,-2.9504,-2.9317,-2.796,0.0,0.0,0.0,-2.755,-2.7583,-2.7513,-2.7548,0.0,-2.8098,-2.8639,0.0,0.0,0.0,-3.019,-3.0823,-3.0986,-3.113,-3.1692,-3.1759,-3.1993,-3.2555,-3.3143,-3.3561,-3.3561,-3.4005,-3.4371,-3.4371,-3.4384,-3.4593,-3.5182,-3.5698,-3.6364,-3.7497,-3.7683,-3.7923,0.0,-3.8445,-3.876,-3.9899,-4.0946,-4.1559,-4.1559,-4.2177,-4.2528,-4.2528,-4.2528,-4.2528,-4.2528,-4.2528,-4.2205,-4.1587,-4.1587,-4.1278,-4.0702,-4.0702,-4.0702,-4.0702,-4.0702,-4.0702,-4.0787,-4.1437,-4.2073,-4.268,-4.3349,-4.3989,-4.451,-4.451,-4.3784,-4.2674,0.0,0.0,0.0,0.0,0.0,0.0,0.0,0.0,0.0,0.0,0.0,0.0,0.0,0.0,0.0,0.0,0.0,0.0,0.0,-2.8493,-2.8541,-2.8842,-2.9239,-2.9654,-3.0237,-3.0603,-3.1164,-3.2027,-3.1828,-3.1951,-3.2398,-3.2398,-3.2342,-3.2206,-3.2094,-3.194,-3.1799,-3.167,-3.1539,-3.1482,-3.1482,-3.1219,-3.0718,-2.9827,-2.9205,-2.8712,0.0,0.0,0.0,0.0,-2.7562,-2.7608,-2.7608,0.0,0.0,-2.8651,-2.8934,-2.9238,0.0,0.0,-3.0292,-3.1291,-3.1548,-3.1705,-3.2267,-3.2712,-3.3051,-3.3247,-3.3731,-3.4123,-3.4123,-3.428,-3.4397,-3.4397,-3.4976,-3.5389,-3.5273,-3.63,-3.7095,-3.7214,-3.7938,0.0,0.0,0.0,0.0,-4.0055,-4.0795,-4.1591,-4.2261,-4.2458,-4.2584,-4.2584,-4.2584,-4.2584,-4.2584,-4.2584,-4.2472,-4.2261,-4.2261,-4.2149,-4.1938,-4.1502,-4.1306,-4.1278,-4.087,-4.0944,-4.1437,-4.2087,-4.2644,-4.3299,-4.402,-4.4419,-4.4572,-4.4572,-4.4295,-4.4059,0.0,0.0,0.0,0.0,0.0,0.0,0.0,0.0,0.0,0.0,0.0,0.0,0.0,0.0,0.0,0.0,0.0,0.0,0.0,0.0,-2.8411,-2.8411,-2.8827,-2.9166,-2.9412,-2.9843,-3.0505,-3.1382,-3.1098,-3.1451,-3.2342,-3.2041,-3.1962,-3.2038,-3.194,-3.1841,-3.167,-3.1539,-3.1482,-3.1467,-3.1219,-3.0896,-3.0389,-2.9518,-2.8903,0.0,0.0,0.0,0.0,0.0,0.0,-2.8209,-2.8209,-2.8677,-2.934,-2.9693,-2.9793,-2.9871,-3.0279,-3.0496,-3.0817,-3.159,-3.1993,-3.2293,-3.2881,-3.3313,-3.3639,-3.3849,-3.4162,-3.4397,-3.4397,-3.4397,-3.4463,-3.4685,-3.5292,-3.5772,-3.5848,-3.6806,-3.7448,-3.7299,-3.8148,-3.871,0.0,0.0,0.0,-4.0158,-4.0962,-4.1674,-4.2334,-4.2725,-4.2942,-4.2942,-4.3139,-4.3231,-4.3231,-4.3231,-4.3118,-4.2907,-4.2683,-4.2584,-4.257,-4.2149,-4.1966,-4.1938,-4.1545,-4.1622,-4.211,-4.269,-4.3241,-4.3643,-4.4358,-4.4572,-4.4572,-4.4572,-4.4572,-4.4723,0.0,0.0,0.0,0.0,0.0,0.0,0.0,0.0,0.0,0.0,0.0,0.0,0.0,0.0,0.0,0.0,0.0,0.0,0.0,0.0,0.0,-2.8411,-2.8411,-2.8704,-2.93,-2.9366,-2.9997,-3.1289,-3.0538,-3.0815,-3.2084,-3.1293,-3.1243,-3.1694,-3.1694,-3.1564,-3.1377,-3.1362,-3.1334,-3.1291,-3.0659,-3.0421,-3.0329,-2.898,0.0,0.0,0.0,0.0,0.0,0.0,0.0,0.0,0.0,-3.0085,-3.0986,-3.0986,-3.0986,-3.0999,-3.1013,-3.1431,-3.1772,-3.1914,-3.2333,-3.2894,-3.3496,-3.3639,-3.3783,-3.4293,-3.4397,-3.4397,0.0,0.0,-3.4593,-3.5195,-3.5325,-3.573,-3.6841,-3.7037,-3.7273,0.0,0.0,0.0,0.0,0.0,0.0,-4.0385,0.0,-4.191,-4.2005,-4.3012,-4.36,-4.36,-4.4101,-4.4411,-4.4411,-4.4411,-4.4116,-4.354,-4.2964,-4.2669,-4.2669,-4.264,-4.2626,-4.2626,-4.2584,-4.2584,-4.2618,-4.3367,-4.3608,-4.3714,-4.4417,-4.4633,-4.4633,-4.4587,-4.4572,-4.4572,0.0,0.0,0.0,0.0,0.0,0.0,0.0,0.0,0.0,0.0,0.0,0.0,0.0,0.0,0.0,0.0,0.0,0.0,0.0,0.0,0.0,0.0,0.0,0.0,0.0,0.0,0.0,0.0,0.0,-2.9883,-3.0693,-3.0403,-3.0312,0.0,-3.0332,-3.0043,-2.9554,-2.9457,-2.9392,-2.9414,0.0,-2.9369,-2.9628,0.0,0.0,0.0,0.0,0.0,0.0,0.0,0.0,0.0,0.0,-3.0411,-3.0986,-3.0986,-3.0986,-3.1078,-3.1509,-3.1731,-3.2058,-3.2934,-3.326,-3.3509,-3.4071,-3.4188,-3.4228,-3.4371,-3.4397,-3.4397,0.0,0.0,0.0,-3.5195,-3.5639,0.0,-3.6894,-3.739,0.0,-3.8436,0.0,-3.9534,-3.9939,-4.0657,0.0,0.0,-4.1674,-4.2339,-4.3081,-4.3422,-4.3804,-4.4209,-4.4317,-4.4411,-4.4411,-4.4411,-4.4326,-4.4172,-4.4017,-4.3947,-4.3933,-4.3469,-4.3259,-4.3245,-4.2781,-4.2584,-4.2646,-4.3847,-4.4369,-4.4379,-4.5102,-4.5341,-4.5264,-4.4756,-4.4572,-4.4572,0.0,0.0,0.0,0.0,0.0,0.0,0.0,0.0,0.0,0.0,0.0,0.0,0.0,0.0,0.0,0.0,0.0,0.0,0.0,0.0,0.0,0.0,0.0,0.0,0.0,0.0,0.0,0.0,0.0,0.0,0.0,-2.9448,-2.9531,-2.9818,-2.948,-2.9262,-2.9193,0.0,0.0,0.0,0.0,0.0,0.0,0.0,0.0,0.0,0.0,0.0,0.0,0.0,0.0,-2.9379,-2.9954,-3.0516,-3.0986,-3.0986,0.0,-3.1117,-3.1679,-3.2019,-3.2437,-3.3365,-3.377,-3.4018,-3.4332,-3.4397,-3.4397,-3.4397,-3.4397,0.0,0.0,0.0,0.0,0.0,0.0,0.0,-3.692,-3.7521,-3.8109,0.0,-3.9246,0.0,-4.0357,-4.0971,-4.1311,0.0,-4.1597,-4.198,-4.2555,-4.3039,-4.3437,-4.3751,-4.4129,-4.4411,-4.4411,-4.4411,-4.4411,-4.4411,-4.4411,-4.4411,-4.4397,-4.4059,-4.3891,-4.3877,0.0,-4.3385,-4.3448,-4.4545,-4.5032,-4.5058,-4.5803,-4.6034,-4.5957,-4.528,-4.5018,-4.4987,0.0,0.0,0.0,0.0,0.0,0.0,0.0,0.0,0.0,0.0,0.0,0.0,0.0,0.0,0.0,0.0,0.0,0.0,0.0,0.0,0.0,0.0,0.0,0.0,0.0,0.0,0.0,0.0,0.0,0.0,0.0,0.0,0.0,0.0,0.0,0.0,0.0,0.0,0.0,0.0,0.0,0.0,0.0,0.0,0.0,0.0,0.0,0.0,0.0,0.0,-2.8255,-2.9261,-2.9836,-3.0411,-3.0895,-3.096,-3.0986,-3.1117,-3.1679,-3.2254,-3.2829,-3.3443,-3.3992,-3.4397,-3.4397,-3.4397,-3.4397,-3.4397,0.0,-3.4397,-3.4397,-3.4397,-3.4593,-3.5195,0.0,-3.6305,-3.692,-3.7521,-3.8135,-3.8762,-3.9298,-3.9847,-4.0474,-4.101,-4.1311,-4.1311,-4.1311,-4.1311,-4.1411,-4.24,-4.2984,-4.308,-4.394,-4.4411,-4.4411,-4.4411,-4.4411,-4.4411,-4.4411,-4.4411,-4.4411,-4.4411,-4.4411,-4.4411,-4.4411,0.0,-4.4462,-4.5242,-4.5521,-4.5708,-4.6325,-4.6647,-4.665,-4.5972,-4.5726,-4.5634,0.0,0.0,0.0,0.0,0.0,0.0,0.0,0.0,0.0,0.0,0.0,0.0,0.0,0.0,0.0,0.0,0.0,0.0,0.0,0.0,0.0,0.0,0.0,0.0,0.0,0.0,0.0,0.0,0.0,0.0,0.0,0.0,0.0,0.0,0.0,0.0,0.0,0.0,0.0,0.0,0.0,0.0,0.0,0.0,0.0,0.0,0.0,0.0,0.0,0.0,-2.7981,-2.8634,-2.9235,-2.9823,-3.0372,-3.0843,-3.0986,-3.1117,-3.1679,-3.2254,-3.2829,-3.3443,-3.3992,-3.4397,-3.4397,-3.4397,0.0,0.0,0.0,-3.4397,-3.4397,-3.4397,-3.4593,-3.5195,0.0,0.0,0.0,0.0,-3.8292,0.0,0.0,0.0,0.0,0.0,0.0,0.0,0.0,-4.1511,-4.198,-4.2582,-4.3273,-4.4129,-4.4317,-4.4411,-4.4411,-4.4411,-4.4411,-4.4411,-4.4411,-4.4411,-4.4411,-4.4411,-4.4411,-4.4411,-4.4411,0.0,-4.449,-4.5192,-4.5842,-4.6358,-4.6506,-4.693,-4.7357,-4.6665,-4.6419,-4.6326,0.0,0.0,0.0,0.0,0.0,0.0,0.0,0.0,0.0,0.0,-2.71,-2.7137,0.0,0.0,0.0,0.0,0.0,0.0,0.0,0.0,0.0,0.0,0.0,0.0,0.0,0.0,0.0,0.0,0.0,0.0,0.0,0.0,0.0,0.0,0.0,0.0,0.0,0.0,0.0,0.0,0.0,0.0,0.0,0.0,0.0,0.0,0.0,0.0,0.0,0.0,-2.7706,-2.8085,-2.9,-2.968,-3.0255,-3.0817,-3.0986,-3.1117,-3.1679,-3.2254,-3.2829,-3.3443,-3.3992,-3.4397,-3.4397,0.0,0.0,0.0,-3.4397,-3.4397,-3.4397,0.0,0.0,0.0,0.0,0.0,0.0,0.0,0.0,0.0,0.0,0.0,0.0,0.0,0.0,0.0,0.0,-4.1411,-4.1696,-4.2498,-4.3259,-4.4007,-4.4209,-4.4411,-4.4411,-4.4411,-4.4411,-4.4411,-4.4411,-4.4411,-4.4411,-4.4411,-4.4411,-4.4411,-4.4411,0.0,-4.4504,-4.523,-4.5671,-4.6062,-4.6789,-4.728,-4.7539,-4.7211,-4.7127,-4.7019,0.0,0.0,0.0,0.0,0.0,0.0,0.0,-2.6759,-2.6864,-2.6563,-2.651,-2.6563,-2.6721,-2.6864,0.0,0.0,0.0,0.0,0.0,0.0,0.0,0.0,0.0,0.0,0.0,0.0,0.0,0.0,0.0,0.0,0.0,0.0,0.0,0.0,0.0,0.0,0.0,0.0,0.0,0.0,0.0,0.0,0.0,0.0,0.0,0.0,0.0,0.0,0.0,0.0,-2.759,-2.7907,-2.8821,-2.9483,-3.0085,-3.0777,-3.0986,-3.1078,-3.1535,-3.2071,-3.262,-3.3104,-3.3731,-3.4228,-3.4228,-3.4319,0.0,0.0,-3.4397,-3.4397,-3.4397,0.0,-3.4397,0.0,0.0,0.0,0.0,0.0,0.0,0.0,0.0,0.0,0.0,0.0,0.0,0.0,0.0,0.0,-4.1511,-4.2289,-4.297,-4.3423,-4.3912,-4.4209,-4.4209,-4.4317,-4.4411,-4.4411,-4.4411,-4.4411,-4.4411,-4.4411,-4.4411,-4.4411,-4.4411,0.0,0.0,-4.5046,-4.5321,-4.558,-4.6887,-4.7493,-4.7603,-4.7757,-4.7819,-4.7727,0.0,0.0,0.0,0.0,0.0,0.0,0.0,-2.651,-2.6563,-2.651,-2.651,-2.6312,-2.5702,-2.6204,0.0,0.0,0.0,0.0,0.0,0.0,0.0,0.0,0.0,0.0,0.0,0.0,0.0,0.0,0.0,0.0,0.0,0.0,0.0,0.0,0.0,0.0,0.0,0.0,0.0,0.0,0.0,0.0,0.0,0.0,0.0,0.0,0.0,0.0,0.0,0.0,0.0,-2.8395,-2.846,-2.8869,-2.9575,-3.066,0.0,0.0,-3.1052,-3.1483,-3.194,-3.1993,-3.2842,-3.3666,-3.3666,0.0,0.0,-3.4397,-3.4397,-3.4397,-3.4397,-3.4397,-3.4397,0.0,0.0,0.0,0.0,0.0,0.0,0.0,0.0,0.0,0.0,0.0,0.0,0.0,0.0,0.0,-4.198,-4.2079,-4.2387,-4.2984,-4.3423,-4.3695,-4.3695,-4.4209,-4.4411,-4.4411,-4.4411,-4.4411,-4.4411,-4.4411,-4.4411,-4.4411,-4.4411,0.0,0.0,-4.4504,-4.4862,-4.5595,-4.6329,-4.7031,-4.7664,-4.8278,-4.8527,-4.8419,0.0,0.0,0.0,0.0,0.0,0.0,0.0,-2.615,-2.615,-2.615,-2.615,-2.6056,-2.5743,-2.5853,-2.6056,0.0,0.0,0.0,0.0,0.0,0.0,0.0,0.0,0.0,0.0,0.0,0.0,0.0,0.0,0.0,0.0,0.0,0.0,0.0,0.0,0.0,0.0,0.0,0.0,0.0,0.0,0.0,0.0,0.0,0.0,0.0,0.0,0.0,0.0,0.0,0.0,0.0,-2.9039,-2.94,0.0,0.0,-3.0725,-3.0986,-3.0986,-3.1405,-3.1759,-3.1759,-3.2725,-3.3587,-3.3587,0.0,0.0,-3.4397,-3.4397,-3.4397,-3.4397,-3.4397,-3.4397,0.0,0.0,0.0,0.0,0.0,0.0,0.0,0.0,0.0,0.0,0.0,0.0,0.0,0.0,0.0,-4.1362,-4.1855,-4.2373,-4.2887,-4.3328,-4.3804,-4.4101,-4.4303,-4.4411,-4.4411,-4.4411,-4.4411,-4.4411,-4.4411,-4.4411,-4.4411,-4.4411,0.0,0.0,-4.4411,-4.4597,-4.4862,-4.5656,-4.6344,-4.7031,-4.7749,-4.8271,-4.8573,0.0,0.0,0.0,0.0,0.0,0.0,-2.5893,-2.5893,-2.5893,-2.5893,-2.5893,-2.5839,-2.5674,-2.5633,-2.5633,-2.5632,0.0,0.0,0.0,0.0,0.0,0.0,0.0,0.0,0.0,0.0,0.0,0.0,0.0,0.0,0.0,0.0,0.0,0.0,0.0,0.0,0.0,0.0,0.0,0.0,0.0,0.0,0.0,0.0,0.0,0.0,0.0,0.0,0.0,0.0,0.0,0.0,0.0,0.0,0.0,0.0,-3.0542,-3.0986,-3.0986,-3.1274,-3.1588,-3.1588,-3.2463,-3.3326,0.0,0.0,-3.4397,-3.4397,-3.4397,-3.4397,-3.4397,-3.4397,-3.4397,0.0,0.0,-3.6109,0.0,0.0,0.0,0.0,0.0,0.0,0.0,0.0,0.0,0.0,0.0,0.0,-4.0676,-4.1106,-4.1655,-4.24,-4.2943,-4.3423,-4.394,-4.4115,-4.4209,-4.4411,-4.4411,-4.4411,-4.4411,-4.4411,-4.4411,-4.4411,-4.4411,0.0,0.0,-4.4411,-4.4411,-4.4504,-4.523,-4.5912,-4.6579,-4.7306,-4.8003,-4.862,0.0,0.0,0.0,0.0,0.0,0.0,0.0,-2.5893,-2.5893,-2.5893,-2.5893,-2.5674,-2.5061,-2.5564,-2.555,-2.4567,0.0,0.0,0.0,0.0,0.0,0.0,0.0,0.0,0.0,0.0,0.0,0.0,0.0,0.0,0.0,0.0,0.0,0.0,0.0,0.0,0.0,0.0,0.0,0.0,0.0,0.0,0.0,0.0,0.0,0.0,0.0,0.0,0.0,0.0,0.0,0.0,0.0,0.0,0.0,0.0,-3.0542,-3.0986,-3.0986,-3.0986,-3.0999,-3.0999,-3.1862,-3.2698,0.0,0.0,-3.4397,-3.4397,-3.4397,-3.4397,-3.4397,-3.4397,-3.4397,-3.4397,-3.5365,0.0,0.0,0.0,0.0,0.0,0.0,0.0,0.0,0.0,0.0,0.0,0.0,0.0,-4.0268,-3.991,-4.012,-4.1237,-4.1895,-4.2373,-4.2887,-4.3328,-4.3899,-4.4411,-4.4411,-4.4411,-4.4411,-4.4411,-4.4411,0.0,0.0,0.0,0.0,-4.4411,-4.4411,-4.4504,-4.523,-4.5912,-4.6579,-4.7306,-4.8003,-4.862,0.0,0.0,0.0,0.0,0.0,0.0,0.0,-2.5893,-2.5893,-2.5893,-2.5893,-2.5839,-2.5619,-2.5397,-2.523,-2.5188,0.0,0.0,0.0,0.0,0.0,0.0,0.0,0.0,0.0,0.0,0.0,-2.7378,-2.7595,0.0,0.0,0.0,0.0,0.0,0.0,0.0,0.0,0.0,0.0,0.0,0.0,0.0,0.0,0.0,0.0,0.0,0.0,0.0,0.0,0.0,0.0,0.0,0.0,0.0,0.0,0.0,0.0,0.0,-3.0986,-3.0986,-3.0986,-3.0986,-3.1561,-3.2215,-3.2607,-3.33,-3.3953,-3.4319,-3.4397,-3.4397,-3.4397,-3.4397,-3.4397,-3.4397,-3.5365,0.0,0.0,0.0,0.0,0.0,0.0,0.0,0.0,0.0,0.0,0.0,0.0,0.0,-3.9942,-4.0477,-4.0711,-4.0603,-4.0517,-4.0932,-4.2025,-4.2488,-4.3177,-4.3899,-4.4209,-4.4411,-4.4411,-4.4411,0.0,0.0,0.0,0.0,0.0,-4.4411,-4.4411,-4.4411,-4.469,-4.5461,-4.6491,-4.6755,-4.7548,-4.862,0.0,0.0,0.0,0.0,0.0,0.0,0.0,-2.5893,-2.5893,-2.5893,-2.5893,-2.5839,-2.5743,-2.5411,-2.5244,-2.5313,0.0,0.0,0.0,0.0,0.0,0.0,0.0,0.0,0.0,0.0,-2.8039,-2.8039,-2.8186,-2.8201,-2.8054,-2.8118,0.0,0.0,0.0,0.0,0.0,0.0,0.0,0.0,0.0,0.0,-2.7625,0.0,0.0,0.0,0.0,0.0,0.0,0.0,0.0,0.0,0.0,0.0,0.0,0.0,-3.1099,0.0,0.0,-3.0986,-3.0986,-3.0986,-3.1418,0.0,0.0,-3.3156,-3.3744,-3.4293,-3.4397,-3.4397,-3.4397,-3.4397,-3.4397,-3.4397,-3.5365,0.0,0.0,0.0,0.0,0.0,0.0,0.0,0.0,0.0,0.0,0.0,0.0,0.0,-3.9591,-3.9997,-4.003,-3.9661,-3.9891,-4.0415,-4.1306,-4.2208,-4.2902,-4.36,-4.4101,-4.4411,-4.4411,-4.4411,0.0,0.0,0.0,0.0,0.0,-4.4411,-4.4411,-4.4411,-4.4411,-4.5278,-4.6491,-4.6491,-4.7377,-4.862,0.0,0.0,0.0,0.0,0.0,0.0,0.0,0.0,0.0,0.0,-2.5893,-2.5798,-2.555,-2.5494,-2.5313,0.0,0.0,0.0,0.0,0.0,0.0,0.0,0.0,0.0,0.0,-2.8201,-2.8201,-2.784,-2.8201,-2.8348,-2.8235,-2.8348,-2.8266,0.0,0.0,0.0,0.0,-2.7855,-2.774,-2.7625,-2.7625,-2.7625,0.0,0.0,0.0,0.0,0.0,0.0,0.0,0.0,0.0,0.0,0.0,0.0,0.0,0.0,0.0,0.0,0.0,0.0,0.0,0.0,0.0,0.0,0.0,-3.3091,0.0,-3.4228,-3.4371,-3.4397,-3.4397,-3.4397,-3.4397,-3.4397,-3.5365,0.0,0.0,0.0,0.0,0.0,0.0,0.0,0.0,0.0,0.0,0.0,0.0,0.0,-3.9285,-3.8883,-3.8619,-3.8585,-3.9988,-4.0641,-4.0655,-4.1967,-4.2943,-4.3396,-4.4007,-4.4317,-4.4317,-4.4411,0.0,0.0,0.0,0.0,0.0,-4.4411,-4.4411,-4.4411,-4.4411,-4.5278,-4.6491,-4.6491,-4.7377,-4.862,0.0,0.0,0.0,0.0,0.0,0.0,0.0,0.0,0.0,0.0,0.0,-2.5893,-2.5798,-2.5411,0.0,0.0,0.0,0.0,0.0,0.0,0.0,0.0,0.0,0.0,0.0,-2.8348,-2.8348,-2.825,-2.8348,-2.8396,-2.8348,-2.8299,-2.825,-2.8314,-2.8103,-2.8005,-2.802,-2.7955,-2.7905,-2.774,-2.774,-2.774,0.0,0.0,0.0,0.0,-2.9214,-2.9669,0.0,0.0,0.0,0.0,0.0,0.0,0.0,0.0,-3.1832,-3.2282,-3.2013,0.0,-3.2519,-3.1942,-3.1917,-3.2024,0.0,0.0,-3.3064,0.0,0.0,-3.4397,-3.4397,-3.4397,-3.4397,-3.4397,-3.5365,-3.6109,0.0,0.0,0.0,0.0,0.0,0.0,0.0,0.0,0.0,0.0,0.0,-3.9182,-3.9297,-3.9193,-3.8964,-3.8596,-3.9172,-3.9322,-3.8885,-3.9913,-4.0718,-4.1492,-4.2999,-4.3804,-4.3804,-4.4209,0.0,0.0,0.0,0.0,-4.4411,-4.4411,-4.4411,-4.4411,-4.4411,-4.5278,-4.6491,-4.6491,-4.7377,-4.862,0.0,0.0,0.0,0.0,0.0,0.0,0.0,0.0,0.0,0.0,0.0,0.0,0.0,0.0,0.0,0.0,0.0,0.0,0.0,0.0,0.0,0.0,0.0,0.0,0.0,-2.8411,-2.8411,-2.8411,-2.8411,-2.8411,-2.8411,-2.8348,-2.8348,-2.8411,-2.8266,-2.8152,-2.8103,-2.8005,-2.7905,-2.779,-2.779,0.0,0.0,0.0,0.0,0.0,-2.9327,-2.9828,0.0,-3.1195,-3.1482,-3.1482,0.0,0.0,0.0,0.0,-3.2397,-3.2981,-3.3209,-3.3229,-3.3003,-3.229,-3.2362,-3.2454,0.0,0.0,0.0,0.0,0.0,0.0,-3.4481,-3.4397,0.0,-3.4763,-3.5534,0.0,0.0,0.0,0.0,0.0,0.0,0.0,0.0,0.0,0.0,0.0,0.0,-3.9067,-3.9297,-3.9308,-3.9182,-3.8929,-3.8629,-3.8424,-3.8345,-3.9155,-3.9994,-4.0792,-4.2279,-4.3286,-4.36,-4.4209,-4.4411,0.0,0.0,0.0,-4.4411,-4.4411,-4.4411,-4.4411,-4.4411,-4.5278,-4.6491,-4.6491,-4.7377,-4.862,0.0,0.0,0.0,0.0,0.0,0.0,0.0,0.0,0.0,0.0,0.0,0.0,0.0,0.0,0.0,0.0,0.0,0.0,0.0,0.0,0.0,0.0,0.0,0.0,-2.8411,-2.8411,-2.8411,-2.8411,-2.8411,-2.8411,-2.8411,-2.8411,-2.8411,-2.8411,-2.8411,-2.8348,-2.8235,-2.8103,-2.7955,-2.784,-2.784,0.0,0.0,0.0,0.0,0.0,0.0,0.0,0.0,-3.1357,-3.1482,-3.1482,-3.1482,0.0,0.0,0.0,0.0,0.0,-3.4173,-3.3988,-3.3367,-3.2635,-3.2932,-3.3142,0.0,0.0,0.0,0.0,0.0,0.0,0.0,0.0,0.0,0.0,0.0,0.0,0.0,0.0,0.0,0.0,0.0,0.0,0.0,0.0,0.0,0.0,0.0,-3.8791,-3.9274,-3.9308,-3.9308,-3.9308,-3.8309,-3.7912,-3.8245,-3.8888,-3.9687,-4.049,-4.1677,-4.2682,-4.3505,-4.4115,-4.4411,-4.4411,0.0,0.0,-4.4411,-4.4411,-4.4411,-4.4411,-4.4411,-4.5278,-4.6491,-4.6491,-4.7377,-4.862,0.0,0.0,0.0,0.0,0.0,0.0,0.0,0.0,0.0,0.0,0.0,0.0,0.0,0.0,0.0,0.0,0.0,0.0,0.0,0.0,0.0,0.0,0.0,-2.8348,-2.8411,-2.8411,-2.8411,-2.8411,-2.8411,-2.8411,-2.8411,-2.8411,-2.8411,-2.8411,-2.8411,-2.8411,-2.8348,-2.8235,-2.8137,-2.8137,-2.8137,0.0,0.0,0.0,0.0,0.0,0.0,0.0,0.0,-3.1357,-3.1482,-3.1482,-3.1482,0.0,0.0,0.0,0.0,0.0,-3.3619,-3.4341,-3.4935,-3.4177,-3.4041,-3.3919,-3.3199,0.0,0.0,0.0,0.0,0.0,0.0,0.0,0.0,0.0,0.0,0.0,0.0,0.0,0.0,0.0,0.0,0.0,0.0,0.0,0.0,0.0,0.0,-3.8791,-3.9274,-3.9308,-3.9308,-3.9308,-3.8309,-3.786,-3.7904,-3.7795,-3.8243,-3.9092,-4.0893,-4.2124,-4.308,-4.3926,-4.4411,-4.4411,0.0,-4.4411,-4.4411,-4.4411,-4.4411,-4.4411,-4.4411,-4.5278,-4.6491,-4.6491,-4.7377,-4.862,0.0,0.0,0.0,0.0,0.0,0.0,0.0,0.0,0.0,0.0,0.0,0.0,0.0,0.0,0.0,0.0,0.0,0.0,0.0,0.0,0.0,0.0,-2.8411,-2.8411,-2.8411,-2.8411,-2.8411,-2.8411,-2.8411,-2.8411,-2.8411,-2.8411,-2.8411,-2.8411,-2.8411,-2.8411,-2.8411,-2.8235,-2.8186,-2.8186,0.0,0.0,0.0,0.0,0.0,0.0,0.0,0.0,0.0,0.0,-3.1482,-3.1482,-3.1482,0.0,0.0,0.0,0.0,0.0,-3.3395,-3.4203,-3.4961,-3.4963,-3.4986,-3.4624,-3.3506,0.0,0.0,0.0,0.0,0.0,0.0,0.0,0.0,0.0,0.0,0.0,0.0,0.0,0.0,0.0,0.0,0.0,0.0,0.0,0.0,0.0,0.0,0.0,-3.8872,-3.8918,-3.8918,-3.8918,-3.8183,-3.7655,-3.7379,-3.706,-3.7311,-3.8149,-3.9262,-4.0679,-4.2235,-4.2999,-4.3695,-4.4411,0.0,-4.4411,-4.4411,-4.4411,-4.4411,-4.4411,-4.4411,-4.5032,-4.6091,-4.6784,-4.7734,-4.862,0.0,0.0,0.0,0.0,0.0,0.0,0.0,0.0,0.0,0.0,0.0,0.0,0.0,0.0,0.0,0.0,0.0,0.0,0.0,0.0,-2.8411,-2.8411,-2.8411,-2.8411,-2.8411,-2.8411,-2.8411,-2.8411,-2.8411,-2.8411,-2.8411,-2.8411,-2.8411,-2.8411,-2.8411,-2.8411,-2.8411,-2.8299,-2.8235,-2.825,0.0,0.0,0.0,0.0,0.0,0.0,0.0,0.0,0.0,0.0,0.0,0.0,0.0,0.0,0.0,-3.1482,-3.2003,-3.2662,-3.332,-3.3978,-3.4637,-3.5325,0.0,-3.5213,-3.4002,0.0,0.0,0.0,0.0,0.0,0.0,0.0,0.0,0.0,0.0,0.0,0.0,0.0,0.0,0.0,0.0,0.0,0.0,0.0,0.0,0.0,0.0,0.0,-3.8355,-3.8401,-3.8401,-3.8401,-3.7885,-3.7425,-3.7035,-3.653,-3.6677,-3.7512,-3.8019,-3.934,-4.1406,-4.207,-4.3081,-4.4209,-4.4317,-4.4411,-4.4411,-4.4411,-4.4411,-4.4411,-4.4411,-4.4954,-4.5927,-4.7148,-4.8003,-4.862,0.0,0.0,0.0,0.0,0.0,0.0,0.0,0.0,0.0,0.0,0.0,0.0,0.0,0.0,0.0,0.0,0.0,0.0,0.0,0.0,-2.8411,-2.8411,-2.8411,-2.8411,-2.8411,-2.8411,-2.8411,-2.8411,-2.8411,-2.8411,-2.8411,-2.8411,-2.8411,-2.8411,-2.8411,-2.8411,-2.8411,-2.8411,-2.8411,-2.8458,-2.9039,0.0,0.0,0.0,0.0,0.0,0.0,0.0,0.0,0.0,0.0,0.0,0.0,0.0,-3.1482,-3.1482,-3.2003,-3.2662,-3.332,-3.3978,-3.4637,-3.5325,-3.5504,0.0,-3.5359,0.0,0.0,0.0,0.0,0.0,0.0,0.0,0.0,0.0,0.0,0.0,0.0,0.0,0.0,0.0,0.0,0.0,0.0,0.0,0.0,0.0,0.0,0.0,-3.7816,-3.785,-3.785,-3.785,-3.7356,-3.7069,-3.7035,-3.653,-3.6677,-3.7512,-3.8019,-3.925,-4.0893,-4.1972,-4.2875,-4.3709,-4.4209,-4.4411,-4.4411,-4.4411,-4.4411,-4.4411,-4.4411,-4.5187,-4.6491,-4.7306,-4.8003,-4.862,0.0,0.0,0.0,0.0,0.0,0.0,0.0,0.0,0.0,0.0,0.0,0.0,0.0,0.0,0.0,0.0,0.0,0.0,0.0,0.0,-2.8411,-2.8411,-2.8411,-2.8411,-2.8411,-2.8411,-2.8411,-2.8411,-2.8411,-2.8411,-2.8411,-2.8411,-2.8411,-2.8411,-2.8411,-2.8642,-2.9027,-2.9027,-2.9273,-2.9689,-2.9935,-3.0043,0.0,0.0,0.0,0.0,0.0,0.0,0.0,0.0,-3.1482,-3.1482,0.0,0.0,-3.1482,-3.1482,-3.1704,-3.2138,-3.32,-3.3679,-3.4128,-3.5235,0.0,0.0,0.0,0.0,0.0,0.0,0.0,0.0,0.0,0.0,0.0,0.0,0.0,0.0,0.0,0.0,0.0,0.0,0.0,0.0,0.0,0.0,0.0,0.0,0.0,0.0,-3.7299,-3.7322,-3.7322,-3.7322,-3.7138,-3.6886,-3.6564,-3.6369,-3.6483,-3.6796,-3.6989,-3.7808,-3.925,-4.0274,-4.1293,-4.2404,-4.341,-4.3899,-4.3912,-4.4303,-4.4411,-4.4411,-4.4862,-4.5642,-4.6579,-4.7306,-4.8003,-4.862,0.0,0.0,0.0,0.0,0.0,0.0,0.0,0.0,0.0,0.0,0.0,0.0,0.0,0.0,0.0,0.0,0.0,0.0,0.0,0.0,-2.8411,-2.8411,-2.8411,-2.8411,-2.8411,-2.8411,-2.8411,-2.8411,-2.8411,-2.8411,-2.8411,-2.8411,0.0,0.0,-2.8719,-2.9104,-2.9735,-2.9735,-2.9997,-3.0443,-3.0643,-3.0735,0.0,0.0,0.0,0.0,0.0,0.0,0.0,0.0,-3.1482,0.0,0.0,0.0,0.0,0.0,-3.1616,-3.2078,-3.3185,-3.3649,-3.4083,0.0,0.0,0.0,0.0,0.0,0.0,0.0,0.0,0.0,0.0,0.0,0.0,0.0,0.0,0.0,0.0,0.0,0.0,0.0,0.0,0.0,0.0,0.0,0.0,0.0,0.0,0.0,0.0,-3.6794,-3.6794,-3.6794,-3.6794,-3.6622,-3.6266,-3.6266,-3.6266,-3.6266,-3.6266,-3.7108,-3.8441,-3.9287,-4.0414,-4.1828,-4.2929,-4.3423,-4.3423,-4.3912,-4.4209,-4.4504,-4.523,-4.5912,-4.6579,-4.7306,-4.8003,-4.862,0.0,0.0,0.0,0.0,0.0,0.0,0.0,0.0,0.0,0.0,0.0,0.0,0.0,0.0,0.0,0.0,0.0,0.0,0.0,-2.8396,-2.8396,-2.8411,-2.8411,-2.8411,-2.8411,-2.8411,-2.8411,-2.8411,-2.8411,-2.8411,-2.8411,-2.8411,0.0,0.0,0.0,0.0,0.0,-3.0428,-3.0428,-3.0505,-3.1136,-3.1397,-3.1474,0.0,0.0,0.0,0.0,0.0,0.0,0.0,-3.1482,0.0,0.0,0.0,0.0,0.0,-3.2003,-3.2662,-3.332,-3.3978,0.0,0.0,0.0,0.0,0.0,0.0,0.0,0.0,0.0,0.0,0.0,0.0,0.0,0.0,0.0,0.0,0.0,0.0,0.0,0.0,0.0,0.0,0.0,0.0,0.0,0.0,0.0,0.0,0.0,-3.6266,-3.6266,-3.6266,-3.6266,-3.6266,-3.6266,-3.6266,-3.6266,-3.6266,-3.6266,-3.7215,-3.8792,-3.9299,-4.0528,-4.2079,-4.2679,-4.2887,-4.2887,-4.3423,-4.3899,-4.4504,-4.523,-4.5912,-4.6579,-4.7306,-4.8003,-4.862,0.0,0.0,0.0,0.0,0.0,0.0,0.0,0.0,0.0,0.0,0.0,0.0,0.0,0.0,0.0,0.0,0.0,0.0,0.0,-2.7965,-2.7919,-2.8381,-2.8411,-2.8411,-2.8411,-2.8411,-2.8411,-2.8411,-2.8411,-2.8411,-2.8411,0.0,0.0,-2.9443,0.0,0.0,-3.1089,-3.1089,-3.1382,-3.1828,-3.2013,-3.209,-3.2121,0.0,0.0,0.0,0.0,0.0,0.0,0.0,0.0,0.0,0.0,0.0,0.0,-3.1482,-3.2003,-3.2662,-3.332,0.0,0.0,0.0,0.0,0.0,0.0,0.0,0.0,0.0,0.0,0.0,0.0,0.0,0.0,0.0,0.0,0.0,0.0,0.0,0.0,0.0,0.0,0.0,0.0,0.0,0.0,0.0,0.0,0.0,0.0,-3.6266,-3.6266,-3.6266,-3.6266,-3.6266,-3.6266,-3.6266,-3.6266,-3.6266,-3.6266,-3.6893,-3.7938,-3.8675,-3.9622,-4.0769,-4.1881,-4.2373,-4.2373,-4.286,-4.3163,-4.3451,-4.4541,-4.5341,-4.6137,-4.7219,-4.8003,-4.862,0.0,0.0,0.0,0.0,0.0,0.0,0.0,0.0,0.0,0.0,0.0,0.0,0.0,0.0,0.0,0.0,0.0,0.0,0.0,0.0,-2.798,-2.8381,-2.8411,-2.8411,-2.8411,-2.8411,-2.8411,-2.8411,-2.8411,-2.855,0.0,0.0,-2.9689,-3.0212,0.0,-3.1166,0.0,-3.1782,-3.2013,-3.2398,-3.2398,-3.2398,-3.2398,0.0,0.0,0.0,0.0,0.0,0.0,0.0,0.0,0.0,0.0,0.0,0.0,-3.1795,-3.2392,-3.3036,-3.3709,0.0,0.0,0.0,0.0,0.0,0.0,0.0,0.0,0.0,0.0,0.0,0.0,0.0,0.0,0.0,0.0,0.0,0.0,0.0,0.0,0.0,0.0,0.0,0.0,0.0,0.0,0.0,0.0,0.0,0.0,-3.6266,-3.6266,-3.6266,-3.6266,-3.6266,-3.6266,-3.6266,-3.6266,-3.6266,-3.6266,-3.6688,-3.7512,-3.8372,-3.9324,-4.0173,-4.1285,-4.1881,-4.2177,-4.2484,-4.2693,-4.2984,-4.4247,-4.5144,-4.5958,-4.7133,-4.8003,-4.862,0.0,0.0,0.0,0.0,0.0,0.0,0.0,0.0,0.0,0.0,0.0,0.0,0.0,0.0,0.0,0.0,0.0,0.0,0.0,0.0,-2.835,-2.8411,-2.8411,-2.8411,-2.8411,-2.8411,-2.8427,-2.8488,-2.8488,0.0,0.0,0.0,-3.0228,-3.1382,0.0,-3.1813,-3.2398,-3.2398,-3.2398,-3.2398,-3.2398,-3.2398,-3.2398,-3.2398,0.0,0.0,0.0,0.0,0.0,0.0,0.0,0.0,0.0,0.0,-3.1676,-3.2332,-3.3021,-3.3709,0.0,0.0,0.0,0.0,0.0,0.0,0.0,0.0,0.0,0.0,0.0,0.0,0.0,0.0,0.0,0.0,0.0,0.0,0.0,0.0,0.0,0.0,0.0,0.0,0.0,0.0,0.0,0.0,0.0,0.0,0.0,-3.6375,-3.6266,-3.6266,-3.6266,-3.6266,-3.6266,-3.6266,-3.6266,-3.6266,-3.6266,-3.6688,-3.7406,-3.8267,-3.9221,-4.0173,-4.0909,-4.1597,-4.2079,-4.2079,-4.2275,-4.2873,-4.4059,-4.4961,-4.5869,-4.7031,-4.7919,-4.862,0.0,0.0,0.0,0.0,0.0,0.0,0.0,0.0,0.0,0.0,0.0,0.0,0.0,0.0,0.0,0.0,0.0,0.0,0.0,0.0,-2.7857,-2.8381,-2.8411,-2.8411,-2.8411,-2.8411,-2.8673,-2.9196,-2.9196,0.0,0.0,0.0,0.0,-3.1413,0.0,-3.2259,-3.2398,-3.2398,-3.2398,-3.2398,-3.2398,-3.2398,-3.2398,-3.2398,-3.2247,0.0,0.0,0.0,0.0,0.0,0.0,0.0,-3.1482,-3.1884,-3.2332,-3.2482,-3.335,-3.4292,0.0,0.0,0.0,0.0,0.0,0.0,0.0,0.0,0.0,0.0,0.0,0.0,0.0,0.0,0.0,0.0,0.0,0.0,0.0,0.0,0.0,0.0,0.0,0.0,0.0,0.0,0.0,0.0,0.0,0.0,-3.7203,-3.6688,-3.6266,-3.6266,-3.6266,-3.6266,-3.6266,-3.6266,-3.6266,0.0,-3.6266,-3.6375,-3.658,-3.7418,-3.8582,-4.0173,-4.0909,-4.1411,-4.1511,-4.1511,-4.1511,-4.171,-4.236,-4.3721,-4.5269,-4.5944,-4.7204,-4.862,0.0,0.0,0.0,0.0,0.0,0.0,0.0,0.0,0.0,0.0,0.0,0.0,0.0,0.0,0.0,0.0,0.0,0.0,0.0,0.0,0.0,0.0,-2.8411,-2.855,-2.8889,-2.8889,-2.9227,0.0,0.0,0.0,0.0,0.0,0.0,-3.189,0.0,-3.2398,-3.2398,-3.2398,-3.2398,-3.2398,-3.2398,-3.2398,-3.2398,-3.2398,-3.2486,-3.268,-3.2509,0.0,0.0,0.0,0.0,0.0,0.0,0.0,-3.3036,-3.3365,-3.3933,-3.4547,0.0,0.0,0.0,0.0,0.0,0.0,0.0,0.0,0.0,0.0,0.0,0.0,0.0,0.0,0.0,0.0,0.0,0.0,0.0,0.0,0.0,0.0,0.0,0.0,0.0,0.0,0.0,0.0,0.0,-3.836,-3.7512,-3.7096,-3.6688,-3.6266,-3.6266,-3.6266,-3.6266,-3.6266,-3.6266,-3.6266,-3.6266,-3.6266,-3.6375,-3.7096,-3.8477,-4.007,-4.0593,-4.0909,-4.1311,-4.1311,-4.1311,-4.1311,-4.1881,-4.3163,-4.4904,-4.5389,-4.6842,-4.8453,0.0,0.0,0.0,0.0,0.0,0.0,0.0,0.0,0.0,0.0,0.0,0.0,0.0,0.0,0.0,0.0,0.0,0.0,0.0,0.0,0.0,0.0,-2.8519,-2.8842,-2.9396,-2.952,-2.992,0.0,0.0,0.0,0.0,0.0,0.0,-3.2398,0.0,-3.2398,-3.2398,-3.2521,-3.2567,-3.2582,-3.269,-3.2696,-3.2696,-3.268,-3.2977,-3.341,-3.3209,-3.3455,-3.3864,-3.3622,0.0,0.0,0.0,0.0,-3.3769,-3.4322,-3.4562,-3.4771,0.0,0.0,0.0,0.0,0.0,0.0,0.0,0.0,0.0,0.0,0.0,0.0,0.0,0.0,0.0,0.0,0.0,0.0,0.0,0.0,0.0,0.0,0.0,0.0,0.0,0.0,0.0,0.0,0.0,-3.9428,-3.8056,-3.7619,-3.7203,-3.6472,-3.6375,-3.6266,-3.6266,-3.6266,-3.6266,-3.6266,-3.6266,-3.6266,-3.6266,-3.7,-3.8267,-3.9865,-4.007,-4.0593,-4.1311,-4.1311,-4.1311,-4.1311,-4.1796,-4.2889,-4.4442,-4.5024,-4.6476,-4.8103,0.0,0.0,0.0,0.0,0.0,0.0,0.0,0.0,0.0,0.0,0.0,0.0,0.0,0.0,0.0,0.0,0.0,0.0,-2.8242,0.0,0.0,-2.8411,-2.8965,-2.9319,-2.9412,-2.9997,-3.0612,0.0,0.0,0.0,0.0,0.0,0.0,-3.2398,0.0,0.0,-3.2428,-3.3013,-3.3275,-3.3321,-3.3747,-3.3992,-3.3933,-3.3785,-3.3667,-3.3638,-3.3638,-3.3592,-3.3561,-3.3499,-3.3499,0.0,0.0,0.0,-3.4367,-3.4442,-3.4906,-3.5385,0.0,0.0,0.0,0.0,0.0,0.0,0.0,0.0,0.0,0.0,0.0,0.0,0.0,0.0,0.0,0.0,0.0,0.0,0.0,0.0,0.0,0.0,0.0,0.0,0.0,0.0,0.0,0.0,-4.0196,-3.9968,-3.9762,-3.8372,-3.7406,-3.7299,-3.6688,-3.6266,-3.6266,-3.6266,-3.6266,-3.6266,-3.6266,-3.6266,-3.6266,-3.6375,-3.7429,-3.9,-3.975,-4.0593,-4.1311,-4.1311,-4.1311,-4.1311,-4.1411,-4.2137,-4.3409,-4.4349,-4.5645,-4.7088,0.0,0.0,0.0,0.0,0.0,0.0,0.0,0.0,0.0,0.0,0.0,0.0,0.0,0.0,0.0,-2.7701,-2.7856,-2.8088,-2.8381,-2.8765,-2.8965,-2.8965,-2.9612,-3.0151,-3.0505,-3.0812,0.0,0.0,0.0,0.0,0.0,-3.2398,-3.2398,0.0,0.0,0.0,0.0,0.0,-3.3998,-3.4029,-3.4145,-3.4193,-3.4193,-3.3999,-3.4107,-3.4409,-3.4286,-3.4465,-3.4703,-3.467,-3.4622,-3.4622,-3.4622,0.0,0.0,0.0,-3.5265,0.0,0.0,0.0,0.0,0.0,0.0,0.0,0.0,0.0,0.0,0.0,0.0,0.0,0.0,0.0,0.0,0.0,0.0,0.0,0.0,0.0,0.0,0.0,0.0,0.0,0.0,0.0,0.0,0.0,-4.0192,-4.0092,-3.9588,-3.915,-3.8477,-3.7512,-3.7203,-3.6796,-3.6266,-3.6266,-3.6266,-3.6266,-3.6266,-3.6266,-3.6266,-3.6266,-3.6893,-3.8149,-3.9,-3.9853,-4.0694,-4.111,-4.1311,-4.1311,-4.1311,-4.1954,-4.3054,-4.4097,-4.5283,-4.655,0.0,0.0,0.0,0.0,0.0,0.0,0.0,0.0,0.0,0.0,0.0,0.0,0.0,0.0,0.0,0.0,-2.8209,-2.8735,-2.8904,-2.9396,-2.9673,-2.9673,-3.032,-3.0889,-3.1366,-3.1551,0.0,0.0,0.0,0.0,-3.2398,-3.2567,-3.2644,0.0,-3.3183,0.0,0.0,0.0,0.0,0.0,0.0,-3.4713,-3.4653,-3.444,-3.4713,-3.512,-3.4946,-3.5232,-3.5638,-3.5554,-3.5504,-3.5504,-3.5504,-3.5504,0.0,0.0,0.0,0.0,0.0,0.0,0.0,0.0,0.0,0.0,0.0,0.0,0.0,0.0,0.0,0.0,0.0,0.0,0.0,0.0,0.0,0.0,0.0,0.0,0.0,0.0,0.0,0.0,0.0,0.0,0.0,0.0,-3.9899,-3.9972,-3.9495,-3.9715,-3.9393,-3.8149,-3.7725,-3.7203,-3.658,-3.6375,-3.6266,-3.6266,-3.6266,-3.6266,-3.6266,-3.6266,-3.658,-3.7203,-3.8372,-3.9324,-4.0173,-4.101,-4.1311,-4.1311,-4.1311,-4.1782,-4.2514,-4.3559,-4.4563,-4.5541,0.0,0.0,0.0,0.0,0.0,0.0,0.0,0.0,0.0,0.0,0.0,0.0,-2.7396,-2.7854,-2.8189,-2.835,-2.8965,-2.9627,-3.0274,-3.0351,-3.0366,-3.0366,-3.0982,0.0,-3.1382,-3.2013,0.0,0.0,0.0,0.0,-3.2398,-3.3044,-3.3352,-3.3352,-3.3383,-3.3783,-3.446,0.0,0.0,0.0,0.0,0.0,0.0,0.0,0.0,0.0,0.0,-3.5474,-3.5504,-3.5504,-3.5504,-3.5504,-3.5504,-3.5504,-3.5504,0.0,0.0,0.0,0.0,0.0,0.0,0.0,0.0,0.0,0.0,0.0,0.0,0.0,0.0,0.0,0.0,0.0,0.0,0.0,0.0,0.0,0.0,0.0,0.0,0.0,0.0,0.0,0.0,0.0,0.0,0.0,-3.9216,-3.9873,-4.0285,-3.9633,-3.95,-3.9943,-3.8372,-3.7512,-3.7406,-3.6688,-3.6266,-3.6266,-3.6266,-3.6266,-3.6266,-3.6266,-3.6266,-3.6483,-3.8056,-3.9324,-4.0173,-4.101,-4.1311,-4.1311,-4.1311,-4.1311,-4.1498,-4.2514,-4.3054,-4.349,0.0,0.0,0.0,0.0,0.0,0.0,0.0,0.0,0.0,0.0,0.0,0.0,0.0,-2.8606,-2.8961,-2.949,-2.9751,-2.9996,-3.0241,-3.0654,-3.0937,-3.1043,-3.1674,-3.2028,-3.2028,-3.2275,0.0,0.0,0.0,-3.2613,-3.3044,-3.329,-3.3875,-3.4737,-3.4737,-3.4876,-3.5168,-3.5845,0.0,0.0,0.0,0.0,0.0,0.0,0.0,0.0,0.0,0.0,0.0,-3.5504,-3.5504,-3.5504,-3.5504,-3.5504,-3.5504,-3.5504,-3.5504,0.0,0.0,0.0,0.0,0.0,0.0,0.0,0.0,0.0,0.0,0.0,0.0,0.0,0.0,0.0,0.0,0.0,0.0,0.0,0.0,0.0,0.0,0.0,0.0,0.0,0.0,0.0,0.0,0.0,0.0,-3.9115,-3.9311,-3.9712,-3.9809,-3.9512,-3.924,-3.8582,-3.7512,-3.7203,-3.6785,-3.6266,-3.6266,-3.6266,-3.6266,-3.6266,-3.6266,-3.6375,-3.8056,-3.9,-3.9324,-4.0795,-4.1311,-4.1311,-4.1311,-4.1311,-4.1411,-4.2431,-4.2875,-4.315,0.0,0.0,0.0,0.0,0.0,0.0,0.0,0.0,0.0,0.0,0.0,0.0,0.0,0.0,-2.9613,-3.0426,-3.0525,-3.0616,-3.0846,-3.1274,-3.1588,-3.1682,-3.2057,-3.2302,-3.2342,-3.2127,0.0,0.0,0.0,0.0,0.0,-3.3875,-3.4599,-3.5491,-3.5722,-3.583,0.0,0.0,0.0,-3.6352,0.0,0.0,-3.5894,0.0,0.0,0.0,0.0,0.0,0.0,0.0,-3.5504,-3.5504,-3.5504,-3.5504,-3.5504,-3.5504,-3.5504,0.0,0.0,0.0,0.0,0.0,0.0,0.0,0.0,0.0,0.0,0.0,0.0,0.0,0.0,0.0,0.0,0.0,0.0,0.0,0.0,0.0,0.0,0.0,0.0,0.0,0.0,0.0,0.0,0.0,0.0,0.0,-3.8697,-3.9429,-3.9628,-3.9195,-3.9766,-3.9428,-3.7938,-3.7938,-3.7524,-3.6677,-3.6677,-3.658,-3.6266,-3.6266,-3.6266,-3.6375,-3.7737,-3.8582,-3.8896,-4.058,-4.1311,-4.1311,-4.1311,-4.1311,-4.1411,-4.2052,-4.2333,-4.2417,0.0,0.0,0.0,0.0,0.0,0.0,0.0,0.0,0.0,0.0,0.0,0.0,0.0,0.0,0.0,-3.098,-3.1119,-3.1503,-3.216,-3.2191,-3.2191,-3.2191,-3.2038,-3.2038,-3.2191,-3.1579,-3.1619,0.0,0.0,0.0,0.0,0.0,-3.5491,-3.5537,-3.6199,-3.6492,-3.6492,0.0,-3.6352,-3.6196,0.0,-3.6006,-3.5688,0.0,0.0,0.0,-3.5504,-3.5504,0.0,-3.5504,0.0,0.0,0.0,0.0,-3.5504,-3.5504,0.0,0.0,0.0,0.0,0.0,0.0,0.0,0.0,0.0,0.0,0.0,0.0,0.0,0.0,0.0,0.0,0.0,0.0,0.0,0.0,0.0,0.0,0.0,0.0,0.0,0.0,0.0,0.0,0.0,0.0,-3.8944,-3.9033,-3.8738,-3.8697,-3.8838,-3.927,-3.9753,-3.9737,-3.8896,-3.8792,-3.8372,-3.7512,-3.7512,-3.7096,-3.6375,-3.6266,-3.6266,-3.6375,-3.7096,-3.7938,-3.8896,-4.058,-4.1311,-4.1311,-4.1311,-4.1311,-4.1311,-4.1311,-4.1311,-4.1398,0.0,0.0,0.0,0.0,0.0,0.0,0.0,0.0,0.0,0.0,0.0,0.0,-2.9788,-3.0743,-3.1414,-3.1554,-3.1611,-3.1702,-3.1883,-3.1883,-3.194,-3.2038,-3.2053,-3.2038,-3.2191,-3.2481,-3.2782,0.0,0.0,0.0,0.0,0.0,0.0,0.0,-3.6337,-3.6367,-3.6163,-3.6211,0.0,0.0,-3.5943,-3.5752,0.0,0.0,0.0,0.0,0.0,-3.5504,-3.5504,0.0,-3.5504,-3.5504,0.0,0.0,0.0,0.0,0.0,0.0,-3.5213,0.0,0.0,0.0,0.0,0.0,0.0,0.0,0.0,0.0,0.0,0.0,0.0,0.0,0.0,0.0,0.0,0.0,0.0,0.0,0.0,0.0,0.0,0.0,0.0,0.0,0.0,0.0,-3.9724,-3.9189,-3.911,-3.8833,-3.9138,-4.0076,-4.027,-4.0156,-3.975,-3.975,-3.9324,-3.8465,-3.7832,-3.7406,-3.7096,-3.658,-3.6266,-3.6375,-3.7096,-3.7938,-3.8896,-3.9955,-4.0795,-4.1311,-4.1311,-4.1311,-4.1311,-4.1311,-4.1311,-4.1311,0.0,0.0,0.0,0.0,0.0,0.0,0.0,0.0,0.0,0.0,0.0,0.0,-2.9988,-3.0851,-3.1452,-3.167,-3.1482,-3.1482,-3.1784,-3.204,-3.2234,-3.2276,-3.2491,-3.27,-3.2786,-3.295,-3.3206,-3.3582,0.0,0.0,0.0,0.0,0.0,0.0,0.0,0.0,0.0,0.0,0.0,0.0,-3.5752,0.0,0.0,-3.5554,-3.5504,0.0,0.0,0.0,-3.5504,-3.5504,-3.5504,0.0,0.0,0.0,0.0,0.0,0.0,0.0,0.0,0.0,0.0,0.0,0.0,0.0,-3.5392,-3.5604,-3.609,0.0,0.0,0.0,0.0,0.0,0.0,0.0,0.0,0.0,0.0,0.0,0.0,0.0,0.0,0.0,0.0,-4.0836,-4.0963,-4.0896,-4.0206,-3.9475,-3.8715,-3.8662,-3.9011,-3.9677,-3.9952,-4.0148,-4.022,-4.0233,-3.9931,-3.9324,-3.8792,-3.836,-3.8056,-3.7536,-3.7322,-3.7322,-3.7844,-3.8582,-3.9428,-3.9865,-4.0593,-4.1311,-4.1311,-4.1311,-4.1311,-4.1311,-4.1311,-4.1311,0.0,0.0,0.0,0.0,0.0,0.0,0.0,0.0,0.0,0.0,0.0,0.0,-3.0329,-3.0522,-3.082,-3.1338,-3.1146,-3.125,-3.1822,-3.2347,-3.2706,-3.278,-3.3231,-3.3546,-3.3713,-3.3201,-3.3276,-3.4046,0.0,0.0,0.0,0.0,0.0,0.0,0.0,0.0,0.0,0.0,0.0,-3.5415,-3.5479,-3.5524,0.0,0.0,-3.5359,0.0,-3.5439,-3.5424,-3.5359,-3.5439,-3.5504,0.0,0.0,0.0,0.0,0.0,-3.3768,0.0,0.0,0.0,0.0,0.0,0.0,0.0,-3.4041,-3.4611,-3.5412,-3.6793,0.0,0.0,0.0,0.0,0.0,0.0,0.0,0.0,0.0,0.0,0.0,0.0,0.0,0.0,-4.0008,-4.092,-4.1236,-4.056,-4.0604,-3.9839,-3.8161,-3.845,-3.8645,-3.871,-3.9233,-3.9769,-4.0318,-4.0383,-4.0275,-4.0084,-4.0147,-3.9647,-3.8896,-3.8792,-3.8792,-3.8792,-3.8792,-3.9324,-4.007,-4.007,-4.0593,-4.1311,-4.1311,-4.1311,-4.1311,-4.1311,-4.1311,-4.1311,-2.7196,0.0,0.0,0.0,0.0,0.0,0.0,0.0,0.0,0.0,0.0,0.0,0.0,-3.0654,-3.1094,-3.0671,-3.1521,-3.2155,-3.228,-3.2397,-3.272,-3.329,-3.3425,-3.3546,-3.3713,-3.4105,-3.4453,-3.4774,0.0,0.0,0.0,0.0,0.0,0.0,0.0,0.0,0.0,0.0,0.0,-3.3768,-3.4312,0.0,-3.5424,-3.4758,-3.4528,-3.461,-3.5279,-3.5052,-3.461,0.0,-3.5504,-3.5439,0.0,0.0,0.0,0.0,0.0,0.0,0.0,0.0,0.0,0.0,0.0,0.0,-3.3353,-3.3466,-3.3734,0.0,0.0,0.0,0.0,0.0,0.0,0.0,0.0,0.0,0.0,0.0,0.0,0.0,0.0,0.0,-3.9521,-4.0079,-4.0672,-4.1389,-4.0939,-4.0087,-3.9046,-3.841,-3.8266,-3.8697,-3.8828,-3.9168,-3.9756,-4.02,-4.0376,-4.0296,-4.0159,-3.9968,-3.9853,-3.9117,-3.8792,-3.8792,-3.8792,-3.9324,-4.007,-4.007,-4.0593,-4.1311,-4.1311,-4.1311,-4.1311,-4.1311,-4.1311,-4.1311,-2.7523,0.0,0.0,0.0,0.0,0.0,0.0,0.0,0.0,0.0,0.0,0.0,0.0,0.0,-3.0858,-3.0858,-3.1152,-3.1678,-3.2327,-3.2356,-3.2659,-3.3397,-3.3354,-3.3579,-3.3967,-3.4342,-3.4743,-3.525,0.0,0.0,0.0,0.0,0.0,0.0,0.0,0.0,0.0,0.0,-3.3297,-3.3213,-3.363,0.0,-3.4356,-3.4312,-3.4229,-3.4309,-3.5039,-3.5024,-3.4696,-3.5076,-3.523,0.0,0.0,-3.488,-3.4949,0.0,-3.332,-3.3407,0.0,0.0,0.0,-3.2101,0.0,0.0,0.0,-3.2591,-3.2842,-3.3942,0.0,0.0,0.0,0.0,0.0,0.0,0.0,0.0,0.0,0.0,0.0,0.0,0.0,0.0,-3.8969,-3.9593,-4.0315,-4.1295,-4.0997,-4.0534,-3.9972,-3.906,-3.8682,-3.8962,-3.8556,-3.8579,-3.9155,-3.9429,-3.9847,-4.0422,-4.0314,-4.0411,-4.0694,-4.0275,-4.0058,-4.0058,-4.0058,-4.0262,-4.0694,-4.0694,-4.0909,-4.1311,-4.1311,-4.1311,-4.1311,-4.1311,-4.1311,-4.1311,-2.7523,0.0,0.0,0.0,0.0,0.0,0.0,0.0,0.0,0.0,0.0,0.0,0.0,0.0,0.0,0.0,-3.0815,-3.1158,0.0,0.0,-3.2551,-3.3321,-3.3237,-3.3492,-3.4109,-3.4109,-3.4409,-3.5082,0.0,0.0,0.0,0.0,0.0,0.0,0.0,0.0,0.0,0.0,0.0,-3.2804,0.0,-3.3016,-3.3396,-3.387,-3.4059,-3.4105,-3.4697,-3.4937,-3.4906,-3.4906,0.0,-3.4831,-3.4183,-3.4396,0.0,0.0,0.0,0.0,0.0,0.0,0.0,0.0,0.0,-3.1254,0.0,0.0,0.0,-3.3356,0.0,0.0,0.0,0.0,0.0,0.0,0.0,0.0,0.0,0.0,0.0,0.0,0.0,0.0,0.0,-3.9341,-4.0135,-4.085,-4.0982,-4.0843,-4.0393,-3.983,-3.9299,-3.8957,-3.8395,-3.828,-3.8553,-3.8658,-3.9168,-4.0082,-4.02,-4.0566,-4.1141,-4.1141,-4.1206,-4.1311,-4.1311,-4.1311,-4.1311,-4.1311,-4.1311,-4.1311,-4.1311,-4.1311,-4.1311,-4.1311,-4.1311,-4.1311,-2.7523,-2.7523,0.0,0.0,0.0,0.0,0.0,0.0,0.0,0.0,0.0,0.0,0.0,0.0,0.0,0.0,0.0,0.0,-3.2085,0.0,-3.2481,-3.3185,-3.3185,-3.3213,-3.3283,-3.3353,-3.3353,-3.3437,0.0,0.0,0.0,0.0,0.0,0.0,-3.2506,0.0,0.0,0.0,-3.1272,0.0,-3.1272,-3.2353,0.0,-3.3331,-3.3418,-3.3873,-3.3949,-3.4341,-3.4906,0.0,-3.4906,-3.4906,0.0,-3.4831,-3.4743,0.0,0.0,0.0,0.0,0.0,0.0,0.0,-3.1744,0.0,0.0,0.0,-3.1136,-3.1352,0.0,0.0,0.0,0.0,0.0,0.0,0.0,0.0,0.0,0.0,0.0,0.0,0.0,0.0,0.0,-3.9535,-4.0144,-4.0457,-4.0818,-4.0641,-3.9788,-4.0209,-3.9664,-3.807,-3.8715,-3.8756,-3.7991,-3.8462,-3.8776,-3.8906,-3.9455,-3.9991,-4.0514,-4.0514,-4.0814,-4.1311,-4.1311,-4.1311,-4.1311,-4.1311,-4.1311,-4.1311,-4.1311,-4.1311,-4.1311,-4.1311,-4.1311,-4.1311,-2.8085,-2.802,0.0,0.0,0.0,0.0,0.0,0.0,0.0,0.0,0.0,0.0,0.0,0.0,0.0,0.0,0.0,-3.1676,0.0,0.0,0.0,-3.2506,-3.2173,-3.2101,-3.2577,-3.2577,-3.2791,-3.3213,-3.2861,0.0,0.0,0.0,0.0,0.0,-3.1616,0.0,-3.1468,0.0,0.0,0.0,0.0,0.0,0.0,-3.3206,-3.3517,-3.4305,-3.418,-3.4366,-3.4592,0.0,-3.4592,0.0,0.0,0.0,0.0,0.0,0.0,0.0,0.0,0.0,0.0,0.0,0.0,0.0,-3.2032,0.0,-3.198,0.0,0.0,0.0,0.0,0.0,0.0,0.0,-3.4313,0.0,0.0,0.0,0.0,0.0,0.0,0.0,0.0,0.0,0.0,0.0,-4.059,-4.0665,-4.061,-4.0737,-4.0503,-3.9758,-3.9385,-3.9046,-3.8639,-3.8372,-3.8397,-3.871,-3.8972,-3.939,-3.9965,-4.0278,-4.0553,-4.0814,-4.1167,-4.1311,-4.1311,-4.1311,-4.1311,-4.1311,-4.1311,-4.1311,-4.1311,-4.1311,-4.1311,-4.1311,-2.8922,0.0,0.0,0.0,0.0,0.0,0.0,0.0,0.0,0.0,0.0,0.0,-3.0934,-3.0986,0.0,0.0,-3.0986,-3.1259,0.0,0.0,-3.1259,0.0,0.0,0.0,0.0,-3.1809,-3.2101,-3.2591,-3.2101,0.0,0.0,0.0,0.0,0.0,0.0,-3.0986,-3.0986,0.0,0.0,-3.1759,-3.1759,-3.2542,-3.359,-3.3421,-3.3896,-3.462,-3.4489,-3.4397,-3.4397,-3.4397,-3.4397,0.0,-3.4397,0.0,0.0,0.0,0.0,0.0,-3.3273,0.0,0.0,0.0,0.0,0.0,0.0,0.0,0.0,0.0,0.0,0.0,0.0,0.0,0.0,0.0,0.0,0.0,0.0,0.0,0.0,0.0,0.0,0.0,0.0,0.0,0.0,-3.9788,-3.9981,-4.0278,-4.0753,-4.0754,-4.0683,-4.0613,-3.9515,-3.9047,-3.921,-3.8317,-3.8109,-3.8488,-3.8488,-3.8789,-3.9377,-3.9769,-4.003,-4.0226,-4.0814,-4.1076,-4.1089,-4.1246,-4.1311,-4.1311,-4.1311,-4.1311,-4.1311,-4.1311,-4.1311,-4.1311,-2.9967,-2.9627,0.0,0.0,0.0,0.0,0.0,0.0,0.0,0.0,0.0,0.0,0.0,0.0,0.0,0.0,0.0,-3.0986,-3.1048,0.0,-3.0986,0.0,0.0,-3.0986,0.0,0.0,-3.1061,-3.1061,-3.1061,-3.1061,0.0,0.0,0.0,0.0,0.0,-3.0986,-3.0986,-3.0986,-3.1313,-3.1759,-3.1759,-3.2542,-3.3652,0.0,-3.4345,-3.4371,-3.4384,0.0,0.0,-3.4397,-3.4397,0.0,0.0,0.0,0.0,0.0,0.0,0.0,0.0,0.0,0.0,-3.3692,0.0,0.0,0.0,0.0,-3.2685,0.0,0.0,0.0,0.0,0.0,0.0,0.0,0.0,0.0,0.0,0.0,0.0,0.0,0.0,0.0,0.0,0.0,-3.8202,-3.8306,-3.8844,-3.9102,-3.9054,-3.9741,-3.9952,-3.9662,-3.8886,-3.8654,-3.9197,-3.8317,-3.7913,-3.7926,-3.7926,-3.8214,-3.8736,-3.8762,-3.9089,-3.9664,-4.0213,-4.0448,-4.0488,-4.1076,-4.1311,-4.1311,-4.1311,-4.1311,-4.1311,-4.1311,-4.1311,-4.1311,0.0,0.0,0.0,0.0,0.0,0.0,0.0,-3.0869,0.0,0.0,0.0,0.0,0.0,-3.0986,-3.0986,0.0,0.0,-3.0986,-3.0986,-3.1339,0.0,0.0,0.0,-3.1365,0.0,0.0,-3.0986,-3.0986,-3.0986,-3.0986,0.0,0.0,0.0,0.0,0.0,-3.1196,0.0,0.0,0.0,0.0,0.0,-3.377,-3.4149,0.0,0.0,-3.4397,-3.4397,-3.4397,0.0,-3.4397,-3.4397,-3.4397,-3.4397,-3.4397,-3.4397,-3.4397,-3.4397,0.0,0.0,0.0,-3.4358,-3.4175,0.0,0.0,0.0,0.0,0.0,0.0,0.0,0.0,0.0,0.0,0.0,0.0,0.0,0.0,0.0,0.0,0.0,0.0,0.0,0.0,0.0,0.0,0.0,-3.8202,-3.884,-3.9269,-3.9269,-3.9393,-3.9692,-4.0081,-3.9584,-3.962,-4.0418,-3.9297,-3.906,-3.9678,-3.8498,-3.8332,-3.901,-3.8793,-3.8815,-3.905,-3.9625,-4.0082,-4.0435,-4.0631,-4.0958,-4.1311,-4.1311,-4.1311,-4.1311,-4.1311,-4.1311,-4.1311,-3.0986,0.0,0.0,0.0,0.0,0.0,0.0,0.0,0.0,0.0,-3.0986,0.0,-3.1261,0.0,-3.1365,0.0,-3.1588,-3.1588,-3.1588,-3.194,0.0,-3.1601,-3.1954,0.0,0.0,0.0,-3.1287,-3.1287,-3.1091,-3.0986,0.0,0.0,0.0,0.0,0.0,0.0,0.0,0.0,-3.2698,0.0,0.0,-3.4397,0.0,0.0,-3.4397,-3.4397,0.0,-3.4397,-3.4397,-3.4397,-3.4397,-3.4397,-3.4397,-3.4397,-3.4397,-3.4397,-3.4397,-3.4397,-3.4397,-3.4397,0.0,-3.4397,-3.4397,0.0,-3.4397,0.0,0.0,0.0,0.0,0.0,0.0,0.0,0.0,0.0,0.0,0.0,0.0,-3.4314,0.0,0.0,0.0,0.0,0.0,0.0,-3.7567,-3.8127,-3.8397,-3.8634,0.0,0.0,-3.9127,-3.9905,-3.9562,-3.9879,-4.0966,-4.011,-3.9986,-4.0603,-3.9428,-3.9162,-3.9651,-3.9438,-3.9368,-3.9395,-4.0012,-4.0308,-4.0275,-4.0486,-4.0741,-4.0997,-4.0997,-4.1128,-4.1311,-4.1311,-4.1311,-4.1311,0.0,0.0,0.0,0.0,-3.0986,0.0,0.0,0.0,-3.0999,0.0,-3.1026,-3.1248,-3.1823,-3.1798,-3.211,-3.2646,-3.2685,-3.2685,-3.2685,-3.2725,0.0,0.0,-3.2725,-3.2725,-3.2685,0.0,0.0,0.0,0.0,0.0,0.0,0.0,0.0,0.0,-3.1798,0.0,-3.2738,-3.2738,-3.3077,-3.3679,-3.4188,-3.4397,-3.4397,-3.4397,-3.4397,-3.4397,-3.4397,-3.4397,-3.4397,-3.4397,-3.4397,-3.4397,-3.4397,-3.4397,-3.4397,-3.4397,-3.4397,-3.4397,-3.4397,-3.4397,-3.4397,-3.4397,0.0,0.0,0.0,0.0,-3.4397,0.0,0.0,0.0,0.0,0.0,0.0,0.0,0.0,0.0,0.0,0.0,0.0,0.0,0.0,0.0,0.0,-3.5749,-3.6373,-3.7962,-3.7386,0.0,0.0,0.0,-3.8463,-3.9106,-3.8959,-3.9505,-4.0989,-4.0757,-4.0646,-4.076,-4.0689,-4.0603,-4.0689,-4.0603,-4.0603,-4.0631,-4.125,-4.1002,-4.0187,-4.0743,-4.0776,-4.0468,-4.0494,-4.0874,-4.1411,-4.1311,-4.1311,-4.1311,-3.0986,-3.0986,-3.0986,0.0,-3.0986,-3.0986,0.0,0.0,0.0,0.0,-3.1614,-3.1836,-3.2411,-3.2476,-3.2529,-3.2685,-3.2685,0.0,0.0,0.0,0.0,-3.2712,-3.3117,-3.3156,-3.2698,-3.2555,0.0,-3.2476,0.0,0.0,-3.2254,0.0,0.0,0.0,0.0,0.0,-3.3365,-3.3365,-3.3679,-3.4201,-3.4345,-3.4397,0.0,0.0,-3.4397,-3.4397,-3.4397,-3.4397,-3.4397,-3.4397,-3.4397,-3.4397,-3.4397,-3.4397,-3.4397,-3.4397,-3.4397,-3.4397,-3.4397,-3.4397,-3.4397,-3.4397,-3.4397,-3.4397,0.0,0.0,0.0,0.0,0.0,0.0,0.0,0.0,0.0,0.0,0.0,0.0,0.0,0.0,0.0,-3.4397,0.0,0.0,-3.4716,-3.5883,-3.6503,-3.6373,-3.7323,0.0,0.0,0.0,0.0,-3.9269,-3.9106,-3.9746,-4.1302,-4.104,-4.1512,-4.2563,-4.1281,-4.0944,-4.1645,-4.0944,-4.0603,-4.0603,-4.0772,-4.0949,-4.1132,-4.1285,-4.1522,-4.1801,-4.1545,-4.181,-4.2333,-4.1597,-4.1311,-4.1311,-3.0986,0.0,0.0,-3.1313,0.0,0.0,-3.1365,0.0,0.0,-3.2136,-3.2215,0.0,-3.3025,-3.3091,-3.3182,-3.3417,-3.343,0.0,-3.343,0.0,0.0,-3.3456,-3.3757,-3.3783,-3.3443,-3.3208,0.0,-3.3091,0.0,0.0,-3.2685,0.0,0.0,0.0,0.0,-3.3404,0.0,-3.394,-3.4123,-3.4397,-3.4397,0.0,0.0,-3.4397,-3.4397,-3.4397,-3.4397,-3.4397,-3.4397,-3.4397,-3.4397,-3.4397,-3.4397,-3.4397,-3.4397,-3.4397,-3.4397,-3.4397,-3.4397,-3.4397,-3.4397,-3.4397,-3.4397,-3.4397,-3.4397,-3.4397,-3.4397,0.0,0.0,0.0,0.0,0.0,0.0,0.0,0.0,0.0,0.0,0.0,0.0,0.0,-3.4397,0.0,-3.4397,-3.5251,-3.5949,-3.6201,-3.6674,0.0,0.0,0.0,0.0,-3.8308,-3.9176,-4.0083,-4.095,-4.14,-4.2051,-4.291,-4.2173,-4.2058,-4.2578,-4.2058,-4.1796,-4.1796,-4.1796,-4.1748,-4.1753,-4.1753,-4.1764,-4.1929,-4.1998,-4.2433,-4.297,-4.2426,-4.2118,-4.1967,0.0,0.0,0.0,0.0,0.0,0.0,0.0,-3.1928,0.0,-3.2738,0.0,-3.3038,-3.3639,-3.3692,-3.3888,-3.4358,0.0,-3.4397,-3.4397,-3.4397,-3.4397,-3.4397,-3.4397,-3.4397,-3.4397,-3.394,-3.3692,0.0,0.0,0.0,0.0,0.0,0.0,0.0,0.0,0.0,0.0,-3.4397,-3.4397,0.0,-3.4397,-3.4397,-3.4397,-3.4397,-3.4397,-3.4397,-3.4397,-3.4397,-3.4397,-3.4397,-3.4397,-3.4397,-3.4397,-3.4397,-3.4397,-3.4397,-3.4397,-3.4397,-3.4397,-3.4397,-3.4397,-3.4397,-3.4397,-3.4397,-3.4397,-3.4397,-3.4397,-3.4397,-3.4397,-3.4397,0.0,0.0,0.0,0.0,0.0,0.0,0.0,0.0,0.0,0.0,0.0,0.0,-3.4397,-3.4481,-3.5101,0.0,0.0,0.0,0.0,0.0,0.0,-3.7204,-3.9088,-4.0233,-4.0397,0.0,-4.2192,-4.2372,-4.294,-4.3175,-4.3329,-4.3329,-4.3329,-4.3329,-4.3329,-4.2835,-4.2155,-4.2155,-4.1935,-4.1702,-4.2195,-4.2801,-4.3364,-4.3448,-4.3352,-4.3067,0.0,0.0,0.0,0.0,0.0,-3.2619,-3.294,-3.2696,-3.2764,-3.3352,-3.343,-3.3639,-3.4201,-3.4254,-3.4293,-3.4384,-3.4397,0.0,0.0,0.0,0.0,-3.4397,-3.4397,-3.4397,-3.4397,-3.4306,-3.4254,0.0,0.0,0.0,0.0,0.0,0.0,0.0,0.0,0.0,-3.4397,-3.4397,0.0,-3.4397,-3.4397,-3.4397,-3.4397,-3.4397,-3.4397,-3.4397,-3.4397,-3.4397,-3.4397,-3.4397,-3.4397,-3.4397,-3.4397,-3.4397,-3.4397,-3.4397,-3.4397,-3.4397,-3.4397,-3.4397,-3.4397,-3.4397,-3.4397,-3.4397,-3.4397,-3.4397,-3.4397,-3.4397,-3.4397,-3.4397,-3.4397,0.0,0.0,0.0,0.0,0.0,0.0,0.0,0.0,0.0,0.0,-3.4397,0.0,0.0,0.0,0.0,0.0,0.0,0.0,0.0,0.0,0.0,-3.8692,0.0,0.0,0.0,-4.1128,-4.2357,-4.2335,-4.2663,-4.3329,-4.3329,-4.3329,-4.3329,-4.3329,-4.325,-4.309,-4.309,-4.2864,-4.2595,-4.271,-4.3128,-4.3761,-4.4368,-4.4539,-4.4428,0.0,0.0,0.0,0.0,0.0,0.0,0.0,-3.3524,0.0,-3.3814,-3.3936,-3.411,-3.4371,-3.4397,-3.4397,-3.4397,-3.4397,-3.4397,-3.4397,-3.4397,-3.4397,-3.4397,-3.4397,0.0,-3.4397,-3.4397,-3.4397,-3.4397,0.0,0.0,0.0,0.0,0.0,0.0,0.0,-3.4397,0.0,0.0,0.0,-3.4397,-3.4397,-3.4397,-3.4397,-3.4397,-3.4397,-3.4397,-3.4397,-3.4397,-3.4397,-3.4397,-3.4397,-3.4397,-3.4397,-3.4397,-3.4397,-3.4397,-3.4397,-3.4397,-3.4397,-3.4397,-3.4397,-3.4397,-3.4397,-3.4397,-3.4397,-3.4397,-3.4397,-3.4397,-3.4397,-3.4397,-3.4397,-3.4397,0.0,0.0,0.0,0.0,0.0,0.0,0.0,0.0,0.0,0.0,0.0,0.0,0.0,0.0,0.0,0.0,0.0,0.0,0.0,0.0,0.0,0.0,0.0,0.0,0.0,-4.154,-4.1818,-4.2308,-4.3155,-4.3155,-4.317,-4.3329,-4.3329,-4.3329,-4.3329,-4.3329,-4.3189,-4.3048,-4.3048,-4.3431,-4.4133,-4.4442,-4.4988,-4.5492,0.0,-3.2802,0.0,0.0,-3.3333,0.0,-3.3927,-3.3992,-3.4076,-3.4076,-3.4314,-3.4397,-3.4314,-3.4397,-3.4397,-3.4397,-3.4397,-3.4397,-3.4397,-3.4397,-3.4397,-3.4397,-3.4397,-3.4397,-3.4397,-3.4397,-3.4397,0.0,0.0,0.0,0.0,0.0,0.0,0.0,0.0,0.0,0.0,0.0,-3.4397,-3.4397,-3.4397,-3.4397,-3.4397,-3.4397,-3.4397,-3.4397,-3.4397,-3.4397,-3.4397,-3.4397,-3.4397,-3.4397,-3.4397,-3.4397,-3.4397,-3.4397,-3.4397,-3.4397,-3.4397,-3.4397,-3.4397,-3.4397,-3.4397,-3.4397,-3.4397,-3.4397,-3.4397,-3.4397,-3.4397,-3.4397,-3.4397,-3.4397,0.0,0.0,0.0,0.0,0.0,0.0,0.0,0.0,0.0,0.0,-3.4397,0.0,0.0,0.0,0.0,0.0,0.0,0.0,0.0,0.0,0.0,-3.9031,-3.9031,0.0,-4.0053,-4.0566,-4.1136,-4.1848,-4.2708,-4.2921,-4.3076,-4.325,-4.325,-4.3329,-4.3329,-4.3329,-4.3329,-4.3329,-4.3329,-4.3643,-4.4122,-4.4272,-4.499,-4.5923,0.0,0.0,0.0,0.0,0.0,0.0,-3.3471,-3.3641,-3.381,-3.4076,-3.4314,-3.4314,-3.416,-3.4314,-3.4397,-3.4397,-3.4397,-3.4397,-3.4397,-3.4397,-3.4397,-3.4397,-3.4397,-3.4397,-3.4397,-3.4397,-3.4397,0.0,0.0,-3.4149,0.0,0.0,0.0,0.0,0.0,0.0,0.0,-3.4397,-3.4397,-3.4397,-3.4397,-3.4397,-3.4397,-3.4397,-3.4397,-3.4397,-3.4397,-3.4397,-3.4397,-3.4397,-3.4397,-3.4397,-3.4397,-3.4397,-3.4397,-3.4397,-3.4397,-3.4397,-3.4397,-3.4397,-3.4397,-3.4397,-3.4397,-3.4397,-3.4397,-3.4397,-3.4397,-3.4397,-3.4397,-3.4397,-3.4397,-3.4397,-3.4397,0.0,0.0,0.0,0.0,0.0,0.0,0.0,0.0,0.0,0.0,-3.4397,0.0,0.0,0.0,0.0,0.0,0.0,0.0,-3.7886,0.0,-3.8263,-3.8782,-3.8914,-3.9224,-3.9902,-4.0411,-4.1057,-4.1833,-4.2648,-4.2996,-4.3076,-4.325,-4.3329,-4.3329,-4.3329,-4.3329,-4.3329,-4.3329,-4.3374,-4.3494,-4.4092,-4.4392,-4.4691,0.0,0.0,0.0,0.0,0.0,0.0,0.0,-3.3129,-3.3683,-3.4114,-3.4198,-3.4373,-3.4822,-3.4862,-3.5064,-3.5391,-3.5417,-3.5417,-3.5417,-3.5116,-3.4933,-3.4933,-3.458,-3.4397,-3.4397,-3.4397,-3.4397,0.0,0.0,0.0,0.0,0.0,0.0,0.0,0.0,-3.4397,-3.4397,-3.4397,-3.4397,-3.4397,-3.4397,-3.4397,-3.4397,-3.4397,-3.4397,-3.4397,-3.4397,-3.4397,-3.4397,-3.4397,-3.4397,-3.4397,-3.4397,-3.4397,-3.4397,-3.4397,-3.4397,-3.4397,-3.4397,-3.4397,-3.4397,-3.4397,-3.4397,-3.4397,-3.4397,-3.4397,-3.4397,-3.4397,-3.4397,-3.4397,-3.4397,-3.4397,-3.4397,0.0,0.0,0.0,0.0,0.0,0.0,0.0,0.0,0.0,0.0,0.0,0.0,0.0,0.0,0.0,0.0,0.0,0.0,-3.8412,0.0,-3.8501,-3.8649,-3.8649,-3.8912,-3.9434,-3.9984,-4.0689,-4.1571,-4.2379,-4.2915,-4.317,-4.325,-4.3329,-4.3329,-4.3329,-4.3329,-4.3329,-4.3329,-4.3329,-4.3359,-4.3629,-4.3973,-4.4392,-3.0831,0.0,-3.2289,0.0,-3.1952,-3.2835,-3.256,-3.3121,-3.3768,-3.4413,-3.4395,-3.4577,-3.5163,-3.5288,-3.5431,-3.582,-3.5947,-3.6035,-3.6035,-3.5744,-3.5534,-3.5534,-3.4972,0.0,-3.4659,-3.4489,-3.4397,-3.4397,-3.4397,0.0,0.0,0.0,0.0,0.0,-3.4397,-3.4397,-3.4397,-3.4397,-3.4397,-3.4397,-3.4397,-3.4397,-3.4397,-3.4397,-3.4397,-3.4397,-3.4397,-3.4397,-3.4397,-3.4397,-3.4397,-3.4397,-3.4397,-3.4397,-3.4397,-3.4397,-3.4397,-3.4397,-3.4397,-3.4397,-3.4397,-3.4397,-3.4397,-3.4397,-3.4397,-3.4397,-3.4397,-3.4397,-3.4397,-3.4397,-3.4397,-3.4397,-3.4397,-3.4397,0.0,0.0,0.0,0.0,0.0,0.0,-3.4397,-3.4397,-3.4397,-3.4397,0.0,0.0,0.0,0.0,0.0,0.0,0.0,0.0,0.0,0.0,-3.859,-3.859,-3.875,-3.9004,-3.9726,-4.0415,-4.1054,-4.2225,-4.285,-4.325,-4.325,-4.3329,-4.3329,-4.3329,-4.3329,-4.3329,-4.3329,-4.3329,-4.3329,-4.3329,-4.3629,-4.4047,-3.0496,-3.0328,-3.0531,-3.1448,-3.1625,-3.2159,-3.362,-3.3884,-3.4174,-3.5022,-3.5085,-3.5085,-3.5085,-3.5264,-3.543,-3.5442,-3.5633,-3.5823,-3.5823,-3.5947,-3.6096,0.0,0.0,-3.5286,-3.5286,-3.4711,-3.4397,-3.4397,0.0,0.0,-3.36,0.0,-3.3888,-3.4397,-3.4397,-3.4397,-3.4397,-3.4397,-3.4397,-3.4397,-3.4397,-3.4397,-3.4397,-3.4397,-3.4397,-3.4397,-3.4397,-3.4397,-3.4397,-3.4397,-3.4397,-3.4397,-3.4397,-3.4397,-3.4397,-3.4397,-3.4397,-3.4397,-3.4397,-3.4397,-3.4397,-3.4397,-3.4397,-3.4397,-3.4397,-3.4397,-3.4397,-3.4397,-3.4397,-3.4397,-3.4397,-3.4397,-3.4397,-3.4397,0.0,0.0,0.0,0.0,0.0,-3.4397,-3.4397,-3.4397,-3.4397,0.0,0.0,0.0,0.0,0.0,0.0,0.0,0.0,-3.6624,-3.8248,0.0,-3.8782,-3.8782,-3.8723,-3.8545,-3.9571,-4.0104,-4.0147,-4.1938,-4.2835,-4.2996,-4.325,-4.3329,-4.3329,-4.3329,-4.3329,-4.3329,-4.3329,-4.3329,-4.3329,-4.3329,-4.3344,-4.3449,-2.8434,-2.9338,-3.0194,-3.0167,-3.1225,-3.222,-3.2391,-3.2935,-3.3601,-3.4242,-3.4316,-3.4743,-3.5898,-3.5963,-3.616,0.0,-3.6675,-3.6675,0.0,-3.656,-3.643,-3.643,-3.6061,-3.5678,-3.5312,-3.5103,-3.4816,-3.4397,0.0,0.0,0.0,-3.4136,-3.4241,-3.4397,-3.4397,-3.4397,-3.4397,-3.4397,-3.4397,-3.4397,-3.4397,-3.4397,-3.4397,-3.4397,-3.4397,-3.4397,-3.4397,-3.4397,-3.4397,-3.4397,-3.4397,-3.4397,-3.4397,-3.4397,-3.4397,-3.4397,-3.4397,-3.4397,-3.4397,-3.4397,-3.4397,-3.4397,-3.4397,-3.4397,-3.4397,-3.4397,-3.4397,-3.4397,-3.4397,-3.4397,-3.4397,-3.4397,-3.4397,-3.4397,-3.4397,0.0,0.0,0.0,0.0,-3.4397,-3.4397,-3.4397,0.0,-3.4397,0.0,0.0,0.0,0.0,0.0,0.0,0.0,0.0,-3.7796,0.0,-3.8797,-3.8782,-3.8723,-3.853,-3.974,-4.0806,-4.1697,-4.2335,-4.2835,-4.2996,-4.325,-4.3329,-4.3329,-4.3329,-4.3329,-4.3329,-4.3329,-4.3329,-4.3329,-4.3329,-4.3329,-4.3359,-2.7565,-2.8526,-2.941,-2.9726,-3.0733,-3.1646,-3.1892,-3.2439,-3.3197,-3.421,-3.4294,-3.481,-3.6225,-3.6324,0.0,-3.6803,-3.6922,-3.7015,-3.7108,-3.6959,-3.6949,-3.7053,-3.6674,-3.6279,-3.5953,-3.5521,0.0,-3.4737,-3.4502,-3.4397,-3.4397,-3.4397,-3.4397,-3.4397,-3.4397,-3.4397,-3.4397,-3.4397,-3.4397,-3.4397,-3.4397,-3.4397,-3.4397,-3.4397,-3.4397,-3.4397,-3.4397,-3.4397,-3.4397,-3.4397,-3.4397,-3.4397,-3.4397,-3.4397,-3.4397,-3.4397,-3.4397,-3.4397,-3.4397,-3.4397,-3.4397,-3.4397,-3.4397,-3.4397,-3.4397,-3.4397,-3.4397,-3.4397,-3.4397,-3.4397,-3.4397,-3.4397,-3.4397,-3.4397,-3.4397,-3.4397,-3.4397,0.0,0.0,0.0,0.0,0.0,0.0,-3.4397,-3.4397,0.0,0.0,0.0,0.0,0.0,0.0,-3.7309,-3.7947,0.0,-3.9017,-3.8943,-3.887,-3.8752,-3.9985,-4.1199,-4.2541,-4.2688,-4.2915,-4.2996,-4.325,-4.3329,-4.3329,-4.3329,-4.3329,-4.3329,-4.3329,-4.3329,-4.3329,-4.3329,-4.3329,-4.3329,-2.7893,-2.7976,-2.8404,0.0,-3.0133,0.0,-3.2127,-3.2305,-3.2857,-3.4412,-3.4678,-3.5078,-3.6156,-3.6358,-3.6358,-3.6358,0.0,0.0,0.0,-3.7307,-3.7598,-3.7808,-3.7364,-3.7037,-3.6998,-3.5966,-3.5378,-3.5299,-3.4698,-3.4397,-3.4397,-3.4397,-3.4397,-3.4397,-3.4397,-3.4397,-3.4397,-3.4397,-3.4397,-3.4397,-3.4397,-3.4397,-3.4397,-3.4397,-3.4397,-3.4397,-3.4397,-3.4397,-3.4397,-3.4397,-3.4397,-3.4397,-3.4397,-3.4397,-3.4397,-3.4397,-3.4397,-3.4397,-3.4397,-3.4397,-3.4397,-3.4397,-3.4397,-3.4397,-3.4397,-3.4397,-3.4397,-3.4397,-3.4397,-3.4397,-3.4397,-3.4397,-3.4397,-3.4397,-3.4397,-3.4397,-3.4397,0.0,0.0,0.0,0.0,0.0,0.0,-3.4397,-3.4397,0.0,0.0,0.0,0.0,0.0,-3.7553,-3.688,-3.8472,-3.9337,-3.9424,-3.9192,-3.9149,-3.9253,-4.0303,-4.1494,-4.2688,-4.2915,-4.2981,-4.2996,-4.325,-4.3329,-4.3329,-4.3329,-4.3329,-4.3329,-4.3329,-4.3329,-4.3329,-4.3329,-4.3329,-4.3329,0.0,0.0,-2.8885,-3.0404,-3.069,-3.0954,-3.1638,-3.1816,-3.195,-3.2264,-3.3089,-3.3993,-3.5078,-3.587,-3.6358,-3.6358,-3.6452,-3.6546,-3.6546,-3.6734,-3.7015,-3.7307,-3.7376,-3.7274,-3.7011,-3.6737,-3.6175,-3.5299,-3.4698,-3.4397,-3.4397,-3.4397,-3.4397,-3.4397,-3.4397,-3.4397,-3.4397,-3.4397,-3.4397,-3.4397,-3.4397,-3.4397,-3.4397,-3.4397,-3.4397,-3.4397,-3.4397,-3.4397,-3.4397,-3.4397,-3.4397,-3.4397,-3.4397,-3.4397,-3.4397,-3.4397,-3.4397,-3.4397,-3.4397,-3.4397,-3.4397,-3.4397,-3.4397,-3.4397,-3.4397,-3.4397,-3.4397,-3.4397,-3.4397,-3.4397,-3.4397,-3.4397,-3.4397,-3.4397,-3.4397,-3.4397,-3.4397,-3.4397,0.0,0.0,-3.4397,-3.4397,-3.4397,-3.4397,-3.4397,0.0,0.0,0.0,0.0,-3.6122,-3.7049,-3.6894,-3.7933,-3.8811,-3.9424,-3.9337,-3.9771,-4.0634,-4.1204,-4.1907,-4.2688,-4.2915,-4.2981,-4.2996,-4.325,-4.3329,-4.3329,-4.3329,-4.3329,-4.3329,-4.3329,-4.3329,-4.3329,-4.3329,-4.3329,-4.3329,-2.8887,-2.8928,-2.9265,-3.0327,-3.0504,-3.0589,-3.0845,-3.0888,-3.1084,-3.1586,-3.2083,-3.3089,-3.4678,-3.5271,-3.587,-3.6358,-3.6358,-3.6452,-3.6534,-3.6628,-3.6815,-3.7108,-3.7214,-3.7258,-3.7026,-3.6768,-3.63,-3.5518,-3.5018,-3.4816,-3.4803,-3.4528,-3.4397,-3.4397,-3.4397,-3.4397,-3.4397,-3.4397,-3.4397,-3.4397,-3.4397,-3.4397,-3.4397,-3.4397,-3.4397,-3.4397,-3.4397,-3.4397,-3.4397,-3.4397,-3.4397,-3.4397,-3.4397,-3.4397,-3.4397,-3.4397,-3.4397,-3.4397,-3.4397,-3.4397,-3.4397,-3.4397,-3.4397,-3.4397,-3.4397,-3.4397,-3.4397,-3.4397,-3.4397,-3.4397,-3.4397,-3.4397,-3.4397,-3.4397,-3.4397,-3.4397,-3.4397,-3.4397,0.0,-3.4397,-3.4397,-3.4397,-3.4397,-3.4397,-3.4397,-3.4397,-3.4397,0.0,-3.4397,-3.5949,-3.688,-3.688,-3.8084,-3.8958,-3.9424,-3.9709,-4.0457,-4.1694,-4.1882,-4.2387,-4.301,-4.309,-4.3155,-4.3155,-4.325,-4.3329,-4.3329,-4.3329,-4.3329,-4.3329,-4.3329,-4.3329,-4.3329,-4.3329,-4.3329,-4.3329,-2.9332,-2.9415,-2.9528,-2.9922,-2.9994,-2.9994,-2.9994,-2.9994,-3.0287,-3.1278,-3.1483,-3.2275,-3.408,-3.4483,-3.4981,-3.6061,-3.6156,-3.625,-3.6615,-3.6628,-3.6722,-3.7015,-3.7015,-3.7015,-3.7108,-3.6557,-3.6135,-3.5939,-3.5531,-3.543,-3.5404,-3.4894,-3.4659,-3.4659,-3.4659,-3.4659,-3.4659,-3.4659,-3.4607,-3.4541,-3.4541,-3.4476,-3.4397,-3.4397,-3.4397,-3.4397,-3.4397,-3.4397,-3.4397,-3.4397,-3.4397,-3.4397,-3.4397,-3.4397,-3.4397,-3.4397,-3.4397,-3.4397,-3.4397,-3.4397,-3.4397,-3.4397,-3.4397,-3.4397,-3.4397,-3.4397,-3.4397,-3.4397,-3.4397,-3.4397,-3.4397,-3.4397,-3.4397,-3.4397,-3.4397,-3.4397,-3.4397,0.0,-3.4397,-3.4397,-3.4397,-3.4397,-3.4397,-3.4397,-3.4397,-3.4397,-3.4397,-3.4397,-3.4397,-3.5869,-3.6738,-3.6738,-3.8472,-3.9469,-3.9574,-4.0217,-4.116,-4.2357,-4.2462,-4.2791,-4.3329,-4.3329,-4.3329,-4.3329,-4.3329,-4.3329,-4.3329,-4.3329,-4.3329,-4.3329,-4.3329,-4.3329,-4.3329,-4.3329,-4.3329,-4.3329,-2.988,-2.9891,-2.9911,-2.9984,-2.9994,-2.9994,-2.9994,-2.9994,-3.0099,-3.0193,-3.1084,-3.1779,-3.2083,-3.2889,-3.3895,-3.4969,-3.5078,-3.5463,-3.6358,-3.6452,-3.6534,-3.6722,-3.6709,-3.6909,-3.7108,-3.6557,-3.6315,-3.6496,-3.5952,-3.5843,-3.5979,-3.5874,-3.5848,-3.5848,-3.5848,-3.5848,-3.5848,-3.5848,-3.5574,-3.5155,-3.5155,-3.4855,-3.4397,-3.4397,-3.4397,-3.4397,-3.4397,-3.4397,-3.4397,-3.4397,-3.4397,-3.4397,-3.4397,-3.4397,-3.4397,-3.4397,-3.4397,-3.4397,-3.4397,-3.4397,-3.4397,-3.4397,-3.4397,-3.4397,-3.4397,-3.4397,-3.4397,-3.4397,-3.4397,-3.4397,-3.4397,-3.4397,-3.4397,-3.4397,-3.4397,-3.4397,-3.4397,0.0,-3.4397,-3.4397,-3.4397,-3.4397,-3.4397,-3.4397,-3.4397,-3.4397,-3.4397,-3.4397,-3.4397,-3.5345,-3.5896,-3.5896,-3.8159,-3.9694,-4.0247,-4.0905,-4.1609,-4.2372,-4.2925,-4.324,-4.3329,-4.3329,-4.3329,-4.3329,-4.3329,-4.3329,-4.3329,-4.3329,-4.3329,-4.3329,-4.3329,-4.3329,-4.3329,-4.3329,-4.3329,-4.3329,-2.9994,-2.9994,-2.9994,-2.9994,-2.9994,-2.9994,-2.9994,-2.9994,-2.9994,-2.9994,-3.0391,-3.0991,-3.1586,-3.2083,-3.2789,-3.3883,-3.3895,-3.4385,-3.5475,-3.6061,-3.6452,-3.6534,-3.6534,-3.664,-3.6734,-3.6574,-3.6526,-3.6606,-3.6251,-3.6148,-3.6389,-3.6103,-3.6035,-3.6109,-3.6109,-3.6109,-3.6109,-3.6109,-3.5966,-3.573,-3.573,-3.5391,-3.4881,-3.4881,-3.4672,-3.4397,-3.4397,-3.4397,-3.4397,-3.4397,-3.4397,-3.4397,-3.4397,-3.4397,-3.4397,-3.4397,-3.4397,-3.4397,-3.4397,-3.4397,-3.4397,-3.4397,-3.4397,-3.4397,-3.4397,-3.4397,-3.4397,-3.4397,-3.4397,-3.4397,-3.4397,-3.4397,-3.4397,-3.4397,-3.4397,0.0,0.0,-3.4397,-3.4397,-3.4397,-3.4397,-3.4397,-3.4397,-3.4397,-3.4397,-3.4397,-3.4397,-3.4397,-3.4397,-3.5196,-3.5818,-3.613,-3.8116,-3.995,-4.1444,-4.1758,-4.2237,-4.2895,-4.3195,-4.3329,-4.3329,-4.3329,-4.3329,-4.3329,-4.3329,-4.3329,-4.3329,-4.3329,-4.3329,-4.3329,-4.3329,-4.3329,-4.3329,-4.3329,-4.3329,-4.3329,-2.9994,-2.9994,-2.9994,-2.9994,-2.9994,-2.9994,-2.9994,-2.9994,-2.9994,-2.9994,-2.9994,-3.0287,-3.1187,-3.1187,-3.1688,-3.2689,-3.2801,-3.3289,-3.4385,-3.5475,-3.6168,-3.6358,-3.6358,-3.6358,-3.6358,-3.6534,-3.6628,-3.6709,-3.6475,-3.6455,-3.6716,-3.6302,-3.6185,-3.6337,-3.6426,-3.6426,-3.6426,-3.6515,-3.6436,-3.6305,-3.6305,-3.5979,-3.5469,-3.5338,-3.5012,-3.458,-3.445,-3.4397,-3.4397,-3.4397,-3.4397,-3.4397,-3.4397,-3.4397,-3.4397,-3.4397,-3.4397,-3.4397,-3.4397,-3.4397,-3.4397,-3.4397,-3.4397,-3.4397,-3.4397,-3.4397,-3.4397,-3.4397,-3.4397,-3.4397,-3.4397,-3.4397,-3.4397,-3.4397,0.0,0.0,0.0,-3.4397,-3.4397,-3.4397,-3.4397,-3.4397,-3.4397,-3.4397,-3.4397,-3.4397,-3.4397,-3.4463,-3.4593,-3.5245,-3.5979,-3.6944,-3.8516,-4.0198,-4.203,-4.2279,-4.2686,-4.3329,-4.3329,-4.3329,-4.3329,-4.3329,-4.3329,-4.3329,-4.3329,-4.3329,-4.3329,-4.3329,-4.3329,-4.3329,-4.3329,-4.3329,-4.3329,-4.3329,-4.3329,-4.3329,-2.9994,-2.9994,-2.9994,-2.9994,-2.9994,-2.9994,-2.9994,-2.9994,-2.9994,-2.9994,-2.9994,-2.9994,-3.0099,-3.0088,-3.0588,-3.1575,-3.1677,-3.2185,-3.3201,-3.4288,-3.5367,-3.6358,-3.6358,-3.6358,-3.6358,-3.6452,-3.6546,-3.6709,-3.6671,-3.6845,-3.7044,-3.7006,-3.6993,-3.7073,-3.7284,-3.7376,-3.7376,-3.7665,-3.7442,-3.6933,-3.6933,-3.658,-3.5992,-3.5482,-3.5273,-3.5155,-3.4593,-3.4397,-3.4397,-3.4397,-3.4397,-3.4397,-3.4397,-3.4397,-3.4397,-3.4397,-3.4397,-3.4397,-3.4397,-3.4397,-3.4397,-3.4397,-3.4397,-3.4397,-3.4397,-3.4397,-3.4397,-3.4397,-3.4397,-3.4397,-3.4397,-3.4397,-3.4397,-3.4397,0.0,0.0,-3.4397,-3.4397,-3.4397,-3.4397,-3.4397,-3.4397,-3.4397,-3.4397,-3.4397,-3.4397,-3.4397,-3.4633,-3.5195,-3.5319,-3.6234,-3.8206,-3.9315,-4.0321,-4.1113,-4.1952,-4.2686,-4.3329,-4.3329,-4.3329,-4.3329,-4.3329,-4.3329,-4.3329,-4.3329,-4.3329,-4.3329,-4.3329,-4.3329,-4.3329,-4.3329,-4.3329,-4.3329,-4.3329,-4.3329,-4.3329,-2.9994,-2.9994,-2.9994,-2.9994,-2.9994,-2.9994,-2.9994,-2.9994,-2.9994,-2.9994,-2.9994,-2.9994,-2.9994,-2.9994,-3.0193,-3.0588,-3.0588,-3.1084,-3.2185,-3.3189,-3.4581,-3.6358,-3.6358,-3.6358,-3.6358,-3.6358,-3.6452,-3.6546,-3.6546,-3.6628,-3.6815,-3.6815,-3.6909,-3.7108,-3.7214,-3.7307,-3.7505,-3.7611,-3.7586,-3.756,-3.756,-3.7207,-3.6606,-3.6018,-3.5587,-3.5221,-3.462,-3.4397,-3.4397,-3.4397,-3.4397,-3.4397,-3.4397,-3.4397,-3.4397,-3.4397,-3.4397,-3.4397,-3.4397,-3.4397,-3.4397,-3.4397,-3.4397,-3.4397,-3.4397,-3.4397,-3.4397,-3.4397,-3.4397,-3.4397,-3.4397,-3.4397,-3.4397,-3.4397,0.0,-3.4397,-3.4397,-3.4397,-3.4397,-3.4397,-3.4397,-3.4397,-3.4397,-3.4397,-3.4554,-3.4933,-3.4959,-3.5195,-3.577,-3.6149,-3.6731,-3.7506,-3.9395,-4.0764,-4.1628,-4.2545,-4.309,-4.3329,-4.3329,-4.3329,-4.3329,-4.3329,-4.3329,-4.3329,-4.3329,-4.3329,-4.3329,-4.3329,-4.3329,-4.3329,-4.3329,-4.3329,-4.3329,-4.3329,-4.3329,-4.3329,-2.9994,-2.9994,-2.9994,-2.9994,-2.9994,-2.9994,-2.9994,-2.9994,-2.9994,-2.9994,-2.9994,-2.9994,-2.9994,-2.9994,-2.9994,-2.9994,-2.9994,-3.0297,-3.1084,-3.2095,-3.3784,-3.6263,-3.6358,-3.6358,-3.6358,-3.6358,-3.6358,-3.6358,-3.6358,-3.6452,-3.6628,-3.6628,-3.6722,-3.6922,-3.6922,-3.7108,-3.7413,-3.7505,-3.7611,-3.79,-3.79,-3.7652,-3.7207,-3.641,-3.5874,-3.5443,-3.4672,-3.4397,-3.4397,-3.4397,-3.4397,-3.4397,-3.4397,-3.4397,-3.4397,-3.4397,-3.4397,-3.4397,-3.4397,-3.4397,-3.4397,-3.4397,-3.4397,-3.4397,-3.4397,-3.4397,-3.4397,-3.4397,-3.4397,-3.4397,-3.4397,-3.4397,-3.4397,-3.4397,-3.4397,-3.4397,-3.4397,-3.4397,-3.4397,-3.4397,-3.4397,-3.4463,-3.4659,-3.4672,-3.492,-3.5508,-3.5547,-3.5796,-3.6358,-3.6959,-3.7453,-3.7682,-3.9605,-4.1029,-4.199,-4.2835,-4.3329,-4.3329,-4.3329,-4.3329,-4.3329,-4.3329,-4.3329,-4.3329,-4.3329,-4.3329,-4.3329,-4.3329,-4.3329,-4.3329,-4.3329,-4.3329,-4.3329,-4.3329,-4.3329,-4.3329,-2.9994,-2.9994,-2.9994,-2.9994,-2.9994,-2.9994,-2.9994,-2.9994,-2.9994,-2.9994,-2.9994,-2.9994,-2.9994,-2.9994,-2.9994,-2.9994,-2.9994,-2.9994,-2.9994,-3.0981,-3.3066,-3.6263,-3.6358,-3.6358,-3.6358,-3.6358,-3.6358,-3.6358,-3.6358,-3.6358,-3.6358,-3.6358,-3.6358,-3.6452,-3.6628,-3.6815,-3.7108,-3.7413,-3.7611,-3.79,-3.79,-3.79,-3.7769,-3.6567,-3.6109,-3.5953,-3.4816,-3.4397,-3.4397,-3.4397,-3.4397,-3.4397,-3.4397,-3.4397,-3.4397,-3.4397,-3.4397,-3.4397,-3.4397,-3.4397,-3.4397,-3.4397,-3.4397,-3.4397,-3.4397,-3.4397,-3.4397,-3.4397,-3.4397,-3.4397,-3.4397,-3.4397,-3.4397,-3.4397,-3.4397,-3.441,-3.441,-3.441,-3.441,-3.441,-3.441,-3.4646,-3.5247,-3.5312,-3.5534,-3.607,-3.6109,-3.6384,-3.6985,-3.7573,-3.8317,-3.921,-4.0073,-4.1029,-4.199,-4.2835,-4.3329,-4.3329,-4.3329,-4.3329,-4.3329,-4.3329,-4.3329,-4.3329,-4.3329,-4.3329,-4.3329,-4.3329,-4.3329,-4.3329,-4.3329,-4.3329,-4.3329,-4.3329,-4.3329,-4.3329,-2.9994,-2.9994,-2.9994,-2.9994,-2.9994,-2.9994,-2.9994,-2.9994,-2.9994,-2.9994,-2.9994,-2.9994,-2.9994,-2.9994,-2.9994,-2.9994,-2.9994,-3.0287,-3.1084,-3.1381,-3.2376,-3.4091,-3.4872,-3.5667,-3.6358,-3.6358,-3.6358,-3.6358,-3.6358,-3.6358,-3.6358,-3.6358,-3.6358,-3.6452,-3.6628,-3.6815,-3.7108,-3.7413,-3.7611,-3.79,-3.79,-3.79,-3.7769,-3.6567,-3.6109,-3.5953,-3.4816,-3.4397,-3.4397,-3.4397,-3.4397,-3.4397,-3.4397,-3.4397,-3.4397,-3.4397,-3.4397,-3.4397,-3.4397,-3.4397,-3.4397,-3.4397,-3.4397,-3.4397,-3.4397,-3.4397,-3.4397,-3.4397,-3.4397,-3.4397,-3.4397,-3.4397,-3.4397,-3.4397,-3.475,-3.5025,-3.5025,-3.5365,-3.5587,-3.5587,-3.5587,-3.5665,-3.5848,-3.5861,-3.6109,-3.6684,-3.7129,-3.7442,-3.7625,-3.7808,-3.7979,-3.8317,-3.9135,-4.0073,-4.1029,-4.2563,-4.3329,-4.3329,-4.3329,-4.3329,-4.3329,-4.3329,-4.3329,-4.3329,-4.3329,-4.3329,-4.3329,-4.3329,-4.3329,-4.3329,-4.3329,-4.3329,-4.3329,-4.3329,-4.3329,-4.3329,-2.9994,-2.9994,-2.9994,-2.9994,-2.9994,-2.9994,-2.9994,-2.9994,-2.9994,-2.9994,-2.9994,-2.9994,-2.9994,-2.9994,-2.9994,-2.9994,-2.9994,-3.0297,-3.0888,-3.0981,-3.1483,-3.2488,-3.3189,-3.4276,-3.5763,-3.5763,-3.5966,-3.6358,-3.6358,-3.6358,-3.6358,-3.6358,-3.6358,-3.6452,-3.6534,-3.6722,-3.7108,-3.7307,-3.7611,-3.79,-3.79,-3.79,-3.7769,-3.6567,-3.6109,-3.5953,-3.4816,-3.4397,-3.4397,-3.4397,-3.4397,-3.4397,-3.4397,-3.4397,-3.4397,-3.4397,-3.4397,-3.4397,-3.4397,-3.4397,-3.4397,-3.4397,-3.4397,-3.4397,-3.4397,-3.4397,-3.4463,-3.4711,-3.4763,-3.4816,-3.5038,-3.5064,-3.5064,-3.5064,-3.5378,-3.5626,-3.5626,-3.59,-3.6109,-3.6109,-3.6109,-3.6188,-3.6436,-3.6462,-3.6711,-3.7312,-3.7691,-3.79,-3.79,-3.79,-3.807,-3.8395,-3.9312,-4.0159,-4.1113,-4.2563,-4.3329,-4.3329,-4.3329,-4.3329,-4.3329,-4.3329,-4.3329,-4.3329,-4.3329,-4.3329,-4.3329,-4.3329,-4.3329,-4.3329,-4.3329,-4.3329,-4.3329,-4.3329,-4.3329,-4.3329,-2.9994,-2.9994,-2.9994,-2.9994,-2.9994,-2.9994,-2.9994,-2.9994,-2.9994,-2.9994,-2.9994,-2.9994,-2.9994,-2.9994,-2.9994,-2.9994,-2.9994,-2.9994,-2.9994,-2.9994,-3.0391,-3.1381,-3.1483,-3.2387,-3.4483,-3.4678,-3.5379,-3.6358,-3.6358,-3.6358,-3.6358,-3.6358,-3.6358,-3.6358,-3.6452,-3.664,-3.7108,-3.7108,-3.7413,-3.79,-3.79,-3.79,-3.7782,-3.6619,-3.6149,-3.5966,-3.4868,-3.445,-3.4397,-3.4397,-3.4397,-3.4397,-3.4397,-3.4397,-3.4397,-3.4397,-3.4397,-3.4397,-3.4397,-3.4397,-3.4397,-3.4397,-3.4397,-3.441,-3.4463,-3.4476,-3.4646,-3.5247,-3.5365,-3.5521,-3.6018,-3.6109,-3.6109,-3.6109,-3.6149,-3.6188,-3.6188,-3.6227,-3.6266,-3.6266,-3.6266,-3.6488,-3.7037,-3.709,-3.7312,-3.7861,-3.79,-3.79,-3.79,-3.79,-3.8226,-3.9033,-3.9899,-4.0788,-4.1728,-4.2659,-4.317,-4.3329,-4.3329,-4.3329,-4.3329,-4.3329,-4.3329,-4.3329,-4.3329,-4.3329,-4.3329,-4.3329,-4.3329,-4.3329,-4.3329,-4.3329,-4.3329,-4.3329,-4.3329,-4.3329,-2.9994,-2.9994,-2.9994,-2.9994,-2.9994,-2.9994,-2.9994,-2.9994,-2.9994,-2.9994,-2.9994,-2.9994,-2.9994,-2.9994,-2.9994,-2.9994,-2.9994,-2.9994,-2.9994,-2.9994,-3.0088,-3.0297,-3.0391,-3.0991,-3.2275,-3.3981,-3.5379,-3.6358,-3.6358,-3.6358,-3.6358,-3.6358,-3.6358,-3.6452,-3.6534,-3.6722,-3.6815,-3.7214,-3.7505,-3.7611,-3.7808,-3.79,-3.7821,-3.709,-3.6515,-3.6018,-3.5338,-3.4803,-3.4397,-3.4397,-3.4397,-3.4397,-3.4397,-3.4397,-3.4397,-3.4397,-3.4397,-3.4397,-3.4397,-3.4397,-3.4397,-3.4397,-3.4397,-3.4515,-3.4999,-3.5103,-3.526,-3.5809,-3.5926,-3.5966,-3.6083,-3.6109,-3.6109,-3.6109,-3.6502,-3.6802,-3.6802,-3.722,-3.7521,-3.7521,-3.7521,-3.756,-3.7691,-3.7704,-3.7756,-3.79,-3.79,-3.79,-3.79,-3.79,-3.7992,-3.8148,-3.8408,-3.8908,-3.9812,-4.076,-4.1879,-4.3329,-4.3329,-4.3329,-4.3329,-4.3329,-4.3329,-4.3329,-4.3329,-4.3329,-4.3329,-4.3329,-4.3329,-4.3329,-4.3329,-4.3329,-4.3329,-4.3329,-4.3329,-4.3329,-2.9994,-2.9994,-2.9994,-2.9994,-2.9994,-2.9994,-2.9994,-2.9994,-2.9994,-2.9994,-2.9994,-2.9994,-2.9994,-2.9994,-2.9994,-2.9994,-2.9994,-2.9994,-2.9994,-2.9994,-2.9994,-2.9994,-2.9994,-3.0484,-3.1586,-3.2678,-3.4068,-3.5667,-3.6156,-3.6358,-3.6358,-3.6358,-3.6358,-3.6358,-3.6546,-3.6628,-3.6722,-3.7015,-3.7201,-3.7307,-3.7598,-3.7703,-3.7638,-3.7143,-3.6632,-3.6031,-3.5495,-3.4907,-3.4397,-3.4397,-3.4397,-3.4397,-3.4397,-3.4397,-3.4397,-3.4397,-3.4397,-3.4397,-3.4397,-3.4397,-3.4397,-3.4397,-3.462,-3.4907,-3.5221,-3.5299,-3.5534,-3.6358,-3.6541,-3.6619,-3.692,-3.6959,-3.6959,-3.6959,-3.722,-3.7429,-3.7429,-3.7704,-3.79,-3.79,-3.79,-3.79,-3.79,-3.79,-3.79,-3.79,-3.79,-3.79,-3.79,-3.79,-3.79,-3.79,-3.8304,-3.8715,-3.921,-4.0159,-4.1113,-4.2044,-4.2482,-4.2915,-4.3265,-4.2835,-4.2915,-4.3329,-4.3329,-4.3329,-4.3329,-4.3329,-4.3329,-4.3329,-4.3329,-4.3329,-4.3329,-4.3329,-4.3329,-4.3329,-2.9994,-2.9994,-2.9994,-2.9994,-2.9994,-2.9994,-2.9994,-2.9994,-2.9994,-2.9994,-2.9994,-2.9994,-2.9994,-2.9994,-2.9994,-2.9994,-2.9994,-2.9994,-2.9994,-2.9994,-2.9994,-2.9994,-2.9994,-3.0391,-3.1278,-3.1483,-3.2577,-3.4483,-3.5571,-3.6168,-3.6156,-3.6358,-3.6358,-3.6358,-3.6358,-3.6452,-3.6628,-3.6722,-3.6815,-3.7015,-3.7307,-3.7413,-3.7453,-3.7157,-3.6635,-3.597,-3.56,-3.4986,-3.4397,-3.4397,-3.4397,-3.4397,-3.4397,-3.4397,-3.4397,-3.4397,-3.4397,-3.4397,-3.4397,-3.4397,-3.4424,-3.4528,-3.4933,-3.5351,-3.5547,-3.5587,-3.5887,-3.6946,-3.7155,-3.7312,-3.7808,-3.79,-3.79,-3.79,-3.79,-3.79,-3.79,-3.79,-3.79,-3.79,-3.79,-3.79,-3.79,-3.79,-3.79,-3.79,-3.79,-3.79,-3.79,-3.79,-3.79,-3.79,-3.8639,-3.8957,-3.8957,-3.9899,-4.0332,-4.0332,-4.1113,-4.1976,-4.282,-4.2237,-4.2415,-4.309,-4.325,-4.3329,-4.3329,-4.3329,-4.3329,-4.3329,-4.3329,-4.3329,-4.3329,-4.3329,-4.3329,-4.3329,-2.9994,-2.9994,-2.9994,-2.9994,-2.9994,-2.9994,-2.9994,-2.9994,-2.9994,-2.9994,-2.9994,-2.9994,-2.9994,-2.9994,-2.9994,-2.9994,-2.9994,-2.9994,-2.9994,-2.9994,-2.9994,-2.9994,-2.9994,-3.0099,-3.0193,-3.1084,-3.2185,-3.34,-3.4483,-3.4981,-3.5078,-3.5966,-3.6358,-3.6358,-3.6358,-3.6452,-3.6452,-3.6628,-3.6709,-3.6815,-3.7015,-3.7108,-3.7201,-3.7322,-3.6729,-3.5872,-3.5944,-3.5312,-3.4397,-3.4397,-3.4397,-3.4397,-3.4397,-3.4397,-3.4397,-3.4397,-3.4397,-3.4397,-3.4397,-3.4397,-3.4528,-3.5051,-3.5234,-3.5561,-3.6554,-3.6776,-3.6972,-3.7639,-3.7782,-3.7808,-3.7887,-3.79,-3.79,-3.79,-3.79,-3.79,-3.79,-3.79,-3.79,-3.79,-3.79,-3.79,-3.79,-3.79,-3.79,-3.79,-3.79,-3.79,-3.79,-3.79,-3.79,-3.79,-3.7979,-3.807,-3.807,-3.897,-3.9373,-3.9373,-3.9549,-4.0073,-4.1029,-4.1645,-4.2073,-4.2252,-4.2996,-4.3329,-4.3329,-4.3329,-4.3329,-4.3329,-4.3329,-4.3329,-4.3329,-4.3329,-4.3329,-4.3329,-2.9994,-2.9994,-2.9994,-2.9994,-2.9994,-2.9994,-2.9994,-2.9994,-2.9994,-2.9994,-2.9994,-2.9994,-2.9994,-2.9994,-2.9994,-2.9994,-2.9994,-2.9994,-2.9994,-2.9994,-2.9994,-2.9994,-2.9994,-2.9994,-2.9994,-3.0495,-3.0888,-3.1392,-3.3685,-3.4775,-3.4775,-3.587,-3.6358,-3.6358,-3.6358,-3.6358,-3.6452,-3.6452,-3.6534,-3.6534,-3.6815,-3.6909,-3.6922,-3.7201,-3.6896,-3.6172,-3.58,-3.5116,-3.4397,-3.4397,-3.4397,-3.4397,-3.4397,-3.4397,-3.4397,-3.4397,-3.4397,-3.4397,-3.4397,-3.4397,-3.4541,-3.5142,-3.5521,-3.5966,-3.6815,-3.726,-3.7586,-3.7848,-3.79,-3.79,-3.79,-3.79,-3.79,-3.79,-3.79,-3.79,-3.79,-3.79,-3.79,-3.79,-3.79,-3.79,-3.79,-3.79,-3.79,-3.79,-3.79,-3.79,-3.79,-3.79,-3.79,-3.79,-3.79,-3.79,-3.79,-3.8317,-3.8472,-3.8472,-3.8472,-3.9237,-4.0603,-4.0504,-4.0689,-4.1296,-4.2155,-4.2578,-4.2578,-4.309,-4.3329,-4.3329,-4.3329,-4.3329,-4.3329,-4.3329,-4.3329,-4.3329]}]]